[[{"header":{"parameterUnit":"m.s-1","parameterCategory":1,"la1":30.6,"la2":29.2853,"lo1":-89.7004,"lo2":-87.6739,"dy":0.0162,"dx":0.0183,"nx":112,"ny":82,"refTime":"2024-06-24T00:00:00:Z","depth":0,"parameterNumber":2,"parameterNumberName":"U-component_of_WINDS"},"data":[0.0,0.0,0.0,0.0,0.0,0.0,0.0,0.0,0.0,0.0,0.0,0.0,0.0,0.0,0.0,0.0,0.0,0.0,0.0,0.0,0.0,0.0,0.0,0.0,0.0,0.0,0.0,0.0,0.0,0.0,0.0,0.0,0.0,0.0,0.0,0.0,0.0,0.0,0.0,0.0,0.0,0.0,0.0,0.0,0.0,0.0,0.0,0.0,0.0,0.0,0.0,0.0,0.0,0.0,0.0,0.0,0.0,0.0,0.0,0.0,0.0,0.0,0.0,0.0,0.0,0.0,0.0,0.0,0.0,0.0,0.0,0.0,0.0,0.0,0.0,0.0,0.0,0.0,0.0,0.0,0.0,0.0,0.0,0.0,0.0,0.0,0.0,0.0,0.0,0.0,-2.215,-2.6396,-2.901,-3.0816,-3.1827,-3.0944,-2.8532,-2.4401,0.0,0.0,0.0,0.0,0.0,0.0,0.0,0.0,0.0,0.0,0.0,0.0,0.0,0.0,0.0,0.0,0.0,0.0,0.0,0.0,0.0,0.0,0.0,0.0,0.0,0.0,0.0,0.0,0.0,0.0,0.0,0.0,0.0,0.0,0.0,0.0,0.0,0.0,0.0,0.0,0.0,0.0,0.0,0.0,0.0,0.0,0.0,0.0,0.0,0.0,0.0,0.0,0.0,0.0,0.0,0.0,0.0,0.0,0.0,0.0,0.0,0.0,0.0,0.0,0.0,0.0,0.0,0.0,0.0,0.0,0.0,0.0,0.0,0.0,0.0,0.0,0.0,0.0,0.0,0.0,0.0,0.0,0.0,0.0,0.0,0.0,0.0,0.0,0.0,0.0,0.0,0.0,0.0,0.0,0.0,0.0,0.0,0.0,0.0,0.0,0.0,0.0,0.0,0.0,-2.4135,-2.9592,-3.0426,-3.0703,-3.1066,-3.0339,-2.8151,-2.4036,0.0,0.0,0.0,0.0,0.0,0.0,0.0,0.0,0.0,0.0,0.0,0.0,0.0,0.0,0.0,0.0,0.0,0.0,0.0,0.0,0.0,0.0,0.0,0.0,0.0,0.0,0.0,0.0,0.0,0.0,0.0,0.0,0.0,0.0,0.0,0.0,0.0,0.0,0.0,0.0,0.0,0.0,0.0,0.0,0.0,0.0,0.0,0.0,0.0,0.0,0.0,0.0,0.0,0.0,0.0,0.0,0.0,0.0,0.0,0.0,0.0,0.0,0.0,0.0,0.0,0.0,0.0,0.0,0.0,0.0,0.0,0.0,0.0,0.0,0.0,0.0,0.0,0.0,0.0,0.0,0.0,0.0,0.0,0.0,0.0,0.0,0.0,0.0,0.0,0.0,0.0,0.0,0.0,0.0,0.0,0.0,0.0,0.0,0.0,0.0,0.0,0.0,0.0,-2.2772,-2.5646,-2.9628,-3.0134,-3.0333,-3.0702,-3.0145,-2.8238,-2.4536,-2.2974,0.0,0.0,0.0,0.0,0.0,0.0,0.0,0.0,0.0,0.0,0.0,0.0,0.0,0.0,0.0,0.0,0.0,0.0,0.0,0.0,0.0,0.0,0.0,0.0,0.0,0.0,0.0,0.0,0.0,0.0,0.0,0.0,0.0,0.0,0.0,0.0,0.0,0.0,0.0,0.0,0.0,0.0,0.0,0.0,0.0,0.0,0.0,0.0,0.0,0.0,0.0,0.0,0.0,0.0,0.0,0.0,0.0,0.0,0.0,0.0,0.0,0.0,0.0,0.0,0.0,0.0,0.0,0.0,0.0,0.0,0.0,0.0,0.0,0.0,0.0,0.0,0.0,0.0,0.0,0.0,0.0,0.0,0.0,0.0,0.0,0.0,0.0,0.0,0.0,0.0,0.0,0.0,0.0,0.0,0.0,0.0,0.0,0.0,0.0,0.0,0.0,0.0,-2.5003,-2.7152,-2.9208,-2.9665,-2.9967,-3.0382,-2.9666,-2.7873,-2.48,-2.2967,0.0,0.0,0.0,0.0,0.0,0.0,0.0,0.0,0.0,0.0,0.0,0.0,0.0,0.0,0.0,0.0,0.0,0.0,0.0,0.0,0.0,0.0,0.0,0.0,0.0,0.0,0.0,0.0,0.0,0.0,0.0,0.0,0.0,0.0,0.0,0.0,0.0,0.0,0.0,0.0,0.0,0.0,0.0,0.0,0.0,0.0,0.0,0.0,0.0,0.0,0.0,0.0,0.0,0.0,0.0,0.0,0.0,0.0,0.0,0.0,0.0,0.0,0.0,0.0,0.0,0.0,0.0,0.0,0.0,0.0,0.0,0.0,0.0,0.0,0.0,0.0,0.0,0.0,0.0,0.0,0.0,0.0,0.0,0.0,0.0,0.0,0.0,0.0,0.0,0.0,0.0,0.0,0.0,0.0,0.0,0.0,0.0,0.0,0.0,0.0,0.0,0.0,-2.6346,-2.8963,-2.9689,-2.9778,-2.9817,-2.9842,-2.8373,-2.6469,-2.4119,-2.2005,0.0,0.0,0.0,0.0,0.0,0.0,0.0,0.0,0.0,0.0,0.0,0.0,0.0,0.0,0.0,0.0,0.0,0.0,0.0,0.0,0.0,0.0,0.0,0.0,0.0,0.0,0.0,0.0,0.0,0.0,0.0,0.0,0.0,0.0,0.0,0.0,0.0,0.0,0.0,0.0,0.0,0.0,0.0,0.0,0.0,0.0,0.0,0.0,0.0,0.0,0.0,0.0,0.0,0.0,0.0,0.0,0.0,0.0,0.0,0.0,0.0,0.0,0.0,0.0,0.0,0.0,0.0,0.0,0.0,0.0,0.0,0.0,0.0,0.0,0.0,0.0,0.0,0.0,0.0,0.0,0.0,0.0,0.0,0.0,0.0,0.0,0.0,0.0,0.0,0.0,0.0,0.0,0.0,0.0,0.0,0.0,0.0,0.0,0.0,0.0,0.0,0.0,-2.4281,-2.6352,0.0,-2.8633,-2.9,-2.9,-2.8119,-2.6553,-2.4056,0.0,0.0,0.0,0.0,0.0,0.0,0.0,0.0,0.0,0.0,0.0,0.0,0.0,0.0,0.0,0.0,0.0,0.0,0.0,0.0,0.0,0.0,0.0,0.0,0.0,0.0,0.0,0.0,0.0,0.0,0.0,0.0,0.0,0.0,0.0,0.0,0.0,0.0,0.0,0.0,0.0,0.0,0.0,0.0,0.0,0.0,0.0,0.0,0.0,0.0,0.0,0.0,0.0,0.0,0.0,0.0,0.0,0.0,0.0,0.0,0.0,0.0,0.0,0.0,0.0,0.0,0.0,0.0,0.0,0.0,0.0,0.0,0.0,0.0,0.0,0.0,0.0,0.0,0.0,0.0,0.0,0.0,0.0,0.0,0.0,0.0,0.0,0.0,0.0,0.0,0.0,0.0,0.0,0.0,0.0,0.0,0.0,0.0,0.0,0.0,0.0,0.0,-2.148,-2.3571,-2.5442,0.0,-2.7678,-2.8051,-2.8051,-2.7385,-2.5877,-2.3427,0.0,0.0,0.0,0.0,0.0,0.0,0.0,0.0,0.0,0.0,0.0,0.0,0.0,0.0,0.0,0.0,0.0,0.0,0.0,0.0,0.0,0.0,0.0,0.0,0.0,0.0,0.0,0.0,0.0,0.0,0.0,0.0,0.0,0.0,0.0,0.0,0.0,0.0,0.0,0.0,0.0,0.0,0.0,0.0,0.0,0.0,0.0,0.0,0.0,0.0,0.0,0.0,0.0,0.0,0.0,0.0,0.0,0.0,0.0,0.0,0.0,0.0,0.0,0.0,0.0,0.0,0.0,0.0,0.0,0.0,0.0,0.0,0.0,0.0,0.0,0.0,0.0,0.0,0.0,0.0,0.0,0.0,0.0,0.0,0.0,0.0,0.0,0.0,0.0,0.0,0.0,0.0,0.0,0.0,0.0,0.0,0.0,0.0,0.0,0.0,0.0,0.0,-2.167,-2.486,-2.7069,-2.7069,-2.7069,-2.711,-2.711,-2.5869,-2.4188,0.0,0.0,0.0,0.0,0.0,0.0,0.0,0.0,0.0,0.0,0.0,0.0,0.0,0.0,0.0,0.0,0.0,0.0,0.0,0.0,0.0,0.0,0.0,0.0,0.0,0.0,0.0,0.0,0.0,0.0,0.0,0.0,0.0,0.0,0.0,0.0,0.0,0.0,0.0,0.0,0.0,0.0,0.0,0.0,0.0,0.0,0.0,0.0,0.0,0.0,0.0,0.0,0.0,0.0,0.0,0.0,0.0,0.0,0.0,0.0,0.0,0.0,0.0,0.0,0.0,0.0,0.0,0.0,0.0,0.0,0.0,0.0,0.0,0.0,0.0,0.0,0.0,0.0,0.0,0.0,0.0,0.0,0.0,0.0,0.0,0.0,0.0,0.0,0.0,0.0,0.0,0.0,0.0,0.0,0.0,0.0,0.0,0.0,0.0,0.0,0.0,0.0,0.0,-2.0695,-2.3406,-2.5274,-2.5274,-2.5841,-2.6193,-2.6193,-2.5279,-2.3734,-2.1487,0.0,0.0,0.0,0.0,0.0,0.0,0.0,0.0,0.0,0.0,0.0,0.0,0.0,0.0,0.0,0.0,0.0,0.0,0.0,0.0,0.0,0.0,0.0,0.0,0.0,0.0,0.0,0.0,0.0,0.0,0.0,0.0,0.0,0.0,0.0,0.0,0.0,0.0,0.0,0.0,0.0,0.0,0.0,0.0,0.0,0.0,0.0,0.0,0.0,0.0,0.0,0.0,0.0,0.0,0.0,0.0,0.0,0.0,0.0,0.0,0.0,0.0,0.0,0.0,0.0,0.0,0.0,0.0,0.0,0.0,0.0,0.0,0.0,0.0,0.0,0.0,0.0,0.0,0.0,0.0,0.0,0.0,0.0,0.0,0.0,0.0,0.0,0.0,0.0,0.0,0.0,0.0,0.0,0.0,0.0,0.0,0.0,0.0,0.0,0.0,0.0,0.0,-2.0307,-2.2792,-2.4497,-2.4497,-2.4978,-2.5263,-2.5263,-2.4927,-2.3591,-2.0989,0.0,0.0,0.0,0.0,0.0,0.0,0.0,0.0,0.0,0.0,0.0,0.0,0.0,0.0,0.0,0.0,0.0,0.0,0.0,0.0,0.0,0.0,0.0,0.0,0.0,0.0,0.0,0.0,0.0,0.0,0.0,0.0,0.0,0.0,0.0,0.0,0.0,0.0,0.0,0.0,0.0,0.0,0.0,0.0,0.0,0.0,0.0,0.0,0.0,0.0,0.0,0.0,0.0,0.0,0.0,0.0,0.0,0.0,0.0,0.0,0.0,0.0,0.0,0.0,0.0,0.0,0.0,0.0,0.0,0.0,0.0,0.0,0.0,0.0,0.0,0.0,0.0,0.0,0.0,0.0,0.0,0.0,0.0,0.0,0.0,0.0,0.0,0.0,0.0,0.0,0.0,0.0,0.0,0.0,0.0,0.0,0.0,0.0,0.0,0.0,0.0,0.0,-2.0307,-2.2792,-2.4497,-2.4497,-2.4497,-2.4497,-2.4497,-2.4753,-2.3645,-2.0663,0.0,0.0,0.0,0.0,0.0,0.0,0.0,0.0,0.0,0.0,0.0,0.0,0.0,0.0,0.0,0.0,0.0,0.0,0.0,0.0,0.0,0.0,0.0,0.0,0.0,0.0,0.0,0.0,0.0,0.0,0.0,0.0,0.0,0.0,0.0,0.0,0.0,0.0,0.0,0.0,0.0,0.0,0.0,0.0,0.0,0.0,0.0,0.0,0.0,0.0,0.0,0.0,0.0,0.0,0.0,0.0,0.0,0.0,0.0,0.0,-2.4439,0.0,0.0,0.0,0.0,0.0,0.0,0.0,0.0,0.0,0.0,0.0,0.0,0.0,0.0,0.0,0.0,0.0,0.0,0.0,0.0,0.0,0.0,0.0,0.0,0.0,0.0,0.0,0.0,0.0,0.0,0.0,0.0,0.0,0.0,0.0,0.0,0.0,0.0,0.0,0.0,0.0,-2.0307,-2.2792,-2.4497,-2.4497,-2.4497,-2.4497,-2.4497,-2.4294,-2.3229,-2.1093,-1.9847,0.0,0.0,0.0,0.0,0.0,0.0,0.0,0.0,0.0,0.0,0.0,0.0,0.0,0.0,0.0,0.0,0.0,0.0,0.0,0.0,0.0,0.0,0.0,0.0,0.0,0.0,0.0,0.0,0.0,0.0,0.0,0.0,0.0,0.0,0.0,0.0,0.0,0.0,0.0,0.0,0.0,0.0,0.0,0.0,0.0,0.0,0.0,0.0,0.0,0.0,0.0,0.0,0.0,0.0,0.0,0.0,0.0,0.0,0.0,0.0,-2.6334,0.0,0.0,0.0,0.0,0.0,0.0,0.0,0.0,0.0,0.0,0.0,0.0,0.0,0.0,0.0,0.0,0.0,0.0,0.0,0.0,0.0,0.0,0.0,0.0,0.0,0.0,0.0,0.0,0.0,0.0,0.0,0.0,0.0,0.0,0.0,0.0,0.0,0.0,0.0,0.0,-2.0602,-2.2856,-2.4378,-2.4378,-2.4239,-2.4143,-2.4143,-2.3982,-2.3257,-2.1841,-2.0522,0.0,0.0,0.0,0.0,0.0,0.0,0.0,0.0,0.0,0.0,0.0,0.0,0.0,0.0,0.0,0.0,0.0,0.0,0.0,0.0,0.0,0.0,0.0,0.0,0.0,0.0,0.0,0.0,0.0,0.0,0.0,0.0,0.0,0.0,0.0,0.0,0.0,0.0,0.0,0.0,0.0,0.0,0.0,0.0,0.0,0.0,0.0,0.0,0.0,0.0,0.0,0.0,0.0,-3.1888,-3.279,-3.4175,-3.3783,-3.36,-3.347,-3.1078,-2.9915,-2.9601,-2.8093,0.0,0.0,0.0,0.0,0.0,0.0,0.0,0.0,0.0,0.0,0.0,0.0,0.0,0.0,0.0,0.0,0.0,0.0,0.0,0.0,0.0,0.0,0.0,0.0,-2.3732,-2.3474,0.0,0.0,0.0,0.0,0.0,0.0,0.0,0.0,0.0,0.0,0.0,0.0,-2.1342,-2.3186,-2.4362,-2.4329,-2.4135,-2.3921,-2.3807,-2.3797,-2.3456,-2.2653,-2.1498,-2.0236,0.0,0.0,0.0,0.0,0.0,0.0,0.0,0.0,0.0,0.0,0.0,0.0,0.0,0.0,0.0,0.0,0.0,0.0,0.0,0.0,0.0,0.0,0.0,0.0,0.0,0.0,0.0,0.0,0.0,0.0,0.0,0.0,-1.978,-2.1553,0.0,0.0,0.0,0.0,0.0,0.0,0.0,0.0,0.0,0.0,0.0,0.0,0.0,-3.0647,-3.2659,-3.33,-3.3718,-3.3966,-3.5482,-3.6332,-3.6567,-3.7011,-3.722,-3.7194,-3.6815,0.0,-3.1406,-3.0712,0.0,0.0,0.0,0.0,0.0,0.0,0.0,0.0,0.0,0.0,0.0,0.0,0.0,0.0,0.0,0.0,0.0,0.0,0.0,0.0,0.0,0.0,-2.5972,-2.5523,-2.5879,-2.5875,0.0,-2.2141,-2.0172,-1.9899,-1.893,0.0,0.0,0.0,0.0,0.0,0.0,0.0,-2.2687,-2.4177,-2.5008,-2.4842,-2.4798,-2.4493,-2.3871,-2.3797,-2.3586,-2.3136,-2.2573,-2.172,-2.0637,-1.9271,0.0,0.0,0.0,0.0,0.0,0.0,0.0,0.0,0.0,0.0,0.0,0.0,0.0,0.0,0.0,0.0,0.0,0.0,0.0,0.0,0.0,0.0,0.0,0.0,0.0,0.0,0.0,0.0,0.0,-1.9916,-2.2019,-2.2818,-2.3093,-2.2984,0.0,0.0,0.0,0.0,0.0,0.0,0.0,0.0,0.0,-3.245,-3.2868,-3.3835,-3.5495,-3.6083,-3.6684,-3.7338,-3.7756,-3.8292,-3.8919,-3.888,-3.8867,-3.8867,-3.8867,-3.7665,-3.5544,-3.4045,-3.2581,-3.1196,0.0,0.0,0.0,0.0,-2.8662,-2.8497,-2.8576,-2.8234,0.0,-2.5529,0.0,0.0,0.0,0.0,0.0,0.0,0.0,0.0,0.0,0.0,0.0,-2.7013,-2.7386,-2.7614,-2.722,-2.5627,-2.3815,0.0,-2.1497,-2.0524,-1.8785,0.0,0.0,0.0,0.0,-2.2366,-2.3432,-2.4551,-2.5167,-2.5077,-2.4621,-2.4167,-2.3836,-2.3545,-2.3327,-2.313,-2.2715,-2.2269,-2.1812,-2.0564,-1.9131,0.0,0.0,0.0,0.0,0.0,0.0,0.0,0.0,0.0,0.0,0.0,0.0,0.0,0.0,0.0,0.0,0.0,0.0,0.0,0.0,0.0,0.0,0.0,0.0,0.0,0.0,0.0,0.0,-2.1628,-2.3743,-2.4192,-2.524,-2.5555,0.0,0.0,0.0,0.0,0.0,0.0,-3.1092,-3.1901,-3.3287,-3.543,-3.594,-3.6724,-3.7861,-3.8187,-3.8841,-3.9808,-3.9364,-3.9677,-4.0631,-4.0226,-4.0043,-4.0043,-4.0043,-3.9703,-3.8985,-3.6841,-3.5365,-3.4371,-3.3136,-3.2586,-3.2395,-3.1742,-3.1156,-3.0748,-3.0916,-3.0399,-2.9398,-2.7861,0.0,-2.5798,-2.3804,0.0,0.0,0.0,0.0,-2.5592,-2.6651,-2.7345,-2.7841,-2.8048,-2.8452,-2.8763,-2.8638,-2.8079,-2.6978,0.0,-2.395,-2.3018,-2.0845,0.0,0.0,0.0,0.0,-2.3784,-2.452,-2.5104,-2.5441,-2.5349,-2.4584,-2.4006,-2.3799,-2.3389,-2.3091,-2.3091,-2.2799,-2.2676,-2.2676,-2.1631,-2.0449,-1.916,0.0,0.0,0.0,0.0,0.0,0.0,0.0,0.0,0.0,0.0,0.0,0.0,0.0,0.0,0.0,0.0,0.0,0.0,0.0,0.0,0.0,0.0,0.0,0.0,0.0,0.0,0.0,0.0,0.0,-2.634,-2.7543,0.0,0.0,0.0,0.0,-2.9748,-3.0923,-3.2332,-3.4084,-3.5247,-3.6658,-3.8436,-3.8514,-3.9089,-4.0239,-3.9756,-3.9808,-4.037,-4.0344,-4.0657,-4.1272,-4.1246,-4.1219,-4.1219,-4.1219,-4.088,-4.02,-3.8475,-3.7403,-3.6776,-3.6136,-3.5595,-3.5092,-3.3967,-3.3586,-3.3244,-3.0815,-3.0003,-2.9987,-2.9373,-2.8302,-2.7201,-2.7061,-2.6438,0.0,0.0,-2.7065,-2.7769,-2.7841,-2.8524,-2.9094,-2.868,-2.8928,-2.9145,-2.8711,-2.8576,-2.8245,0.0,-2.6009,-2.49,-2.4321,0.0,-2.3836,-2.4166,-2.4342,-2.4954,-2.6314,-2.6274,-2.6036,-2.5792,-2.5169,-2.4503,-2.3873,-2.3389,-2.3091,-2.3091,-2.3081,-2.3062,-2.3062,-2.2656,-2.1797,-2.0537,-1.8769,0.0,0.0,0.0,0.0,0.0,0.0,0.0,0.0,0.0,0.0,0.0,0.0,0.0,0.0,0.0,0.0,0.0,0.0,0.0,0.0,0.0,0.0,0.0,0.0,0.0,0.0,0.0,0.0,-2.9284,-3.0451,0.0,-3.0869,-3.1378,-3.2215,-3.3365,-3.4162,-3.5338,-3.7077,-3.756,-3.8397,-3.9756,-3.9808,-4.0187,-4.0984,-4.0801,-4.0801,-4.0997,-4.0997,-4.1102,-4.1311,-4.1311,-4.1311,-4.1311,-4.1311,-4.1193,-4.0945,-4.0344,-3.9743,-3.9094,-3.8178,-3.7955,-3.7964,-3.6051,-3.539,-3.5075,-3.2652,-3.1834,-3.172,-3.059,-2.9456,-2.8576,-2.8576,-2.8142,-2.7738,-2.8204,-2.8566,-2.8887,-2.9177,-2.9497,-2.9704,-2.9539,-2.9632,-2.9704,-2.9539,-2.927,-2.8959,-2.8638,-2.7479,-2.6299,-2.5533,-2.5264,-2.5026,-2.4559,-2.5285,-2.5974,-2.6285,-2.6378,-2.6313,-2.6006,-2.5125,-2.4447,-2.4209,-2.35,-2.3091,-2.3091,-2.2838,-2.2691,-2.2691,-2.2334,-2.1621,-2.0625,-1.9424,-1.791,0.0,0.0,0.0,0.0,0.0,0.0,0.0,0.0,0.0,0.0,0.0,0.0,0.0,0.0,0.0,0.0,0.0,0.0,0.0,0.0,0.0,0.0,0.0,0.0,0.0,0.0,-2.9536,-3.1091,-3.2633,-3.3574,-3.3574,-3.428,-3.5221,-3.6358,-3.6776,-3.7652,-3.9207,-3.9285,-3.973,-4.0684,-4.0723,-4.0919,-4.1311,-4.1311,-4.1311,-4.1311,-4.1311,-4.1311,-4.1311,-4.1311,-4.1311,-4.1311,-4.1311,-4.1311,-4.1311,-4.1311,-4.1076,-4.0634,-3.9801,-3.9706,-3.9751,-3.7743,-3.6673,-3.591,-3.3473,-3.2523,-3.2233,-3.1268,-3.0501,-3.0005,-3.0005,-2.9787,-2.9611,-2.9922,-3.0005,-3.0036,-3.0191,-3.0232,-3.0191,-3.0036,-2.9994,-2.9994,-2.9994,-2.9756,-2.9539,-2.9539,-2.8556,-2.7521,-2.691,-2.6672,-2.6372,-2.5726,-2.6238,-2.6629,-2.6451,-2.6411,-2.6294,-2.61,-2.52,-2.458,-2.4424,-2.3769,-2.3247,-2.311,-2.2838,-2.2682,-2.2682,-2.2187,-2.1611,-2.1065,-1.9873,-1.8584,-1.7126,0.0,0.0,0.0,0.0,0.0,0.0,0.0,0.0,0.0,0.0,0.0,0.0,0.0,0.0,0.0,0.0,0.0,0.0,0.0,0.0,0.0,0.0,0.0,-2.6987,-2.8813,-3.0636,-3.1797,-3.3992,-3.5391,-3.5404,-3.6423,-3.7547,-3.8684,-3.8762,-3.9259,-4.0383,-4.0448,-4.071,-4.1298,-4.1311,-4.1311,-4.1311,-4.1337,-4.135,-4.135,-4.135,-4.135,-4.135,-4.1324,-4.1311,-4.1311,-4.1311,-4.1311,-4.1311,-4.1311,-4.1311,-4.1261,-4.0997,-4.0694,-4.0287,-3.8755,-3.7305,-3.5681,-3.2961,-3.1785,-3.1422,-3.1422,-3.1412,-3.1391,-3.1391,-3.1391,-3.1381,-3.1381,-3.1381,-3.1278,-3.0822,-3.0708,-3.0594,-3.0129,-3.0015,-3.0015,-2.9994,-2.9994,-2.9994,-2.9994,-2.927,-2.8649,-2.8638,-2.8245,-2.7945,-2.7945,-2.7341,0.0,-2.6921,-2.6458,-2.61,-2.61,-2.5513,-2.4893,-2.4473,-2.4043,-2.3613,-2.314,-2.3091,-2.3081,-2.3081,-2.2324,-2.1885,-2.1885,-2.0195,-1.8916,-1.8066,0.0,0.0,0.0,0.0,0.0,0.0,0.0,0.0,0.0,0.0,0.0,0.0,0.0,0.0,0.0,0.0,0.0,0.0,0.0,0.0,0.0,-2.776,-2.9366,-2.9337,-3.1245,-3.3208,-3.475,-3.6266,-3.7338,-3.773,-3.8449,-3.9194,-3.9899,-3.9952,-4.0278,-4.1023,-4.1076,-4.1141,-4.1311,-4.1311,-4.1311,-4.1311,-4.1716,-4.1925,-4.1925,-4.1925,-4.1925,-4.1925,-4.1507,-4.1311,-4.1311,-4.1311,-4.1311,-4.1311,-4.1311,-4.1311,-4.1261,-4.0808,-4.0058,-3.908,-3.7412,-3.5432,-3.3572,-3.2798,-3.2457,-3.2364,-3.2364,-3.2126,-3.1857,-3.1857,-3.1629,-3.1381,-3.1381,-3.1381,-3.135,-3.1215,-3.1184,-3.1071,-3.0605,-3.0501,-3.0398,-3.0067,-2.9994,-2.9994,-2.9994,-2.9787,-2.9508,-2.9177,-2.8731,-2.8421,-2.8421,-2.794,0.0,-2.7408,-2.6784,-2.6294,-2.61,-2.5513,-2.5067,-2.4893,-2.4209,-2.374,-2.3623,-2.3027,-2.2643,-2.2643,-2.2168,-2.1885,-2.1885,-2.083,-1.9941,0.0,0.0,0.0,0.0,0.0,0.0,0.0,0.0,0.0,0.0,0.0,0.0,0.0,0.0,0.0,0.0,0.0,0.0,0.0,0.0,0.0,0.0,-3.0448,-3.2084,-3.2633,-3.3837,-3.5195,-3.6684,-3.7678,-3.8553,-3.9351,-3.9743,-4.0187,-4.0749,-4.0788,-4.0945,-4.1298,-4.1546,-4.1677,-4.1677,-4.1899,-4.203,-4.203,-4.2356,-4.2526,-4.2526,-4.2526,-4.2526,-4.2513,-4.2186,-4.203,0.0,-4.203,-4.1899,-4.1677,-4.1576,-4.1382,0.0,0.0,0.0,0.0,0.0,-3.5057,-3.3388,-3.2898,-3.2669,-3.2669,-3.2669,-3.2494,-3.2277,-3.2277,-3.2147,-3.194,-3.194,-3.194,-3.1899,-3.1702,-3.165,-3.1536,-3.1091,-3.0822,-3.0615,-3.0336,-3.0129,-2.9994,-2.9994,0.0,0.0,-2.9642,-2.9208,-2.8897,-2.8897,-2.8404,-2.8006,-2.7858,-2.7138,-2.6573,-2.6417,-2.575,-2.5273,-2.5135,-2.4656,0.0,0.0,0.0,-2.2812,-2.2275,-2.2187,0.0,0.0,0.0,0.0,0.0,0.0,0.0,0.0,-2.0723,-2.0957,0.0,0.0,0.0,0.0,0.0,0.0,0.0,0.0,0.0,0.0,0.0,0.0,0.0,0.0,0.0,0.0,-3.3195,-3.5064,-3.6162,-3.641,-3.6867,-3.7874,-3.8527,-3.9298,-4.0318,-4.0474,-4.0736,-4.1272,-4.1311,-4.135,-4.1415,0.0,0.0,0.0,0.0,-4.3023,-4.3023,-4.3088,-4.3114,-4.3114,-4.3114,-4.3114,-4.3114,-4.3049,-4.3023,-4.3023,-4.3023,-4.2735,-4.2265,-4.2021,-4.1568,-4.0873,-4.03,-4.0019,-3.9698,-3.6834,-3.5168,-3.4155,-3.3058,0.0,0.0,-3.2669,-3.2669,-3.2669,-3.2669,-3.2669,-3.2669,-3.2669,-3.2669,-3.2576,-3.2163,-3.206,-3.2012,-3.1557,-3.1133,-3.0822,-3.077,-3.0398,-3.0067,-3.0067,-3.0036,-2.9994,-2.9994,-2.9653,-2.9384,-2.9384,-2.8777,-2.8318,-2.8268,-2.7492,-2.6864,-2.6814,0.0,0.0,-2.5176,-2.5145,-2.4793,-2.3984,-2.3887,-2.335,-2.2217,-2.2529,-2.2549,-2.2178,-2.2857,-2.3432,-2.3867,-2.4287,-2.4512,-2.4512,-2.2168,-2.2141,0.0,0.0,0.0,0.0,0.0,0.0,0.0,0.0,0.0,0.0,0.0,0.0,0.0,0.0,0.0,-3.283,-3.5012,-3.6737,-3.7456,-3.8344,-3.8841,-3.8593,-3.9468,-4.0174,-4.0396,-4.0853,-4.1193,-4.1311,-4.1311,-4.152,-4.1977,-4.2159,0.0,-4.284,-4.2971,-4.3023,-4.3023,-4.348,-4.3716,-4.3716,0.0,0.0,-4.3689,-4.3232,-4.3023,-4.3023,-4.3023,-4.2958,-4.2853,-4.2801,-4.2203,-4.1067,-3.84,-3.721,-3.6727,-3.4302,-3.3218,-3.3001,-3.2784,-3.2669,-3.2669,-3.2669,-3.2669,-3.2669,-3.2669,-3.2669,0.0,-3.2669,-3.2669,-3.2659,-3.2566,-3.2545,-3.2421,-3.1967,-3.1791,-3.1681,-3.1319,-3.0884,-3.0553,-3.0553,-3.0253,-2.9994,-2.9994,-2.9922,-2.986,-2.986,-2.9415,-2.9013,-2.8778,-2.8076,-2.7392,-2.6775,-2.6438,-2.6084,-2.5644,-2.5273,-2.5047,-2.4881,-2.4492,-2.4189,-2.3935,-2.4004,-2.4014,-2.3926,-2.4092,-2.4209,-2.4297,-2.4727,-2.5127,-2.5411,-2.46,-2.447,0.0,0.0,0.0,0.0,0.0,0.0,0.0,0.0,0.0,0.0,0.0,-2.8481,-2.9849,0.0,-3.3446,-3.5417,-3.6711,-3.7756,-3.8632,-3.9481,-3.9899,-3.9599,-4.0069,-4.054,-4.084,-4.1141,-4.1311,-4.1311,-4.1585,-4.186,-4.2198,-4.2761,-4.3154,-4.3441,-4.3729,-4.3872,-4.3872,-4.416,-4.4304,-4.4304,-4.4304,-4.4304,-4.4291,-4.4003,-4.3872,-4.3872,-4.3872,-4.3716,-4.3428,-4.2826,-4.1954,-4.0738,-3.8526,-3.7068,-3.6088,-3.4891,-3.3706,-3.2669,-3.2669,-3.2669,-3.2669,-3.2669,-3.2669,-3.2669,-3.2669,-3.2669,-3.2669,-3.2669,-3.2669,-3.2669,-3.2669,-3.2669,-3.2618,-3.239,-3.2153,-3.1926,-3.1754,-3.135,-3.1029,-3.1029,-3.0657,-3.0336,-3.0336,-3.0149,-2.9994,-2.9994,-2.9798,-2.9549,-2.9289,-2.8634,-2.7953,-2.747,-2.6782,-2.6299,-2.6084,-2.5449,-2.5116,-2.5116,-2.4658,-2.4414,-2.4414,-2.4414,-2.4414,-2.4414,-2.4853,-2.5031,-2.5031,-2.5723,-2.6162,-2.6327,-2.6377,-2.6417,0.0,0.0,0.0,0.0,0.0,0.0,0.0,0.0,-2.7053,-2.785,-2.968,-3.1523,-3.2947,-3.4228,-3.5704,-3.7599,-3.8174,-3.871,-3.9638,-4.0239,-4.0592,-4.0592,-4.0592,-4.0788,-4.1272,-4.1311,-4.1363,-4.1481,-4.1912,-4.2316,-4.2539,-4.3428,-4.3925,-4.4029,-4.4487,-4.4668,-4.4668,-4.4839,-4.4839,-4.4668,-4.4839,-4.4785,-4.4668,-4.4668,-4.4668,-4.4668,-4.4668,-4.446,-4.399,-4.2899,-4.1868,-4.0867,-3.9519,-3.7932,-3.6323,-3.6013,-3.4514,-3.2669,-3.2669,-3.2669,-3.2669,-3.2669,-3.2669,-3.2669,-3.2669,-3.2669,-3.2669,-3.2669,-3.2669,-3.2669,-3.2669,-3.2669,-3.2669,-3.2669,-3.239,-3.2122,-3.2122,-3.1816,-3.1505,-3.1505,-3.1133,-3.0791,-3.0698,-3.0377,-3.0098,-3.0005,-2.9994,-2.9879,-2.9554,-2.8987,-2.8475,-2.8073,-2.7194,-2.6572,-2.6396,-2.5781,-2.5293,-2.5205,-2.4873,-2.4631,-2.4631,-2.4756,-2.4795,-2.4795,-2.5528,-2.5937,-2.5937,-2.6758,-2.7139,-2.7148,-2.7588,-2.7744,-2.2474,-2.3554,-2.4629,-2.5493,-2.5669,-2.6556,0.0,0.0,-3.0869,-3.2489,-3.3835,-3.4776,-3.4972,-3.6384,-3.7599,-3.7861,-3.9155,-4.0174,-4.0305,-4.084,-4.1219,-4.1219,-4.1219,-4.1246,-4.1311,-4.1311,-4.152,-4.2081,-4.2185,-4.2656,-4.3677,-4.386,-4.4108,-4.4617,-4.4696,-4.4668,-4.4668,-4.5203,-4.5203,-4.4681,-4.5216,-4.519,-4.4668,-4.4668,-4.4668,-4.4668,-4.4668,-4.4696,-4.4537,-4.3708,-4.3102,-4.2503,-4.053,-3.8618,-3.675,-3.5224,-3.3818,-3.2669,-3.2669,-3.2669,-3.2669,-3.2669,-3.2669,-3.2669,-3.2669,-3.2669,-3.2669,-3.2669,-3.2669,-3.2669,-3.2669,-3.2669,-3.2669,-3.2669,-3.2638,-3.2597,-3.2597,-3.2235,-3.1915,-3.1915,-3.1609,-3.1174,-3.076,-3.0646,-3.047,-3.0056,-2.9994,-2.9774,-2.9237,-2.9081,-2.87,-2.7862,-2.763,-2.7268,-2.6455,-2.6299,-2.6074,-2.5635,-2.5567,-2.5538,-2.5538,-2.5957,-2.6172,-2.6172,-2.6631,-2.6865,-2.6875,-2.7363,-2.7598,-2.765,-2.8027,-2.8027,-2.6478,-2.7,-2.7299,-2.8589,-2.9624,-3.0699,-3.2032,-3.2934,-3.3705,-3.4437,-3.5495,-3.6292,-3.6292,-3.7429,-3.8488,0.0,-3.9756,-4.054,-4.0893,-4.0853,-4.0788,-4.0788,-4.0788,-4.0932,-4.1285,-4.1311,-4.1546,-4.2172,-4.2474,-4.3023,-4.3886,-4.4526,-4.4839,-4.4668,-4.502,-4.5088,-4.4668,-4.4929,-4.5153,-4.519,-4.5098,-4.5098,-4.519,-4.4837,-4.4668,-4.4668,-4.4668,-4.4626,-4.445,-4.3958,-4.2916,-4.1551,-4.0555,-3.8374,-3.5814,-3.5119,-3.3941,-3.2669,-3.2669,-3.2669,-3.2669,-3.2669,-3.2669,-3.2669,-3.2669,-3.2669,-3.2669,-3.2669,-3.2669,-3.2669,-3.2669,-3.2669,-3.2669,-3.2669,-3.2669,-3.2669,-3.2669,-3.2525,-3.239,-3.239,-3.2075,-3.1702,-3.1505,-3.1257,-3.0936,-3.047,-3.016,-2.9837,-2.9448,-2.9237,-2.876,-2.781,-2.7718,-2.7422,-2.6807,-2.6758,-2.668,-2.6494,-2.6484,-2.6484,-2.6484,-2.666,-2.6758,-2.6758,-2.7168,-2.7393,-2.7393,-2.7822,-2.8027,-2.8047,-2.8467,-2.8564,-2.8632,-2.9268,-2.9742,-3.0944,-3.2529,-3.3744,-3.347,-3.4633,-3.577,-3.577,-3.6436,-3.705,-3.722,-3.7926,-3.8736,-3.9481,-4.0069,-4.0618,-4.1232,-4.0788,-4.0474,-4.0644,-4.0514,-4.0657,-4.1259,-4.1311,-4.1625,-4.2343,-4.2788,-4.3337,-4.4068,-4.5075,-4.5373,-4.4929,-4.5545,-4.565,-4.5218,-4.5362,-4.5584,-4.5859,-4.5428,-4.5362,-4.5555,-4.5009,-4.4668,-4.4668,-4.4668,-4.4572,-4.4367,-4.4107,-4.3055,-4.1465,-4.0511,-3.8399,-3.5764,-3.5089,-3.3942,-3.2669,-3.2669,-3.2669,-3.2669,-3.2669,-3.2669,-3.2669,-3.2669,-3.2669,-3.2669,-3.2669,-3.2669,-3.2669,-3.2669,-3.2669,-3.2669,-3.2669,-3.2669,-3.2669,-3.2669,-3.2669,-3.2669,-3.2669,-3.2401,-3.2132,-3.2008,-3.1774,-3.1402,-3.0946,-3.0481,-3.0034,-2.9627,-2.9237,-2.8757,-2.8029,-2.7894,-2.7666,-2.7236,-2.7197,-2.7148,-2.7021,-2.7012,-2.7012,-2.7012,-2.7129,-2.7197,-2.7197,-2.7617,-2.7894,-2.7894,-2.8144,-2.8291,-2.8301,-2.8721,-2.8984,-2.7533,-2.9249,-3.1487,-3.1743,-3.3104,-3.4515,-3.509,-3.6123,-3.6946,-3.6946,-3.6985,-3.7181,-3.7769,-3.79,-3.8292,-3.9429,-4.0069,-4.0618,-4.1232,-4.0788,-4.0631,-4.1219,-4.0775,-4.0657,0.0,-4.1311,-4.1781,-4.2918,-4.301,-4.352,-4.4643,-4.5284,-4.5568,-4.5542,-4.6159,-4.6447,-4.6421,-4.6983,-4.6983,-4.6447,-4.6434,-4.6146,-4.5555,-4.5009,-4.4668,-4.4668,-4.4668,-4.4668,-4.4681,-4.4422,-4.4094,-4.3517,-4.0765,-3.892,-3.7531,-3.5013,-3.3541,-3.2669,-3.2669,-3.2669,-3.2669,-3.2669,-3.2669,-3.2669,-3.2669,-3.2669,-3.2669,-3.2669,-3.2669,-3.2669,-3.2669,-3.2669,-3.2669,-3.2669,-3.2669,-3.2669,-3.2669,-3.2669,-3.2669,-3.2669,-3.2659,-3.2514,-3.206,-3.1977,-3.1812,-3.1422,-3.0967,-3.0395,-2.972,-2.9099,-2.8674,-2.8664,-2.8441,-2.8105,-2.7738,-2.7699,-2.7461,-2.7041,-2.7012,-2.7012,-2.7012,-2.7422,-2.7699,-2.7699,-2.8057,-2.8271,-2.8271,-2.8281,-2.8291,-2.8301,-2.8721,-2.9141,-3.085,-3.211,-3.3225,-3.3929,-3.5142,-3.6175,-3.6384,-3.6724,-3.6998,-3.6998,-3.6397,-3.5926,-3.6136,-3.6789,-3.756,-3.8344,-3.9573,-4.0618,-4.1232,-4.0788,-4.0488,-4.0697,-4.054,0.0,-4.0697,0.0,0.0,-4.2931,-4.3023,-4.3689,-4.519,-4.5872,-4.6199,-4.6199,-4.6748,-4.6865,-4.6473,-4.6669,-4.6865,-4.7048,-4.7048,-4.6552,-4.5568,-4.5359,-4.5101,-4.4668,-4.4668,-4.4668,-4.4681,-4.4203,-4.2992,-4.1224,-3.9908,-3.7924,-3.5709,-3.4533,-3.3679,-3.312,-3.283,-3.2669,-3.2669,-3.2669,-3.2669,-3.2669,-3.2669,-3.2669,-3.2669,-3.2669,-3.2669,-3.2669,-3.2669,-3.2669,-3.2669,-3.2669,-3.2669,-3.2669,-3.2669,-3.2669,-3.2669,-3.2669,-3.2669,-3.2628,-3.2463,-3.2442,-3.2287,-3.1888,-3.1174,-3.0405,-2.9668,-2.9396,-2.9142,-2.8727,-2.8621,-2.8455,-2.8149,-2.8086,-2.8018,-2.7871,-2.7861,-2.7861,-2.7861,-2.8008,-2.8086,-2.8086,-2.8223,-2.8291,-2.8291,-2.8291,-2.8437,-2.8721,-2.915,-2.958,-3.2905,-3.378,-3.4395,-3.5604,-3.6462,-3.6998,-3.6998,-3.6828,-3.6619,-3.6436,-3.5482,-3.475,-3.4933,-3.5417,-3.6253,-3.7678,-3.8815,-3.9939,-4.1141,-4.0788,-4.0501,-4.071,-4.0736,-4.0814,-4.1023,-4.1585,0.0,-4.2971,-4.3206,-4.4003,-4.5545,-4.6173,-4.6578,-4.6774,-4.7336,-4.7466,-4.7087,-4.7087,-4.7166,-4.7278,-4.7278,-4.6839,-4.5924,-4.5728,-4.5415,-4.5036,-4.4759,-4.4437,-4.4042,-4.3572,-4.2125,-4.0001,-3.9087,-3.7394,-3.5336,-3.4417,-3.3772,-3.3317,-3.2882,-3.2669,-3.2669,-3.2669,-3.2669,-3.2669,-3.2669,-3.2669,-3.2669,-3.2669,-3.2669,-3.2669,-3.2669,-3.2669,-3.2669,-3.2669,-3.2669,-3.2669,-3.2669,-3.2669,-3.2669,-3.2669,-3.2669,-3.2669,-3.2669,-3.2669,-3.2514,-3.205,-3.1536,-3.0892,-3.0093,-2.9761,-2.9448,-2.9036,-2.8834,-2.8621,-2.8461,-2.8344,-2.8291,-2.8291,-2.8291,-2.8291,-2.8291,-2.8291,-2.8291,-2.8291,-2.8291,-2.8291,-2.8291,-2.8437,-2.8662,-2.8926,-2.9521,-2.9941,-3.3634,-3.4398,-3.5184,-3.6677,-3.7024,-3.6998,-3.6972,-3.6475,-3.5848,-3.5273,-3.4254,-3.36,-3.4084,-3.3862,-3.4502,-3.7312,-3.79,-3.8762,-4.0997,-4.0827,-4.0684,0.0,0.0,0.0,-4.2198,-4.2722,0.0,-4.3075,0.0,-4.4395,-4.5597,-4.6186,-4.6748,-4.7362,-4.7898,-4.8185,-4.8185,-4.8185,-4.7911,-4.7317,-4.7317,-4.7074,-4.6499,-4.5924,-4.565,-4.5542,-4.4874,-4.3987,-4.2886,-4.2519,-4.1419,-3.9849,-3.8387,-3.7286,-3.6362,-3.4736,-3.3813,-3.3348,-3.2913,-3.269,-3.2669,-3.2669,-3.2669,-3.2669,-3.2669,-3.2669,-3.2669,-3.2669,-3.2669,-3.2669,-3.2669,-3.2669,-3.2669,-3.2669,-3.2669,-3.2669,-3.2669,-3.2669,-3.2669,-3.2669,-3.2669,-3.2669,-3.2669,-3.2669,-3.2525,-3.2081,-3.1998,-3.1667,-3.0833,-3.0113,-2.9668,-2.9647,-2.9129,-2.8757,-2.8684,-2.8451,-2.8291,-2.8291,-2.8291,-2.8291,-2.8291,-2.8291,-2.8291,-2.8291,-2.831,-2.833,-2.833,-2.875,-2.8965,-2.9004,-2.9814,-3.0205,-3.5544,-3.6247,-3.6642,-3.7642,-3.7447,-3.6881,-3.6436,-3.5547,-3.4554,-3.3561,-3.245,-3.1561,-3.1236,-3.2515,0.0,-3.5704,-3.7769,0.0,-4.1115,-4.118,0.0,-4.1886,0.0,-4.2173,-4.2748,-4.3323,0.0,0.0,-4.3781,-4.4565,-4.6173,-4.6408,-4.6931,-4.7937,-4.8107,-4.8185,-4.8185,-4.8185,-4.8107,-4.7963,-4.7963,-4.7675,-4.71,-4.6525,-4.6029,-4.5542,-4.4011,-4.3177,-4.2774,-4.1293,-3.9966,-3.8662,-3.7779,-3.671,-3.5608,-3.4866,-3.4349,-3.3824,-3.3368,-3.3006,-3.2669,-3.2669,-3.2669,-3.2669,-3.2669,-3.2669,-3.2669,-3.2669,-3.2669,-3.2669,-3.2669,-3.2669,-3.2669,-3.2669,-3.2669,-3.2669,-3.2669,-3.2669,-3.2669,-3.2669,-3.2669,-3.2669,-3.2669,-3.2669,-3.2638,-3.2514,-3.2204,-3.1781,-3.1278,-3.1047,-3.0712,-3.0138,-2.9732,-2.9289,-2.8757,-2.8451,-2.8291,-2.8291,-2.8291,-2.8291,-2.8291,-2.8291,-2.8291,-2.8291,-2.8603,-2.876,-2.876,-2.9189,-2.956,-2.9873,-3.0098,-3.0381,-3.6458,-3.7125,-3.7514,-3.7978,-3.752,-3.6658,-3.5312,-3.4293,-3.3104,-3.1196,-3.0503,-2.998,-2.9108,-3.0882,-3.2908,0.0,0.0,0.0,-4.0684,-4.1363,-4.1808,0.0,-4.2656,0.0,-4.3363,-4.3912,-4.4251,0.0,-4.45,-4.5179,-4.6408,-4.6721,-4.727,-4.8159,-4.8185,-4.8185,-4.8185,-4.8185,-4.8185,-4.8185,-4.8185,-4.8015,-4.7675,-4.6852,-4.6303,-4.5895,0.0,-4.2606,-4.1987,-4.0187,-3.8673,-3.7391,-3.6907,-3.6135,-3.5366,-3.4921,-3.465,-3.4339,-3.3606,-3.3213,-3.2985,-3.2799,-3.2669,-3.2669,-3.2669,-3.2669,-3.2669,-3.2669,-3.2669,-3.2669,-3.2669,-3.2669,-3.2669,-3.2669,-3.2669,-3.2669,-3.2669,-3.2669,-3.2669,-3.2669,-3.2669,-3.2669,-3.2669,-3.2669,-3.2669,-3.2669,-3.2452,-3.225,-3.2002,-3.1629,-3.1213,-3.0771,-3.037,-2.9942,-2.9539,-2.913,-2.8857,-2.8857,-2.8857,-2.8857,-2.8857,-2.8857,-2.8857,-2.8857,-2.9082,-2.9209,-2.9209,-2.9639,-2.9971,-3.0205,-3.04,-3.0644,-3.6847,-3.7495,-3.7887,-3.7854,-3.7318,-3.6201,-3.3979,-3.2894,-3.1575,-2.883,-2.8656,-2.8621,-2.7602,-2.9314,-3.147,-3.33,0.0,-3.7808,-4.0095,-4.1363,-4.2159,-4.2316,-4.3271,-4.3952,-4.3977,-4.4434,-4.4668,-4.4668,-4.5284,-4.5872,-4.6447,-4.7022,-4.7597,-4.8159,-4.8185,-4.8185,-4.8185,-4.8185,-4.8185,-4.8185,-4.8185,-4.8146,-4.8028,-4.6957,-4.6447,-4.6247,0.0,0.0,-4.0973,-3.9322,-3.7741,-3.6361,-3.5983,-3.5675,-3.5376,-3.4993,-3.4868,-3.4691,-3.3831,-3.343,-3.3306,-3.2871,-3.2669,-3.2669,-3.2669,-3.2669,-3.2669,-3.2669,-3.2669,-3.2669,-3.2669,-3.2669,-3.2669,-3.2669,-3.2669,-3.2669,-3.2669,-3.2669,-3.2669,-3.2669,-3.2669,-3.2669,-3.2669,-3.2669,-3.2669,-3.2669,-3.2669,-3.2669,-3.2669,-3.2043,-3.1536,-3.1474,-3.0958,-3.054,-3.048,-2.997,-2.9626,-2.9626,-2.9626,-2.9626,-2.9626,-2.9626,-2.9626,-2.9626,-2.9629,-2.9658,-2.9658,-3.0078,-3.0293,-3.0303,-3.0703,-3.0889,-3.7603,-3.7933,-3.7828,-3.7582,-3.6516,-3.5103,-3.326,-3.1666,0.0,-2.8038,-2.7379,-2.7099,-2.6889,-2.8712,-3.0975,-3.3234,-3.5508,-3.7808,-4.0095,-4.1023,-4.1821,0.0,-4.3467,-4.4055,-4.4539,-4.467,0.0,0.0,0.0,-4.5872,-4.6447,-4.7022,-4.7597,-4.8159,-4.8185,-4.8185,-4.8185,-4.8185,-4.8185,-4.8185,-4.8185,-4.7937,-4.7453,-4.6787,-4.6225,-4.563,-4.3759,0.0,-4.0973,-3.9134,-3.7572,-3.6361,-3.5737,-3.5418,-3.5407,-3.5335,-3.5076,-3.4743,-3.4194,-3.3699,-3.3306,-3.2871,-3.2669,-3.2669,-3.2669,-3.2669,-3.2669,-3.2669,-3.2669,-3.2669,-3.2669,-3.2669,-3.2669,-3.2669,-3.2669,-3.2669,-3.2669,-3.2669,-3.2669,-3.2669,-3.2669,-3.2669,-3.2669,-3.2669,-3.2669,-3.2669,-3.2669,-3.2669,-3.2669,-3.2592,-3.2344,-3.1961,-3.135,-3.0862,-3.05,-2.997,-2.9626,-2.9626,-2.9626,-2.9626,-2.9626,-2.9626,-2.9626,-2.9626,-2.9912,-3.0088,-3.0088,-3.0547,-3.0771,-3.0771,-3.085,-3.0889,-3.7683,-3.7979,-3.7815,-3.7303,-3.6236,-3.4607,-3.1967,0.0,0.0,-2.6263,-2.6007,-2.6138,-2.5882,-2.7667,0.0,-3.1509,-3.3731,-3.6136,-3.8736,-4.0109,-4.1389,-4.2853,-4.3794,-4.4434,0.0,-4.4668,-4.4668,0.0,0.0,-4.5872,-4.6447,-4.731,-4.7898,-4.8172,-4.8185,-4.8185,-4.8185,-4.8185,-4.8185,-4.8185,-4.7885,-4.7597,-4.7252,-4.6434,-4.5829,-4.5239,-4.2787,0.0,-4.0384,-3.8029,-3.6685,-3.6116,-3.5603,-3.5418,-3.5418,-3.5418,-3.5293,-3.5004,-3.431,-3.3927,-3.3627,-3.2944,-3.2669,-3.2669,-3.2669,-3.2669,-3.2669,-3.2669,-3.2669,-3.2669,-3.2669,-3.2669,-3.2669,-3.2669,-3.2669,-3.2669,-3.2669,-3.2669,-3.2669,-3.2669,-3.2669,-3.2669,-3.2669,-3.2669,-3.2669,-3.2669,-3.2669,-3.2669,-3.2669,-3.2669,-3.2587,-3.237,-3.1988,-3.1556,-3.123,-3.0757,-3.0425,-3.0311,-3.0264,-3.0264,-3.0264,-3.0264,-3.0264,-3.0264,-3.0459,-3.0557,-3.0557,-3.0781,-3.0889,-3.0889,-3.0889,-3.0889,-3.739,-3.7808,-3.773,-3.6998,-3.5953,-3.4228,-3.0857,-2.9497,0.0,-2.4936,-2.4892,-2.5362,-2.5184,-2.6758,-2.8516,0.0,-3.2045,-3.445,-3.7482,-3.9351,-4.1063,0.0,-4.4029,0.0,-4.4668,-4.4668,0.0,0.0,0.0,0.0,-4.6447,-4.7453,-4.8002,-4.8002,-4.8002,-4.8002,-4.8002,-4.8002,-4.7937,-4.7748,-4.7435,-4.7148,-4.6817,-4.5986,-4.5379,-4.4891,-4.2455,0.0,0.0,-3.7621,-3.6391,-3.586,-3.5541,-3.5418,-3.5418,-3.5418,-3.5418,-3.5293,-3.4383,-3.4132,-3.3927,-3.3027,-3.2669,-3.2669,-3.2669,-3.2669,-3.2669,-3.2669,-3.2669,-3.2669,-3.2669,-3.2669,-3.2669,-3.2669,-3.2669,-3.2669,-3.2669,-3.2669,-3.2669,-3.2669,-3.2669,-3.2669,-3.2669,-3.2669,-3.2669,-3.2669,-3.2669,-3.2669,-3.2669,-3.2669,-3.2669,-3.2669,-3.243,-3.2133,-3.1845,-3.1498,-3.116,-3.0889,-3.0889,-3.0889,-3.0889,-3.0889,-3.0889,-3.0889,-3.0889,-3.0889,-3.0889,-3.0889,-3.0889,-3.0889,-3.0889,-3.0889,-3.6776,-3.7482,-3.7625,-3.6475,-3.5325,-3.3718,-3.0766,0.0,-2.7157,-2.5306,-2.4557,-2.4553,-2.5532,-2.6347,-2.7753,-3.0464,-3.1954,-3.3979,-3.7416,-3.9351,-4.1063,-4.2814,0.0,0.0,-4.4668,0.0,0.0,0.0,0.0,0.0,-4.6447,-4.7074,-4.7357,-4.7357,-4.7357,-4.7357,-4.7357,-4.7357,-4.6968,-4.622,-4.6929,-4.6616,-4.5421,-4.5565,-4.5171,-4.439,-4.4107,0.0,0.0,-3.9557,-3.7981,-3.586,-3.5541,-3.5418,-3.5418,-3.5418,-3.5418,-3.5293,-3.4383,-3.4132,-3.3927,-3.3027,-3.2669,-3.2669,-3.2669,-3.2669,-3.2669,-3.2669,-3.2669,-3.2669,-3.2669,-3.2669,-3.2669,-3.2669,-3.2669,-3.2669,-3.2669,-3.2669,-3.2669,-3.2669,-3.2669,-3.2669,-3.2669,-3.2669,-3.2669,-3.2669,-3.2669,-3.2669,-3.2669,-3.2669,-3.2669,-3.2669,-3.243,-3.2133,-3.1845,-3.1498,-3.116,-3.0889,-3.0889,-3.0889,-3.0889,-3.0889,-3.0889,-3.0889,-3.0889,-3.0889,-3.0889,-3.0889,-3.0889,-3.0889,-3.0889,-3.0889,-3.6057,-3.6907,-3.7155,-3.6305,-3.5247,-3.3561,-3.0346,-2.8508,-2.6915,-2.4883,-2.4557,-2.487,-2.5649,-2.6282,-2.7308,-2.9153,-3.0098,-3.1601,-3.4384,-3.6253,-3.8357,-4.1128,-4.2474,0.0,0.0,0.0,0.0,0.0,0.0,0.0,-4.5415,-4.6316,-4.6826,-4.6826,-4.6629,-4.6516,-4.6516,-4.6357,-4.607,-4.5737,-4.5709,-4.5412,-4.4905,-4.4651,-4.4257,-4.3683,-4.2169,0.0,0.0,-3.779,-3.6492,-3.5613,-3.5418,-3.5418,-3.5418,-3.5418,-3.5418,-3.5293,-3.4383,-3.4132,-3.3927,-3.3027,-3.2669,-3.2669,-3.2669,-3.2669,-3.2669,-3.2669,-3.2669,-3.2669,-3.2669,-3.2669,-3.2669,-3.2669,-3.2669,-3.2669,-3.2669,-3.2669,-3.2669,-3.2669,-3.2669,-3.2669,-3.2669,-3.2669,-3.2669,-3.2669,-3.2669,-3.2669,-3.2669,-3.2669,-3.2669,-3.2669,-3.243,-3.2133,-3.1845,-3.1498,-3.116,-3.0889,-3.0889,-3.0889,-3.0889,-3.0889,-3.0889,-3.0889,-3.0889,-3.0889,-3.0889,-3.0889,-3.0889,-3.0889,-3.0889,-3.0889,-3.509,-3.6044,-3.6358,-3.5757,-3.4868,-3.33,-3.0019,-2.8373,-2.6942,-2.4997,-2.4805,-2.5227,-2.5942,-2.6399,-2.7085,-2.8224,-2.9026,-3.0333,-3.2633,-3.4593,-3.6894,0.0,0.0,0.0,0.0,0.0,0.0,0.0,0.0,0.0,0.0,-4.5409,-4.593,-4.61,-4.5806,-4.5636,-4.5636,-4.5423,-4.5219,-4.494,-4.4809,-4.4548,-4.4313,-4.4011,-4.3708,-4.327,0.0,0.0,0.0,-3.6846,-3.5716,-3.5418,-3.5418,-3.5418,-3.5418,-3.5418,-3.5418,-3.5293,-3.4383,-3.4132,-3.3927,-3.3027,-3.2669,-3.2669,-3.2669,-3.2669,-3.2669,-3.2669,-3.2669,-3.2669,-3.2669,-3.2669,-3.2669,-3.2669,-3.2669,-3.2669,-3.2669,-3.2669,-3.2669,-3.2669,-3.2669,-3.2669,-3.2669,-3.2669,-3.2669,-3.2669,-3.2669,-3.2669,-3.2669,-3.2669,-3.2669,-3.2669,-3.2373,-3.2076,-3.1845,-3.1556,-3.1276,-3.0947,-3.0889,-3.0889,-3.0889,-3.0889,-3.0889,-3.0889,-3.0889,-3.0889,-3.0889,-3.0889,-3.0889,-3.0889,-3.0889,-3.0889,-3.3796,-3.4855,-3.5168,-3.4567,-3.4005,-3.2842,-2.9941,-2.8373,-2.7163,-2.6015,-2.5367,-2.5345,-2.6484,-2.6706,-2.7085,-2.8224,-2.9366,-3.0897,-3.326,-3.5547,0.0,0.0,0.0,0.0,0.0,0.0,0.0,0.0,0.0,0.0,0.0,-4.4326,-4.4584,-4.5197,-4.4875,-4.4694,-4.4694,-4.4694,-4.43,-4.3419,-4.4313,-4.4219,-4.3406,-4.3764,-4.3708,0.0,0.0,0.0,0.0,-3.7779,-3.6542,-3.5418,-3.5418,-3.5418,-3.5418,-3.5418,-3.5418,-3.5293,-3.4383,-3.4132,-3.3927,-3.3027,-3.2669,-3.2669,-3.2669,-3.2669,-3.2669,-3.2669,-3.2669,-3.2669,-3.2669,-3.2669,-3.2669,-3.2669,-3.2669,-3.2669,-3.2669,-3.2669,-3.2669,-3.2669,-3.2669,-3.2669,-3.2669,-3.2669,-3.2669,-3.2669,-3.2669,-3.2669,-3.2669,-3.2669,-3.2669,-3.2669,-3.2143,-3.1787,-3.1787,-3.1787,-3.1566,-3.0947,-3.0889,-3.0889,-3.0889,-3.0889,-3.0889,-3.0889,-3.0889,-3.0889,-3.0889,-3.0889,-3.0889,-3.0889,-3.0889,-3.0889,-3.0594,-3.1601,-3.2215,-3.1627,-3.1314,-3.0636,-2.8569,-2.7764,-2.7177,-2.6028,-2.5981,-2.6274,-2.6641,-2.6987,-2.7771,-2.9291,-3.0505,-3.1797,0.0,0.0,0.0,0.0,0.0,0.0,0.0,0.0,0.0,0.0,0.0,0.0,0.0,-4.3806,-4.3938,-4.4571,-4.4062,-4.3827,-4.3827,-4.3617,-4.3429,-4.3129,-4.3429,-4.3361,-4.3129,-4.3265,0.0,0.0,0.0,0.0,0.0,-3.6907,-3.5767,-3.5418,-3.5418,-3.5418,-3.5418,-3.5418,-3.5418,-3.5293,-3.4383,-3.4132,-3.3927,-3.3027,-3.2669,-3.2669,-3.2669,-3.2669,-3.2669,-3.2669,-3.2669,-3.2669,-3.2669,-3.2669,-3.2669,-3.2669,-3.2669,-3.2669,-3.2669,-3.2669,-3.2669,-3.2669,-3.2669,-3.2669,-3.2669,-3.2669,-3.2669,-3.2669,-3.2669,-3.2669,-3.2669,-3.2669,-3.2669,-3.2669,-3.2373,-3.2076,-3.1845,-3.1392,-3.1112,-3.0889,-3.0889,-3.0889,-3.0889,-3.0889,-3.0889,-3.0889,-3.0889,-3.0889,-3.0889,-3.0889,-3.0889,-3.0889,-3.0889,-3.0889,-2.8643,-2.9493,-2.9915,-2.9562,-2.947,-2.9078,-2.7549,-2.721,-2.7,-2.6295,-2.6425,-2.6771,-2.6948,-2.7255,-2.7855,-2.8939,-3.0087,-3.1314,0.0,0.0,0.0,0.0,0.0,0.0,0.0,0.0,0.0,0.0,0.0,0.0,0.0,-4.3517,-4.3572,-4.3971,-4.3517,-4.324,-4.324,-4.3085,-4.2974,-4.2974,-4.2974,-4.2974,-4.2974,-4.2974,0.0,0.0,0.0,0.0,0.0,-3.6247,-3.5418,-3.5418,-3.5418,-3.5418,-3.5418,-3.5418,-3.5418,-3.5293,-3.4383,-3.4132,-3.3927,-3.3027,-3.2669,-3.2669,-3.2669,-3.2669,-3.2669,-3.2669,-3.2669,-3.2669,-3.2669,-3.2669,-3.2669,-3.2669,-3.2669,-3.2669,-3.2669,-3.2669,-3.2669,-3.2669,-3.2669,-3.2669,-3.2669,-3.2669,-3.2669,-3.2669,-3.2669,-3.2669,-3.2669,-3.2669,-3.2669,-3.2555,-3.2315,-3.196,-3.1614,-3.1276,-3.1005,-3.0898,-3.0889,-3.0889,-3.0889,-3.0889,-3.0889,-3.0889,-3.0889,-3.0889,-3.0889,-3.0889,-3.0889,-3.0889,-3.0889,-3.0889,0.0,-2.8145,-2.8158,-2.8085,-2.8145,-2.7897,-2.6824,-2.6614,0.0,-2.6693,-2.6706,-2.6902,-2.749,-2.7581,-2.762,-2.7829,-2.8882,-3.0155,0.0,-3.3827,0.0,0.0,0.0,0.0,0.0,0.0,0.0,0.0,0.0,0.0,0.0,-4.3394,-4.3394,-4.3394,-4.3129,-4.2974,-4.2974,-4.2974,-4.2974,-4.2974,-4.2974,-4.2974,-4.2974,-4.2918,0.0,0.0,0.0,0.0,0.0,-3.5951,-3.5418,-3.5418,-3.5418,-3.5418,-3.5418,-3.5418,-3.5407,-3.5252,-3.4372,-3.4111,-3.3875,-3.3006,-3.2669,-3.2669,-3.2669,-3.2669,-3.2669,-3.2669,-3.2669,-3.2669,-3.2669,-3.2669,-3.2669,-3.2669,-3.2669,-3.2669,-3.2669,-3.2669,-3.2669,-3.2669,-3.2669,-3.2669,-3.2669,-3.2669,-3.2669,-3.2669,-3.2669,-3.2669,-3.2669,-3.2669,-3.2555,-3.2315,-3.196,-3.1614,-3.1325,-3.1267,-3.116,-3.0889,-3.0889,-3.0889,-3.0889,-3.0889,-3.0889,-3.0889,-3.0889,-3.0889,-3.0889,-3.0889,-3.0889,-3.0889,-3.0889,-3.0889,-2.4975,0.0,-2.5698,-2.5236,-2.5445,-2.5725,0.0,-2.5707,-2.6138,-2.6614,-2.6706,-2.7151,-2.8595,-2.849,-2.8895,-3.1117,-3.245,-3.3571,-3.4632,0.0,0.0,0.0,0.0,0.0,0.0,0.0,0.0,0.0,0.0,0.0,0.0,-4.3085,-4.3085,-4.3085,-4.303,-4.2974,-4.2974,-4.2974,-4.2974,-4.2974,-4.2974,-4.2974,-4.2974,-4.198,0.0,0.0,0.0,0.0,-3.7177,-3.5951,-3.5418,-3.5418,-3.5418,-3.5418,-3.5418,-3.5418,-3.5211,-3.4838,-3.4329,-3.3834,-3.3451,-3.2903,-3.2669,-3.2669,-3.2669,-3.2669,-3.2669,-3.2669,-3.2669,-3.2669,-3.2669,-3.2669,-3.2669,-3.2669,-3.2669,-3.2669,-3.2669,-3.2669,-3.2669,-3.2669,-3.2669,-3.2669,-3.2669,-3.2669,-3.2669,-3.2669,-3.2669,-3.2669,-3.2669,-3.2487,-3.2373,-3.2315,-3.1787,-3.1383,-3.1334,-3.1112,-3.0947,-3.0889,-3.0889,-3.0889,-3.0889,-3.0889,-3.0889,-3.0889,-3.0889,-3.0889,-3.0889,-3.0889,-3.0889,-3.0889,-3.0889,-3.0889,-2.4083,-2.4726,-2.5288,-2.4975,-2.5132,-2.5367,-2.5367,-2.5393,-2.5524,-2.5855,-2.634,-2.7072,-2.8255,-2.8565,-2.9272,-3.1184,-3.254,0.0,0.0,0.0,0.0,0.0,0.0,0.0,0.0,0.0,0.0,0.0,0.0,0.0,0.0,-4.2974,-4.2974,-4.2974,-4.2974,-4.2974,-4.2974,-4.2974,-4.2974,-4.2974,-4.2974,-4.2681,-4.2093,-4.1386,-4.0442,0.0,0.0,0.0,-3.6359,-3.5654,-3.5418,-3.5418,-3.5418,-3.5418,-3.5397,-3.519,-3.4962,-3.4723,-3.4049,-3.3451,-3.3037,-3.2809,-3.2669,-3.2669,-3.2669,-3.2669,-3.2669,-3.2669,-3.2669,-3.2669,-3.2669,-3.2669,-3.2669,-3.2669,-3.2669,-3.2669,-3.2669,-3.2669,-3.2669,-3.2669,-3.2669,-3.2669,-3.2669,-3.2669,-3.2669,-3.2669,-3.2669,-3.2669,-3.2669,-3.2555,-3.2373,-3.2076,-3.173,-3.145,-3.116,-3.1005,-3.0889,-3.0889,-3.0889,-3.0889,-3.0889,-3.0889,-3.0889,-3.0889,-3.0889,-3.0889,-3.0889,-3.0889,-3.0889,-3.0889,-3.0889,-3.0889,-2.4191,-2.5145,-2.5989,-2.5728,-2.5824,-2.5897,-2.5806,0.0,0.0,0.0,0.0,-2.7027,-2.7717,-2.8659,0.0,0.0,0.0,0.0,0.0,0.0,0.0,0.0,0.0,0.0,0.0,0.0,0.0,0.0,0.0,0.0,0.0,0.0,-4.2974,-4.2974,-4.2974,-4.2974,-4.2974,-4.2974,-4.2974,-4.2974,-4.2974,-4.2331,-4.1088,-4.0928,-3.9557,0.0,0.0,0.0,-3.5418,-3.5345,-3.5324,-3.5314,-3.5242,-3.5211,-3.5169,-3.4786,-3.4671,-3.4484,-3.3575,-3.3037,-3.2669,-3.2669,-3.2669,-3.2669,-3.2669,-3.2669,-3.2669,-3.2669,-3.2669,-3.2669,-3.2669,-3.2669,-3.2669,-3.2669,-3.2669,-3.2669,-3.2669,-3.2669,-3.2669,-3.2669,-3.2669,-3.2669,-3.2669,-3.2669,-3.2669,-3.2669,-3.2669,-3.2669,-3.2669,-3.2669,-3.243,-3.1845,-3.173,-3.1508,-3.0947,-3.0889,-3.0889,-3.0889,-3.0889,-3.0889,-3.0889,-3.0889,-3.0889,-3.0889,-3.0889,-3.0889,-3.0889,-3.0889,-3.0889,-3.0889,-3.0889,-3.0889,-2.457,-2.6033,-2.6889,-2.5489,-2.5855,-2.6412,-2.591,-2.5728,0.0,0.0,0.0,0.0,0.0,-3.0474,-3.1837,0.0,0.0,0.0,0.0,0.0,0.0,0.0,0.0,0.0,0.0,0.0,0.0,0.0,0.0,0.0,0.0,0.0,0.0,-4.2974,-4.2974,-4.2974,-4.2974,-4.2974,-4.2974,-4.2974,-4.2974,-4.2331,-4.1043,-3.9978,-3.8673,0.0,0.0,-3.5603,-3.5387,-3.5014,-3.4859,-3.4817,-3.4424,-3.4279,-3.4269,-3.4256,-3.3986,-3.3513,-3.3006,-3.2789,-3.2669,-3.2669,-3.2669,-3.2669,-3.2669,-3.2669,-3.2669,-3.2669,-3.2669,-3.2669,-3.2669,-3.2669,-3.2669,-3.2669,-3.2669,-3.2669,-3.2669,-3.2669,-3.2669,-3.2669,-3.2669,-3.2669,-3.2669,-3.2669,-3.2669,-3.2669,-3.2669,-3.2669,-3.2669,-3.2487,-3.219,-3.1845,-3.1556,-3.1276,-3.0947,-3.0889,-3.0889,-3.0889,-3.0889,-3.0889,-3.0889,-3.0889,-3.0889,-3.0889,-3.0889,-3.0889,-3.0889,-3.0889,-3.0889,-3.0889,-3.0889,-3.0889,-2.3799,-2.5288,-2.6459,-2.6039,-2.7033,-2.8098,-2.7988,-2.7239,-2.67,0.0,0.0,0.0,0.0,0.0,-3.2534,-3.4958,0.0,0.0,0.0,0.0,0.0,0.0,0.0,0.0,0.0,0.0,0.0,0.0,0.0,0.0,0.0,0.0,0.0,-4.2095,-4.2095,-4.2095,-4.2095,-4.2095,-4.2396,-4.2974,-4.2974,-4.198,-4.0036,-3.9221,-3.7758,-3.5926,0.0,-3.4693,-3.4672,-3.4476,-3.4443,-3.4422,-3.4204,-3.4132,-3.41,-3.3841,-3.341,-3.3006,-3.2742,-3.2669,-3.2669,-3.2669,-3.2669,-3.2669,-3.2669,-3.2669,-3.2669,-3.2669,-3.2669,-3.2669,-3.2669,-3.2669,-3.2669,-3.2669,-3.2669,-3.2669,-3.2669,-3.2669,-3.2669,-3.2669,-3.2669,-3.2669,-3.2669,-3.2669,-3.2669,-3.2669,-3.2669,-3.2669,-3.2669,-3.2612,-3.2315,-3.1845,-3.1672,-3.1392,-3.0947,-3.0889,-3.0889,-3.0889,-3.0889,-3.0889,-3.0889,-3.0889,-3.0889,-3.0889,-3.0889,-3.0889,-3.0889,-3.0889,-3.0889,-3.0889,-3.0889,-3.0889,-2.3406,-2.47,-2.5963,-2.6667,-2.7947,-2.9181,-2.9855,-2.8815,-2.7945,0.0,0.0,0.0,0.0,-3.1487,0.0,0.0,0.0,0.0,0.0,0.0,0.0,0.0,0.0,0.0,0.0,0.0,0.0,0.0,0.0,0.0,0.0,0.0,0.0,-4.1288,-4.1288,-4.1288,-4.1288,-4.1288,-4.1769,-4.2597,-4.2597,-4.1306,-3.886,-3.8459,-3.6952,-3.464,-3.4287,-3.4132,-3.4062,-3.4007,-3.3966,-3.3955,-3.3793,-3.3751,-3.371,-3.3358,-3.3016,-3.2669,-3.2669,-3.2669,-3.2669,-3.2669,-3.2669,-3.2669,-3.2669,-3.2669,-3.2669,-3.2669,-3.2669,-3.2669,-3.2669,-3.2669,-3.2669,-3.2669,-3.2669,-3.2669,-3.2669,-3.2669,-3.2669,-3.2669,-3.2669,-3.2669,-3.2669,-3.2669,-3.2669,-3.2669,-3.2669,-3.2669,-3.2669,-3.2669,-3.2373,-3.1845,-3.173,-3.145,-3.0947,-3.0889,-3.0889,-3.0889,-3.0889,-3.0889,-3.0889,-3.0889,-3.0889,-3.0889,-3.0889,-3.0889,-3.0889,-3.0889,-3.0889,-3.0889,-3.0889,-3.0889,-2.4429,-2.5328,-2.6022,-2.6998,-2.7742,-2.8601,-3.0182,-2.9917,-2.9767,-3.1366,0.0,0.0,0.0,-3.3835,0.0,0.0,0.0,0.0,0.0,0.0,0.0,0.0,0.0,0.0,0.0,0.0,0.0,0.0,0.0,0.0,0.0,0.0,0.0,0.0,-4.1288,-4.1288,-4.1288,-4.1288,-4.1326,-4.1401,-4.1401,-4.0141,-3.7816,-3.7781,-3.6454,-3.4173,-3.4142,-3.4132,-3.41,-3.3606,-3.343,-3.3389,-3.2985,-3.283,-3.282,-3.2789,-3.2758,-3.2669,-3.2669,-3.2669,-3.2669,-3.2669,-3.2669,-3.2669,-3.2669,-3.2669,-3.2669,-3.2669,-3.2669,-3.2669,-3.2669,-3.2669,-3.2669,-3.2669,-3.2669,-3.2669,-3.2669,-3.2669,-3.2669,-3.2669,-3.2669,-3.2669,-3.2669,-3.2669,-3.2669,-3.2669,-3.2669,-3.2669,-3.2669,-3.2487,-3.219,-3.1845,-3.1498,-3.1218,-3.0947,-3.0889,-3.0889,-3.0889,-3.0889,-3.0889,-3.0889,-3.0889,-3.0889,-3.0889,-3.0889,-3.0889,-3.0889,-3.0889,-3.0889,-3.0889,-3.0889,-3.0889,-2.3483,-2.468,-2.5768,-2.6924,-2.8004,0.0,0.0,-3.1081,-3.1787,-3.3346,-3.3409,0.0,0.0,0.0,0.0,0.0,0.0,0.0,0.0,0.0,0.0,0.0,0.0,0.0,0.0,0.0,0.0,0.0,0.0,0.0,0.0,0.0,0.0,0.0,-4.0325,-4.0325,-4.0325,-4.0325,-3.9932,-3.9206,-3.9878,-3.8959,-3.664,-3.6327,-3.528,-3.3627,-3.3358,-3.3234,-3.3223,-3.3047,-3.2975,-3.2954,-3.2799,-3.2669,-3.2669,-3.2669,-3.2669,-3.2669,-3.2669,-3.2669,-3.2669,-3.2669,-3.2669,-3.2669,-3.2669,-3.2669,-3.2669,-3.2669,-3.2669,-3.2669,-3.2669,-3.2669,-3.2669,-3.2669,-3.2669,-3.2669,-3.2669,-3.2669,-3.2669,-3.2669,-3.2669,-3.2669,-3.2669,-3.2669,-3.2669,-3.2669,-3.2669,-3.2612,-3.2487,-3.2373,-3.2076,-3.1556,-3.1228,-3.1005,-3.0889,-3.0889,-3.0889,-3.0889,-3.0889,-3.0889,-3.0889,-3.0889,-3.0889,-3.0889,-3.0889,-3.0889,-3.0889,-3.0889,-3.0889,-3.0889,-3.0889,-3.0889,-2.335,-2.4532,-2.5832,-2.6981,0.0,0.0,-3.1048,-3.2044,-3.3197,-3.509,-3.4926,-3.4525,-3.4876,0.0,0.0,0.0,0.0,0.0,0.0,0.0,0.0,0.0,0.0,0.0,0.0,0.0,0.0,0.0,0.0,0.0,0.0,0.0,0.0,0.0,0.0,-3.9697,-3.9697,-3.9697,-3.9089,-3.7897,-3.8671,-3.7799,-3.5509,-3.517,-3.4347,-3.3161,-3.2861,-3.2669,-3.2669,-3.2669,-3.2669,-3.2669,-3.2669,-3.2669,-3.2669,-3.2669,-3.2669,-3.2669,-3.2669,-3.2669,-3.2669,-3.2669,-3.2669,-3.2669,-3.2669,-3.2669,-3.2669,-3.2669,-3.2669,-3.2669,-3.2669,-3.2669,-3.2669,-3.2669,-3.2669,-3.2669,-3.2669,-3.2669,-3.2669,-3.2669,-3.2669,-3.2669,-3.2669,-3.2669,-3.2669,-3.2669,-3.2669,-3.2612,-3.2305,-3.2201,-3.1903,-3.1218,-3.1005,-3.0889,-3.0889,-3.0889,-3.0889,-3.0889,-3.0889,-3.0889,-3.0889,-3.0889,-3.0889,-3.0889,-3.0889,-3.0889,-3.0889,-3.0889,-3.0889,-3.0889,-3.0889,-3.0889,-2.44,-2.5218,-2.6322,-2.7284,0.0,0.0,-3.1905,-3.2692,-3.3884,-3.6634,-3.6332,-3.5859,-3.6985,-3.6795,0.0,0.0,0.0,0.0,0.0,0.0,0.0,0.0,0.0,0.0,0.0,0.0,0.0,0.0,0.0,0.0,0.0,0.0,0.0,0.0,0.0,0.0,-3.9697,-3.9697,-3.9089,-3.7897,-3.7897,-3.6696,-3.448,-3.448,-3.3829,-3.2669,-3.2669,-3.2669,-3.2669,-3.2669,-3.2669,-3.2669,-3.2669,-3.2669,-3.2669,-3.2669,-3.2669,-3.2669,-3.2669,-3.2669,-3.2669,-3.2669,-3.2669,-3.2669,-3.2669,-3.2669,-3.2669,-3.2669,-3.2669,-3.2669,-3.2669,-3.2669,-3.2669,-3.2669,-3.2669,-3.2669,-3.2669,-3.2669,-3.2669,-3.2669,-3.2669,-3.2669,-3.2669,-3.2669,-3.2669,-3.2669,-3.2669,-3.2612,-3.2315,-3.2018,-3.1566,-3.0947,-3.0889,-3.0889,-3.0889,-3.0889,-3.0889,-3.0889,-3.0889,-3.0889,-3.0889,-3.0889,-3.0889,-3.0889,-3.0889,-3.0889,-3.0889,-3.0889,-3.0889,-3.0889,-3.0889,-3.0889,-2.3812,-2.509,-2.6737,-2.8303,0.0,0.0,0.0,-3.4989,0.0,0.0,-3.8115,-3.7739,-3.7274,0.0,0.0,0.0,0.0,0.0,0.0,0.0,0.0,0.0,0.0,0.0,0.0,0.0,0.0,0.0,0.0,0.0,0.0,0.0,0.0,0.0,0.0,0.0,-3.9697,-3.9697,-3.9089,-3.7897,-3.7897,-3.6696,-3.448,-3.448,-3.3829,-3.2669,-3.2669,-3.2669,-3.2669,-3.2669,-3.2669,-3.2669,-3.2669,-3.2669,-3.2669,-3.2669,-3.2669,-3.2669,-3.2669,-3.2669,-3.2669,-3.2669,-3.2669,-3.2669,-3.2669,-3.2669,-3.2669,-3.2669,-3.2669,-3.2669,-3.2669,-3.2669,-3.2669,-3.2669,-3.2669,-3.2669,-3.2669,-3.2669,-3.2669,-3.2669,-3.2669,-3.2669,-3.2669,-3.2669,-3.2669,-3.2669,-3.2669,-3.2498,-3.2018,-3.1672,-3.1334,-3.0947,-3.0889,-3.0889,-3.0889,-3.0889,-3.0889,-3.0889,-3.0889,-3.0889,-3.0889,-3.0889,-3.0889,-3.0889,-3.0889,-3.0889,-3.0889,-3.0889,-3.0889,-3.0889,-3.0889,-3.0889,-2.4595,-2.608,0.0,-2.9895,-3.1493,-3.3257,-3.5871,0.0,0.0,0.0,-3.8843,-3.8454,-3.8228,0.0,0.0,0.0,0.0,0.0,0.0,0.0,0.0,0.0,0.0,0.0,0.0,0.0,0.0,0.0,0.0,0.0,0.0,0.0,0.0,0.0,0.0,0.0,-3.9697,-3.9697,-3.931,-3.8607,-3.8108,-3.6965,-3.5179,-3.4692,-3.3829,-3.2669,-3.2669,-3.2669,-3.2669,-3.2669,-3.2669,-3.2669,-3.2669,-3.2669,-3.2669,-3.2669,-3.2669,-3.2669,-3.2669,-3.2669,-3.2669,-3.2669,-3.2669,-3.2669,-3.2669,-3.2669,-3.2669,-3.2669,-3.2669,-3.2669,-3.2669,-3.2669,-3.2669,-3.2669,-3.2669,-3.2669,-3.2669,-3.2669,-3.2669,-3.2669,-3.2669,-3.2669,-3.2669,-3.2669,-3.2669,-3.2669,-3.2498,-3.2201,-3.1845,-3.1392,-3.1054,-3.0889,-3.0889,-3.0889,-3.0889,-3.0889,-3.0889,-3.0889,-3.0889,-3.0889,-3.0889,-3.0889,-3.0889,-3.0889,-3.0889,-3.0889,-3.0889,-3.0889,-3.0889,-3.0889,-3.0889,-3.0889,-2.6059,-2.7557,-2.9352,-3.165,-3.2842,0.0,-3.7249,-3.8379,-3.8969,-3.9572,0.0,-3.8467,-3.9509,0.0,0.0,0.0,0.0,0.0,0.0,0.0,0.0,0.0,0.0,0.0,0.0,0.0,0.0,0.0,0.0,0.0,0.0,0.0,0.0,0.0,0.0,0.0,-3.9697,-3.9697,-3.9697,0.0,-3.8489,-3.7287,-3.6131,-3.5013,-3.3829,-3.2669,-3.2669,-3.2669,-3.2669,-3.2669,-3.2669,-3.2669,-3.2669,-3.2669,-3.2669,-3.2669,-3.2669,-3.2669,-3.2669,-3.2669,-3.2669,-3.2669,-3.2669,-3.2669,-3.2669,-3.2669,-3.2669,-3.2669,-3.2669,-3.2669,-3.2669,-3.2669,-3.2669,-3.2669,-3.2669,-3.2669,-3.2669,-3.2669,-3.2669,-3.2669,-3.2669,-3.2669,-3.2669,-3.2669,-3.2669,-3.2669,-3.2201,-3.1845,-3.1787,-3.1286,-3.0947,-3.0889,-3.0889,-3.0889,-3.0889,-3.0889,-3.0889,-3.0889,-3.0889,-3.0889,-3.0889,-3.0889,-3.0889,-3.0889,-3.0889,-3.0889,-3.0889,-3.0889,-3.0889,-3.0889,-3.0889,-3.0889,-2.4996,-2.6691,0.0,0.0,-3.4274,-3.6483,-3.7199,-3.7789,-3.8479,-3.9484,-3.9496,0.0,0.0,0.0,0.0,0.0,0.0,0.0,0.0,0.0,0.0,0.0,0.0,0.0,0.0,0.0,0.0,0.0,0.0,0.0,0.0,0.0,0.0,0.0,0.0,-3.9697,-3.9697,-3.9697,-3.9697,0.0,-3.8489,-3.7287,-3.6131,-3.5013,-3.3829,-3.2669,-3.2669,-3.2669,-3.2669,-3.2669,-3.2669,-3.2669,-3.2669,-3.2669,-3.2669,-3.2669,-3.2669,-3.2669,-3.2669,-3.2669,-3.2669,-3.2669,-3.2669,-3.2669,-3.2669,-3.2669,-3.2669,-3.2669,-3.2669,-3.2669,-3.2669,-3.2669,-3.2669,-3.2669,-3.2669,-3.2669,-3.2669,-3.2669,-3.2669,-3.2669,-3.2669,-3.2669,-3.2669,-3.2669,-3.2612,-3.243,-3.2258,-3.2018,-3.1498,-3.1267,-3.1102,-3.0947,-3.0889,-3.0889,-3.0889,-3.0889,-3.0889,-3.0889,-3.0889,-3.0889,-3.0889,-3.0889,-3.0889,-3.0889,-3.0889,-3.0889,-3.0889,-3.0889,-3.0889,-3.0889,-3.0889,-3.0889,-2.5172,0.0,0.0,-3.2549,0.0,-3.6533,-3.7061,-3.7412,-3.7852,-3.8705,-3.9107,0.0,0.0,0.0,0.0,0.0,0.0,0.0,0.0,0.0,0.0,0.0,0.0,0.0,0.0,0.0,0.0,0.0,0.0,0.0,0.0,0.0,0.0,0.0,-3.9697,-3.9697,-3.9697,-3.9141,-3.8816,-3.8816,-3.7084,-3.5663,-3.4514,-3.3931,-3.3275,-3.2669,-3.2669,-3.2669,-3.2669,-3.2669,-3.2669,-3.2669,-3.2669,-3.2669,-3.2669,-3.2669,-3.2669,-3.2669,-3.2669,-3.2669,-3.2669,-3.2669,-3.2669,-3.2669,-3.2669,-3.2669,-3.2669,-3.2669,-3.2669,-3.2669,-3.2669,-3.2669,-3.2669,-3.2669,-3.2669,-3.2669,-3.2669,-3.2669,-3.2669,-3.2669,-3.2669,-3.2669,-3.2669,-3.2612,-3.243,-3.2305,-3.2018,-3.1672,-3.1325,-3.1218,-3.1054,-3.0889,-3.0889,-3.0889,-3.0889,-3.0889,-3.0889,-3.0889,-3.0889,-3.0889,-3.0889,-3.0889,-3.0889,-3.0889,-3.0889,-3.0889,-3.0889,-3.0889,-3.0889,-3.0889,-3.0889,-3.0889,-2.5242,0.0,-2.9903,-3.3545,-3.4956,0.0,-3.6697,-3.6973,-3.7174,-3.7626,0.0,0.0,0.0,0.0,0.0,0.0,0.0,0.0,0.0,0.0,0.0,0.0,0.0,0.0,0.0,0.0,0.0,0.0,0.0,0.0,0.0,0.0,-3.9697,-3.9697,-3.9697,-3.9581,-3.9362,-3.8384,-3.7779,-3.7566,-3.5509,-3.3885,-3.2669,-3.2669,-3.2669,-3.2669,-3.2669,-3.2669,-3.2669,-3.2669,-3.2669,-3.2669,-3.2669,-3.2669,-3.2669,-3.2669,-3.2669,-3.2669,-3.2669,-3.2669,-3.2669,-3.2669,-3.2669,-3.2669,-3.2669,-3.2669,-3.2669,-3.2669,-3.2669,-3.2669,-3.2669,-3.2669,-3.2669,-3.2669,-3.2669,-3.2669,-3.2669,-3.2669,-3.2669,-3.2669,-3.2669,-3.2669,-3.2669,-3.2487,-3.2315,-3.2248,-3.173,-3.1325,-3.1218,-3.1054,-3.0889,-3.0889,-3.0889,-3.0889,-3.0889,-3.0889,-3.0889,-3.0889,-3.0889,-3.0889,-3.0889,-3.0889,-3.0889,-3.0889,-3.0889,-3.0889,-3.0889,-3.0889,-3.0889,-3.0889,-3.0889,-3.0889,-2.3195,0.0,-3.0256,0.0,-3.4424,-3.5533,0.0,0.0,-3.6543,0.0,0.0,0.0,0.0,0.0,0.0,0.0,0.0,0.0,0.0,0.0,0.0,0.0,0.0,0.0,0.0,0.0,0.0,0.0,0.0,0.0,0.0,-3.9697,-3.9697,-3.9697,-3.9697,-3.9206,-3.8161,-3.8003,-3.7394,-3.6402,-3.5124,-3.3885,-3.2669,-3.2669,-3.2669,-3.2669,-3.2669,-3.2669,-3.2669,-3.2669,-3.2669,-3.2669,-3.2669,-3.2669,-3.2669,-3.2669,-3.2669,-3.2669,-3.2669,-3.2669,-3.2669,-3.2669,-3.2669,-3.2669,-3.2669,-3.2669,-3.2669,-3.2669,-3.2669,-3.2669,-3.2669,-3.2669,-3.2669,-3.2669,-3.2669,-3.2669,-3.2669,-3.2669,-3.2669,-3.2669,-3.2669,-3.2669,-3.2669,-3.2669,-3.2498,-3.1971,-3.1787,-3.1566,-3.1005,-3.0947,-3.0889,-3.0889,-3.0889,-3.0889,-3.0889,-3.0889,-3.0889,-3.0889,-3.0889,-3.0889,-3.0889,-3.0889,-3.0889,-3.0889,-3.0889,-3.0889,-3.0889,-3.0889,-3.0889,-3.0889,-3.0889,-3.0889,-2.428,-2.6879,-2.9528,0.0,-3.3621,-3.4324,-3.4893,0.0,0.0,0.0,0.0,0.0,0.0,0.0,0.0,0.0,0.0,0.0,0.0,0.0,0.0,0.0,0.0,0.0,0.0,0.0,0.0,0.0,0.0,0.0,-3.8755,-3.8755,-3.8755,-3.8755,-3.8755,-3.864,-3.8465,-3.7178,-3.5759,-3.4246,-3.3706,-3.3218,-3.2669,-3.2669,-3.2669,-3.2669,-3.2669,-3.2669,-3.2669,-3.2669,-3.2669,-3.2669,-3.2669,-3.2669,-3.2669,-3.2669,-3.2669,-3.2669,-3.2669,-3.2669,-3.2669,-3.2669,-3.2669,-3.2669,-3.2669,-3.2669,-3.2669,-3.2669,-3.2669,-3.2669,-3.2669,-3.2669,-3.2669,-3.2669,-3.2669,-3.2669,-3.2669,-3.2669,-3.2669,-3.2669,-3.2669,-3.2669,-3.2669,-3.244,-3.2086,-3.1845,-3.1508,-3.117,-3.0947,-3.0889,-3.0889,-3.0889,-3.0889,-3.0889,-3.0889,-3.0889,-3.0889,-3.0889,-3.0889,-3.0889,-3.0889,-3.0889,-3.0889,-3.0889,-3.0889,-3.0889,-3.0889,-3.0889,-3.0889,-3.0889,-3.0889,-3.0889,0.0,0.0,-2.8009,-3.1047,-3.2227,-3.293,0.0,0.0,0.0,0.0,0.0,0.0,0.0,0.0,0.0,0.0,0.0,0.0,0.0,0.0,0.0,0.0,0.0,0.0,0.0,0.0,0.0,0.0,0.0,0.0,-3.8002,-3.8002,-3.8002,-3.8002,-3.8002,-3.8066,-3.8227,-3.594,-3.3955,-3.2385,-3.2442,-3.2494,-3.2504,-3.2675,-3.2669,-3.2669,-3.2669,-3.2669,-3.2669,-3.2669,-3.2669,-3.2669,-3.2669,-3.2669,-3.2669,-3.2669,-3.2669,-3.2669,-3.2669,-3.2669,-3.2669,-3.2669,-3.2669,-3.2669,-3.2669,-3.2669,-3.2669,-3.2669,-3.2669,-3.2669,-3.2669,-3.2669,-3.2669,-3.2669,-3.2669,-3.2669,-3.2669,-3.2669,-3.2669,-3.2669,-3.2669,-3.2669,-3.2612,-3.2201,-3.1845,-3.1672,-3.1276,-3.1005,-3.0889,-3.0889,-3.0889,-3.0889,-3.0889,-3.0889,-3.0889,-3.0889,-3.0889,-3.0889,-3.0889,-3.0889,-3.0889,-3.0889,-3.0889,-3.0889,-3.0889,-3.0889,-3.0889,-3.0889,-3.0889,-3.0889,-3.0889,-3.0889,0.0,-2.371,0.0,-2.7795,-2.993,0.0,0.0,0.0,0.0,0.0,0.0,0.0,0.0,0.0,0.0,0.0,0.0,0.0,0.0,0.0,0.0,0.0,0.0,0.0,0.0,0.0,0.0,0.0,0.0,0.0,-3.8002,-3.8002,-3.8002,-3.8002,-3.8002,-3.7506,-3.6461,-3.4193,-3.2491,-3.1454,-3.1868,-3.2019,-3.2039,-3.2473,-3.2669,-3.2669,-3.2669,-3.2669,-3.2669,-3.2669,-3.2669,-3.2669,-3.2669,-3.2669,-3.2669,-3.2669,-3.2669,-3.2669,-3.2669,-3.2669,-3.2669,-3.2669,-3.2669,-3.2669,-3.2669,-3.2669,-3.2669,-3.2669,-3.2669,-3.2669,-3.2669,-3.2669,-3.2669,-3.2669,-3.2669,-3.2669,-3.2669,-3.2669,-3.2669,-3.2669,-3.2669,-3.2612,-3.2373,-3.2305,-3.2076,-3.1441,-3.1325,-3.1218,-3.0947,-3.0889,-3.0889,-3.0889,-3.0889,-3.0889,-3.0889,-3.0889,-3.0889,-3.0889,-3.0889,-3.0889,-3.0889,-3.0889,-3.0889,-3.0889,-3.0889,-3.0889,-3.0889,-3.0889,-3.0889,-3.0889,-3.0889,-3.0889,0.0,0.0,0.0,-2.6402,-2.8172,-2.9578,0.0,0.0,0.0,0.0,0.0,0.0,0.0,0.0,0.0,0.0,0.0,0.0,0.0,0.0,0.0,0.0,0.0,0.0,0.0,0.0,0.0,0.0,0.0,0.0,-3.6948,-3.6948,-3.6948,-3.6948,-3.6948,-3.6565,-3.5807,-3.4624,-3.3473,-3.234,-3.1845,-3.1609,-3.1619,-3.1785,-3.2023,-3.2215,-3.1981,-3.2199,-3.2669,-3.2669,-3.2669,-3.2669,-3.2669,-3.2669,-3.2669,-3.2669,-3.2669,-3.2669,-3.2669,-3.2669,-3.2669,-3.2669,-3.2669,-3.2669,-3.2669,-3.2669,-3.2669,-3.2669,-3.2669,-3.2669,-3.2669,-3.2669,-3.2669,-3.2669,-3.2669,-3.2669,-3.2669,-3.2669,-3.2669,-3.2669,-3.2555,-3.243,-3.2305,-3.196,-3.1556,-3.1325,-3.116,-3.1005,-3.0889,-3.0889,-3.0889,-3.0889,-3.0889,-3.0889,-3.0889,-3.0889,-3.0889,-3.0889,-3.0889,-3.0889,-3.0889,-3.0889,-3.0889,-3.0889,-3.0889,-3.0889,-3.0889,-3.0889,-3.0889,-3.0889,-3.0889,-3.0889,-2.0313,0.0,0.0,0.0,0.0,0.0,0.0,0.0,0.0,0.0,0.0,0.0,0.0,0.0,0.0,0.0,0.0,0.0,0.0,0.0,0.0,0.0,0.0,0.0,0.0,0.0,0.0,0.0,0.0,0.0,-3.6405,-3.6061,-3.5715,-3.5319,-3.5331,-3.4944,-3.4186,-3.3851,-3.309,-3.1912,-3.1428,-3.1143,-3.1153,-3.1309,-3.1536,-3.1795,-3.1505,-3.1888,-3.2659,-3.2504,-3.2535,-3.2669,-3.2669,-3.2669,-3.2669,-3.2669,-3.2669,-3.2669,-3.2669,-3.2669,-3.2669,-3.2669,-3.2669,-3.2669,-3.2669,-3.2669,-3.2669,-3.2669,-3.2669,-3.2669,-3.2669,-3.2669,-3.2669,-3.2669,-3.2669,-3.2669,-3.2669,-3.2669,-3.2669,-3.2669,-3.2487,-3.2248,-3.2133,-3.1672,-3.1267,-3.116,-3.0995,-3.0889,-3.0889,-3.0889,-3.0889,-3.0889,-3.0889,-3.0889,-3.0889,-3.0889,-3.0889,-3.0889,-3.0889,-3.0889,-3.0889,-3.0889,-3.0889,-3.0889,-3.0889,-3.0889,-3.0889,-3.0889,-3.0889,-3.0889,-3.0889,-3.0889,0.0,0.0,0.0,0.0,0.0,0.0,0.0,0.0,0.0,0.0,0.0,0.0,0.0,0.0,0.0,0.0,0.0,0.0,0.0,0.0,0.0,0.0,0.0,0.0,0.0,0.0,0.0,0.0,0.0,-3.6355,-3.6355,-3.5366,-3.4301,-3.3277,-3.3227,-3.2728,-3.1677,-3.1626,-3.1084,-3.0047,-3.0503,-3.0667,-3.0677,-3.1133,-3.135,-3.136,-3.134,-3.1847,-3.2654,-3.2153,-3.2235,-3.2659,-3.2659,-3.2659,-3.2669,-3.2669,-3.2669,-3.2669,-3.2669,-3.2669,-3.2669,-3.2669,-3.2669,-3.2669,-3.2669,-3.2669,-3.2669,-3.2669,-3.2669,-3.2669,-3.2669,-3.2669,-3.2669,-3.2669,-3.2669,-3.2669,-3.2669,-3.2669,-3.268,-3.268,-3.2487,-3.219,-3.1845,-3.1498,-3.1218,-3.0947,-3.0889,-3.0889,-3.0889,-3.0889,-3.0889,-3.0889,-3.0889,-3.0889,-3.0889,-3.0889,-3.0889,-3.0889,-3.0889,-3.0889,-3.0889,-3.0889,-3.0889,-3.0889,-3.0889,-3.0889,-3.0889,-3.0889,-3.0889,-3.0889,-3.0889,-3.0889,-1.907,0.0,0.0,0.0,0.0,0.0,0.0,0.0,0.0,0.0,0.0,0.0,0.0,0.0,0.0,0.0,0.0,0.0,0.0,0.0,0.0,0.0,0.0,0.0,0.0,0.0,0.0,0.0,-3.5177,-3.5177,-3.5177,-3.489,-3.4448,-3.3815,-3.3778,-3.3459,-3.2739,-3.1982,-3.1432,-3.1135,-3.0527,-3.018,-3.0191,-3.0325,-3.0563,-3.0853,-3.0522,-3.0905,-3.1743,-3.1619,-3.1826,-3.2173,-3.2173,-3.238,-3.2669,-3.2669,-3.2669,-3.2669,-3.2669,-3.2669,-3.2669,-3.2669,-3.2669,-3.2669,-3.2669,-3.2669,-3.2669,-3.2669,-3.2669,-3.2669,-3.2669,-3.2669,-3.2669,-3.2669,-3.2669,-3.2669,-3.2669,-3.2555,-3.243,-3.243,-3.2133,-3.1845,-3.1498,-3.1218,-3.1005,-3.0889,-3.0889,-3.0889,-3.0889,-3.0889,-3.0889,-3.0889,-3.0889,-3.0889,-3.0889,-3.0889,-3.0889,-3.0889,-3.0889,-3.0889,-3.0889,-3.0889,-3.0889,-3.0889,-3.0889,-3.0889,-3.0889,-3.0889,-3.0889,-3.0889,-3.0889,-3.0889,-1.9253,-2.0005,-2.1144,-2.1581,0.0,0.0,0.0,-2.4908,0.0,0.0,0.0,0.0,0.0,0.0,0.0,0.0,0.0,0.0,0.0,0.0,0.0,0.0,0.0,0.0,0.0,0.0,0.0,0.0,-3.468,-3.4474,-3.404,-3.404,-3.353,-3.241,-3.2362,-3.2028,-3.1285,-3.0838,-3.064,-3.064,-3.0203,-2.9994,-2.9994,-2.9994,-3.0139,-3.0387,-3.0118,-3.0305,-3.0801,-3.0801,-3.1184,-3.1785,-3.1915,-3.2153,-3.2411,-3.2607,-3.2669,-3.2669,-3.2669,-3.2669,-3.2669,-3.2669,-3.2669,-3.2669,-3.2669,-3.2669,-3.2669,-3.2669,-3.2669,-3.2669,-3.2669,-3.2669,-3.2669,-3.2669,-3.2669,-3.2669,-3.2555,-3.243,-3.2305,-3.2305,-3.1903,-3.1556,-3.1325,-3.1054,-3.0889,-3.0889,-3.0889,-3.0889,-3.0889,-3.0889,-3.0889,-3.0889,-3.0889,-3.0889,-3.0889,-3.0889,-3.0889,-3.0889,-3.0889,-3.0889,-3.0889,-3.0889,-3.0889,-3.0889,-3.0889,-3.0889,-3.0889,-3.0889,-3.0889,-3.0889,-3.0889,-3.0889,-1.9843,-2.0563,-2.1959,-2.2819,-2.2447,0.0,-2.4054,-2.4167,0.0,0.0,0.0,0.0,0.0,0.0,0.0,0.0,0.0,0.0,0.0,0.0,0.0,0.0,0.0,0.0,0.0,-3.4405,-3.4474,-3.4537,-3.4537,-3.4107,-3.3134,-3.2996,-3.209,-3.0235,-3.01,-2.9535,-2.8607,-2.9021,-2.9228,-2.9239,-2.9704,-2.9922,-2.9922,-2.9973,-2.9994,-2.9994,-2.9994,-2.9994,-2.9994,-2.9994,-3.0512,-3.134,-3.1733,-3.1864,-3.1967,-3.2432,-3.2597,-3.2607,-3.2659,-3.2669,-3.2669,-3.2669,-3.2669,-3.2669,-3.2669,-3.2669,-3.2669,-3.2669,-3.2669,-3.2669,-3.2669,-3.2669,-3.2669,-3.2669,-3.2669,-3.2612,-3.2373,-3.2315,-3.2248,-3.2248,-3.173,-3.1267,-3.1276,-3.1054,-3.0889,-3.0889,-3.0889,-3.0889,-3.0889,-3.0889,-3.0889,-3.0889,-3.0889,-3.0889,-3.0889,-3.0889,-3.0889,-3.0889,-3.0889,-3.0889,-3.0889,-3.0889,-3.0889,-3.0889,-3.0889,-3.0889,-3.0889,-3.0889,-3.0889,-3.0889,-3.0889,-3.0889,-2.2254,-2.2727,-2.3089,-2.26,-2.3296,0.0,-2.2447,-2.2736,0.0,0.0,0.0,0.0,0.0,0.0,0.0,0.0,0.0,0.0,0.0,0.0,0.0,0.0,0.0,0.0,0.0,-3.2704,-3.2893,-3.337,-3.3395,-3.3308,-3.3121,-3.2337,-3.152,-3.0668,-2.991,-2.9252,-2.8607,-2.87,-2.8752,-2.8752,-2.9218,-2.9435,-2.9446,-2.9829,-2.9994,-2.9994,-2.9994,-2.9994,-2.9994,-2.9994,-3.0325,-3.0833,-3.0915,-3.1174,-3.1557,-3.2012,-3.2122,-3.2173,-3.2545,-3.2669,-3.2669,-3.2669,-3.2669,-3.2669,-3.2669,-3.2669,-3.2669,-3.2669,-3.2669,-3.2669,-3.2669,-3.2669,-3.2669,-3.2669,-3.2669,-3.268,-3.2612,-3.2258,-3.1903,-3.1903,-3.1556,-3.1218,-3.0995,-3.0947,-3.0889,-3.0889,-3.0889,-3.0889,-3.0889,-3.0889,-3.0889,-3.0889,-3.0889,-3.0889,-3.0889,-3.0889,-3.0889,-3.0889,-3.0889,-3.0889,-3.0889,-3.0889,-3.0889,-3.0889,-3.0889,-3.0889,-3.0889,-3.0889,-3.0889,-3.0889,-3.0889,-3.0889,-2.3201,-2.3636,-2.4099,-2.3642,0.0,0.0,0.0,-2.2736,-2.3007,0.0,0.0,0.0,0.0,0.0,0.0,0.0,0.0,0.0,0.0,0.0,0.0,0.0,0.0,0.0,0.0,-3.18,-3.1926,-3.2215,-3.2054,-3.2172,-3.2641,-3.1974,-3.1243,-3.0526,-3.0042,-2.9194,-2.7983,-2.8162,-2.8266,-2.8276,-2.8742,-2.9073,-2.9311,-2.9539,-2.9777,-2.9994,-2.9994,-2.9994,-2.9994,-2.9994,-3.0129,-3.0367,-3.0594,-3.0833,-3.1091,-3.1547,-3.1712,-3.1774,-3.2173,-3.2328,-3.237,-3.2597,-3.2669,-3.2669,-3.2669,-3.2669,-3.2669,-3.2669,-3.2669,-3.2669,-3.2669,-3.2669,-3.2669,-3.2669,-3.2669,-3.2669,-3.2555,-3.2143,-3.173,-3.1556,-3.1334,-3.1054,-3.0947,-3.0889,-3.0889,-3.0889,-3.0889,-3.0889,-3.0889,-3.0889,-3.0889,-3.0889,-3.0889,-3.0889,-3.0889,-3.0889,-3.0889,-3.0889,-3.0889,-3.0889,-3.0889,-3.0889,-3.0889,-3.0889,-3.0889,-3.0889,-3.0889,-3.0889,-3.0889,-3.0889,-3.0889,-3.0889,-2.4049,-2.4453,-2.5098,-2.4973,0.0,-2.3985,0.0,0.0,0.0,-2.4506,0.0,0.0,0.0,0.0,0.0,0.0,0.0,0.0,0.0,0.0,0.0,0.0,0.0,0.0,0.0,-3.1085,-3.1173,-3.1373,-3.0896,-3.0948,-3.1734,-3.1397,-3.0749,-2.9795,-2.9704,-2.8899,-2.7309,-2.7614,-2.779,-2.78,-2.8266,-2.868,-2.9052,-2.9228,-2.9508,-2.987,-2.9953,-2.9994,-2.9994,-2.9994,-2.9994,-3.0036,-3.0408,-3.0553,-3.0605,-3.1071,-3.1247,-3.1309,-3.1754,-3.1853,-3.1981,-3.2344,-3.253,-3.2556,-3.2649,-3.2669,-3.2669,-3.2669,-3.2669,-3.2669,-3.2669,-3.2669,-3.2669,-3.2669,-3.2669,-3.2612,-3.2373,-3.2018,-3.1672,-3.1383,-3.1112,-3.0889,-3.0889,-3.0889,-3.0889,-3.0889,-3.0889,-3.0889,-3.0889,-3.0889,-3.0889,-3.0889,-3.0889,-3.0889,-3.0889,-3.0889,-3.0889,-3.0889,-3.0889,-3.0889,-3.0889,-3.0889,-3.0889,-3.0889,-3.0889,-3.0889,-3.0889,-3.0889,-3.0889,-3.0889,-3.0889,-3.0889,0.0,0.0,0.0,0.0,-2.6527,0.0,0.0,0.0,-2.3452,-2.2209,0.0,0.0,0.0,0.0,0.0,0.0,0.0,0.0,0.0,0.0,0.0,0.0,0.0,0.0,0.0,0.0,-3.0369,-3.1323,-3.049,-3.0032,-3.0325,-2.9816,-2.917,-2.8295,-2.7868,-2.7536,-2.7309,-2.7361,-2.7382,-2.7382,-2.779,-2.8028,-2.811,-2.8928,-2.9332,-2.9404,-2.9818,-2.9994,-2.9994,-2.9994,-2.9994,-3.0005,-3.0056,-3.0067,-3.0129,-3.0594,-3.076,-3.0833,-3.1298,-3.1454,-3.1464,-3.1516,-3.1795,-3.2142,-3.2545,-3.2669,-3.2669,-3.2669,-3.2669,-3.2669,-3.2669,-3.2669,-3.2669,-3.2669,-3.2669,-3.2612,-3.2373,-3.2018,-3.1672,-3.1383,-3.1112,-3.0889,-3.0889,-3.0889,-3.0889,-3.0889,-3.0889,-3.0889,-3.0889,-3.0889,-3.0889,-3.0889,-3.0889,-3.0889,-3.0889,-3.0889,-3.0889,-3.0889,-3.0889,-3.0889,-3.0889,-3.0889,-3.0889,-3.0889,-3.0889,-3.0889,-3.0889,-3.0889,-3.0889,-3.0889,-3.0889,-3.0889,0.0,0.0,0.0,0.0,0.0,0.0,-2.4205,0.0,-2.3489,0.0,0.0,0.0,0.0,0.0,0.0,0.0,0.0,0.0,0.0,0.0,0.0,0.0,0.0,0.0,0.0,0.0,0.0,0.0,0.0,-2.7443,-2.9063,-2.8528,-2.8088,-2.7981,-2.7788,-2.7581,-2.7299,-2.7309,-2.7309,-2.7309,-2.7448,-2.7676,-2.7886,-2.8328,-2.8794,-2.9321,-2.9508,-2.9746,-2.9994,-2.9994,-2.9994,-2.9994,-2.9994,-2.9994,-3.0015,-3.0212,-3.0284,-3.0356,-3.0822,-3.0977,-3.1019,-3.1288,-3.1681,-3.2019,-3.2215,-3.2463,-3.2669,-3.2669,-3.2669,-3.2669,-3.2669,-3.2669,-3.2669,-3.2487,-3.2487,-3.2373,-3.2086,-3.173,-3.1441,-3.1325,-3.1112,-3.0889,-3.0889,-3.0889,-3.0889,-3.0889,-3.0889,-3.0889,-3.0889,-3.0889,-3.0889,-3.0889,-3.0889,-3.0889,-3.0889,-3.0889,-3.0889,-3.0889,-3.0889,-3.0889,-3.0889,-3.0889,-3.0889,-3.0889,-3.0889,-3.0889,-3.0889,-3.0889,-3.0889,-3.0889,-3.0889,-3.0889,-2.6364,0.0,0.0,0.0,0.0,0.0,0.0,0.0,0.0,0.0,0.0,0.0,0.0,0.0,0.0,-2.1757,0.0,0.0,0.0,0.0,0.0,0.0,0.0,0.0,0.0,0.0,0.0,0.0,0.0,0.0,-2.811,-2.7592,-2.7315,-2.7588,-2.759,-2.7445,-2.7112,-2.7247,-2.7309,-2.7309,-2.7309,-2.7427,-2.7748,-2.7872,-2.8286,-2.8938,-2.9197,-2.9497,-2.9818,-2.9942,-2.9994,-2.9994,-2.9994,-2.9994,-2.9994,-2.9994,-2.9994,-3.0046,-3.0377,-3.0501,-3.0574,-3.104,-3.1412,-3.1712,-3.1915,-3.2215,-3.2514,-3.2638,-3.2669,-3.2669,-3.2669,-3.2669,-3.2612,-3.2373,-3.2305,-3.219,-3.173,-3.1441,-3.1276,-3.1218,-3.1054,-3.0889,-3.0889,-3.0889,-3.0889,-3.0889,-3.0889,-3.0889,-3.0889,-3.0889,-3.0889,-3.0889,-3.0889,-3.0889,-3.0889,-3.0889,-3.0889,-3.0889,-3.0889,-3.0889,-3.0889,-3.0889,-3.0889,-3.0889,-3.0889,-3.0889,-3.0889,-3.0889,-3.0889,-3.0889,-3.0889,-3.0889,0.0,0.0,0.0,-2.5721,0.0,0.0,0.0,0.0,-2.4619,0.0,0.0,0.0,0.0,-2.4318,-2.3565,-2.246,-2.2297,0.0,0.0,0.0,0.0,0.0,0.0,0.0,0.0,0.0,0.0,0.0,0.0,0.0,-2.7524,-2.7243,-2.6858,-2.654,-2.6591,-2.6625,-2.6635,-2.7081,-2.7309,-2.7309,-2.7309,-2.732,-2.734,-2.7728,-2.7945,-2.8017,-2.8918,-2.9311,-2.9363,-2.9808,-2.9994,-2.9994,-2.9994,-2.9994,-2.9994,-2.9994,-2.9994,-2.9994,-3.0015,-3.0015,-3.0098,-3.0563,-3.0719,-3.0895,-3.1719,-3.1998,-3.2101,-3.2545,-3.2669,-3.2669,-3.2669,-3.2669,-3.2612,-3.2373,-3.2305,-3.2133,-3.1441,-3.1334,-3.1218,-3.0947,-3.0898,-3.0889,-3.0889,-3.0889,-3.0889,-3.0889,-3.0889,-3.0889,-3.0889,-3.0889,-3.0889,-3.0889,-3.0889,-3.0889,-3.0889,-3.0889,-3.0889,-3.0889,-3.0889,-3.0889,-3.0889,-3.0889,-3.0889,-3.0889,-3.0889,-3.0889,-3.0889,-3.0889,-3.0889,-3.0889,-3.0889,-3.0889,0.0,0.0,-2.723,-2.573,0.0,0.0,0.0,0.0,0.0,0.0,0.0,0.0,0.0,-2.4368,-2.3753,-2.2957,-2.2246,-2.1506,0.0,0.0,0.0,0.0,0.0,0.0,0.0,0.0,0.0,0.0,0.0,0.0,0.0,-2.5913,-2.6017,-2.5674,-2.6233,-2.6568,-2.6615,-2.677,-2.7009,-2.7309,-2.7309,-2.7309,-2.7309,-2.7417,-2.7645,-2.7945,-2.8255,-2.8742,-2.9321,-2.9477,-2.9715,-2.9994,-2.9994,-2.9994,-2.9994,-2.9994,-2.9994,-2.9994,-2.9994,-2.9994,-3.0025,-3.018,-3.0439,-3.0739,-3.105,-3.1567,-3.2019,-3.2173,-3.2432,-3.2669,-3.2487,-3.243,-3.2315,-3.1787,-3.1614,-3.1508,-3.1112,-3.1054,-3.1005,-3.0889,-3.0889,-3.0889,-3.0889,-3.0889,-3.0889,-3.0889,-3.0889,-3.0889,-3.0889,-3.0889,-3.0889,-3.0889,-3.0889,-3.0889,-3.0889,-3.0889,-3.0889,-3.0889,-3.0889,-3.0889,-3.0889,-3.0889,-3.0889,-3.0889,-3.0889,-3.0889,-3.0889,-3.0889,-3.0889,-3.0889,-3.0889,-3.0889,-2.5263,-2.6205,0.0,-2.5782,-2.5716,0.0,-2.397,0.0,0.0,0.0,0.0,0.0,0.0,0.0,-2.4318,-2.3534,-2.251,-2.1443,0.0,-2.0032,0.0,0.0,0.0,0.0,0.0,0.0,-2.2292,-2.362,0.0,0.0,0.0,0.0,-2.529,-2.541,-2.5806,-2.6047,-2.6082,-2.6413,-2.677,-2.7061,-2.7226,-2.7309,-2.7309,-2.7309,-2.7417,-2.7696,-2.7852,-2.8266,-2.8835,-2.9166,-2.9477,-2.9766,-2.9932,-2.9994,-2.9994,-2.9994,-2.9994,-2.9994,-2.9994,-2.9994,-2.9994,-2.9994,-3.0191,-3.047,-3.0636,-3.1091,-3.1629,-3.1895,-3.2194,-3.2463,-3.2446,-3.2363,-3.2133,-3.1614,-3.1383,-3.1218,-3.0947,-3.0889,-3.0889,-3.0889,-3.0889,-3.0889,-3.0889,-3.0889,-3.0889,-3.0889,-3.0889,-3.0889,-3.0889,-3.0889,-3.0889,-3.0889,-3.0889,-3.0889,-3.0889,-3.0889,-3.0889,-3.0889,-3.0889,-3.0889,-3.0889,-3.0889,-3.0889,-3.0889,-3.0889,-3.0889,-3.0889,-3.0889,-3.0889,-3.0889,-3.0889,-3.0889]},{"header":{"parameterUnit":"m.s-1","parameterCategory":1,"la1":30.6,"la2":29.2853,"lo1":-89.7004,"lo2":-87.6739,"dy":0.0162,"dx":0.0183,"nx":112,"ny":82,"refTime":"2024-06-24T00:00:00:Z","depth":0,"parameterNumber":3,"parameterNumberName":"V-component_of_WINDS"},"data":[0.0,0.0,0.0,0.0,0.0,0.0,0.0,0.0,0.0,0.0,0.0,0.0,0.0,0.0,0.0,0.0,0.0,0.0,0.0,0.0,0.0,0.0,0.0,0.0,0.0,0.0,0.0,0.0,0.0,0.0,0.0,0.0,0.0,0.0,0.0,0.0,0.0,0.0,0.0,0.0,0.0,0.0,0.0,0.0,0.0,0.0,0.0,0.0,0.0,0.0,0.0,0.0,0.0,0.0,0.0,0.0,0.0,0.0,0.0,0.0,0.0,0.0,0.0,0.0,0.0,0.0,0.0,0.0,0.0,0.0,0.0,0.0,0.0,0.0,0.0,0.0,0.0,0.0,0.0,0.0,0.0,0.0,0.0,0.0,0.0,0.0,0.0,0.0,0.0,0.0,-3.1414,-3.2307,-3.4042,-3.5606,-3.6694,-3.5676,-3.3629,-3.0403,0.0,0.0,0.0,0.0,0.0,0.0,0.0,0.0,0.0,0.0,0.0,0.0,0.0,0.0,0.0,0.0,0.0,0.0,0.0,0.0,0.0,0.0,0.0,0.0,0.0,0.0,0.0,0.0,0.0,0.0,0.0,0.0,0.0,0.0,0.0,0.0,0.0,0.0,0.0,0.0,0.0,0.0,0.0,0.0,0.0,0.0,0.0,0.0,0.0,0.0,0.0,0.0,0.0,0.0,0.0,0.0,0.0,0.0,0.0,0.0,0.0,0.0,0.0,0.0,0.0,0.0,0.0,0.0,0.0,0.0,0.0,0.0,0.0,0.0,0.0,0.0,0.0,0.0,0.0,0.0,0.0,0.0,0.0,0.0,0.0,0.0,0.0,0.0,0.0,0.0,0.0,0.0,0.0,0.0,0.0,0.0,0.0,0.0,0.0,0.0,0.0,0.0,0.0,0.0,-3.1382,-3.5111,-3.594,-3.6268,-3.6293,-3.5758,-3.4302,-3.1753,0.0,0.0,0.0,0.0,0.0,0.0,0.0,0.0,0.0,0.0,0.0,0.0,0.0,0.0,0.0,0.0,0.0,0.0,0.0,0.0,0.0,0.0,0.0,0.0,0.0,0.0,0.0,0.0,0.0,0.0,0.0,0.0,0.0,0.0,0.0,0.0,0.0,0.0,0.0,0.0,0.0,0.0,0.0,0.0,0.0,0.0,0.0,0.0,0.0,0.0,0.0,0.0,0.0,0.0,0.0,0.0,0.0,0.0,0.0,0.0,0.0,0.0,0.0,0.0,0.0,0.0,0.0,0.0,0.0,0.0,0.0,0.0,0.0,0.0,0.0,0.0,0.0,0.0,0.0,0.0,0.0,0.0,0.0,0.0,0.0,0.0,0.0,0.0,0.0,0.0,0.0,0.0,0.0,0.0,0.0,0.0,0.0,0.0,0.0,0.0,0.0,0.0,0.0,-3.0845,-3.2532,-3.6425,-3.6313,-3.607,-3.6347,-3.5845,-3.4104,-3.0846,-2.9143,0.0,0.0,0.0,0.0,0.0,0.0,0.0,0.0,0.0,0.0,0.0,0.0,0.0,0.0,0.0,0.0,0.0,0.0,0.0,0.0,0.0,0.0,0.0,0.0,0.0,0.0,0.0,0.0,0.0,0.0,0.0,0.0,0.0,0.0,0.0,0.0,0.0,0.0,0.0,0.0,0.0,0.0,0.0,0.0,0.0,0.0,0.0,0.0,0.0,0.0,0.0,0.0,0.0,0.0,0.0,0.0,0.0,0.0,0.0,0.0,0.0,0.0,0.0,0.0,0.0,0.0,0.0,0.0,0.0,0.0,0.0,0.0,0.0,0.0,0.0,0.0,0.0,0.0,0.0,0.0,0.0,0.0,0.0,0.0,0.0,0.0,0.0,0.0,0.0,0.0,0.0,0.0,0.0,0.0,0.0,0.0,0.0,0.0,0.0,0.0,0.0,0.0,-3.2956,-3.383,-3.6638,-3.6067,-3.5714,-3.6207,-3.5355,-3.3366,-2.9952,-2.8172,0.0,0.0,0.0,0.0,0.0,0.0,0.0,0.0,0.0,0.0,0.0,0.0,0.0,0.0,0.0,0.0,0.0,0.0,0.0,0.0,0.0,0.0,0.0,0.0,0.0,0.0,0.0,0.0,0.0,0.0,0.0,0.0,0.0,0.0,0.0,0.0,0.0,0.0,0.0,0.0,0.0,0.0,0.0,0.0,0.0,0.0,0.0,0.0,0.0,0.0,0.0,0.0,0.0,0.0,0.0,0.0,0.0,0.0,0.0,0.0,0.0,0.0,0.0,0.0,0.0,0.0,0.0,0.0,0.0,0.0,0.0,0.0,0.0,0.0,0.0,0.0,0.0,0.0,0.0,0.0,0.0,0.0,0.0,0.0,0.0,0.0,0.0,0.0,0.0,0.0,0.0,0.0,0.0,0.0,0.0,0.0,0.0,0.0,0.0,0.0,0.0,0.0,-3.2974,-3.467,-3.5539,-3.5567,-3.5534,-3.5564,-3.3814,-3.1968,-3.0254,-2.6814,0.0,0.0,0.0,0.0,0.0,0.0,0.0,0.0,0.0,0.0,0.0,0.0,0.0,0.0,0.0,0.0,0.0,0.0,0.0,0.0,0.0,0.0,0.0,0.0,0.0,0.0,0.0,0.0,0.0,0.0,0.0,0.0,0.0,0.0,0.0,0.0,0.0,0.0,0.0,0.0,0.0,0.0,0.0,0.0,0.0,0.0,0.0,0.0,0.0,0.0,0.0,0.0,0.0,0.0,0.0,0.0,0.0,0.0,0.0,0.0,0.0,0.0,0.0,0.0,0.0,0.0,0.0,0.0,0.0,0.0,0.0,0.0,0.0,0.0,0.0,0.0,0.0,0.0,0.0,0.0,0.0,0.0,0.0,0.0,0.0,0.0,0.0,0.0,0.0,0.0,0.0,0.0,0.0,0.0,0.0,0.0,0.0,0.0,0.0,0.0,0.0,0.0,-3.3419,-3.529,0.0,-3.6321,-3.6053,-3.6053,-3.4957,-3.3084,-3.0379,0.0,0.0,0.0,0.0,0.0,0.0,0.0,0.0,0.0,0.0,0.0,0.0,0.0,0.0,0.0,0.0,0.0,0.0,0.0,0.0,0.0,0.0,0.0,0.0,0.0,0.0,0.0,0.0,0.0,0.0,0.0,0.0,0.0,0.0,0.0,0.0,0.0,0.0,0.0,0.0,0.0,0.0,0.0,0.0,0.0,0.0,0.0,0.0,0.0,0.0,0.0,0.0,0.0,0.0,0.0,0.0,0.0,0.0,0.0,0.0,0.0,0.0,0.0,0.0,0.0,0.0,0.0,0.0,0.0,0.0,0.0,0.0,0.0,0.0,0.0,0.0,0.0,0.0,0.0,0.0,0.0,0.0,0.0,0.0,0.0,0.0,0.0,0.0,0.0,0.0,0.0,0.0,0.0,0.0,0.0,0.0,0.0,0.0,0.0,0.0,0.0,0.0,-3.1474,-3.4137,-3.6166,0.0,-3.6981,-3.6723,-3.6723,-3.5289,-3.3195,-3.0325,0.0,0.0,0.0,0.0,0.0,0.0,0.0,0.0,0.0,0.0,0.0,0.0,0.0,0.0,0.0,0.0,0.0,0.0,0.0,0.0,0.0,0.0,0.0,0.0,0.0,0.0,0.0,0.0,0.0,0.0,0.0,0.0,0.0,0.0,0.0,0.0,0.0,0.0,0.0,0.0,0.0,0.0,0.0,0.0,0.0,0.0,0.0,0.0,0.0,0.0,0.0,0.0,0.0,0.0,0.0,0.0,0.0,0.0,0.0,0.0,0.0,0.0,0.0,0.0,0.0,0.0,0.0,0.0,0.0,0.0,0.0,0.0,0.0,0.0,0.0,0.0,0.0,0.0,0.0,0.0,0.0,0.0,0.0,0.0,0.0,0.0,0.0,0.0,0.0,0.0,0.0,0.0,0.0,0.0,0.0,0.0,0.0,0.0,0.0,0.0,0.0,0.0,-3.1604,-3.5095,-3.7429,-3.7429,-3.7429,-3.7399,-3.7399,-3.4407,-3.1809,0.0,0.0,0.0,0.0,0.0,0.0,0.0,0.0,0.0,0.0,0.0,0.0,0.0,0.0,0.0,0.0,0.0,0.0,0.0,0.0,0.0,0.0,0.0,0.0,0.0,0.0,0.0,0.0,0.0,0.0,0.0,0.0,0.0,0.0,0.0,0.0,0.0,0.0,0.0,0.0,0.0,0.0,0.0,0.0,0.0,0.0,0.0,0.0,0.0,0.0,0.0,0.0,0.0,0.0,0.0,0.0,0.0,0.0,0.0,0.0,0.0,0.0,0.0,0.0,0.0,0.0,0.0,0.0,0.0,0.0,0.0,0.0,0.0,0.0,0.0,0.0,0.0,0.0,0.0,0.0,0.0,0.0,0.0,0.0,0.0,0.0,0.0,0.0,0.0,0.0,0.0,0.0,0.0,0.0,0.0,0.0,0.0,0.0,0.0,0.0,0.0,0.0,0.0,-3.2251,-3.6128,-3.8733,-3.8733,-3.8311,-3.8023,-3.8023,-3.6185,-3.3738,-3.0686,0.0,0.0,0.0,0.0,0.0,0.0,0.0,0.0,0.0,0.0,0.0,0.0,0.0,0.0,0.0,0.0,0.0,0.0,0.0,0.0,0.0,0.0,0.0,0.0,0.0,0.0,0.0,0.0,0.0,0.0,0.0,0.0,0.0,0.0,0.0,0.0,0.0,0.0,0.0,0.0,0.0,0.0,0.0,0.0,0.0,0.0,0.0,0.0,0.0,0.0,0.0,0.0,0.0,0.0,0.0,0.0,0.0,0.0,0.0,0.0,0.0,0.0,0.0,0.0,0.0,0.0,0.0,0.0,0.0,0.0,0.0,0.0,0.0,0.0,0.0,0.0,0.0,0.0,0.0,0.0,0.0,0.0,0.0,0.0,0.0,0.0,0.0,0.0,0.0,0.0,0.0,0.0,0.0,0.0,0.0,0.0,0.0,0.0,0.0,0.0,0.0,0.0,-3.2497,-3.6564,-3.9299,-3.9299,-3.8925,-3.8717,-3.8717,-3.7395,-3.514,-3.171,0.0,0.0,0.0,0.0,0.0,0.0,0.0,0.0,0.0,0.0,0.0,0.0,0.0,0.0,0.0,0.0,0.0,0.0,0.0,0.0,0.0,0.0,0.0,0.0,0.0,0.0,0.0,0.0,0.0,0.0,0.0,0.0,0.0,0.0,0.0,0.0,0.0,0.0,0.0,0.0,0.0,0.0,0.0,0.0,0.0,0.0,0.0,0.0,0.0,0.0,0.0,0.0,0.0,0.0,0.0,0.0,0.0,0.0,0.0,0.0,0.0,0.0,0.0,0.0,0.0,0.0,0.0,0.0,0.0,0.0,0.0,0.0,0.0,0.0,0.0,0.0,0.0,0.0,0.0,0.0,0.0,0.0,0.0,0.0,0.0,0.0,0.0,0.0,0.0,0.0,0.0,0.0,0.0,0.0,0.0,0.0,0.0,0.0,0.0,0.0,0.0,0.0,-3.2497,-3.6564,-3.9299,-3.9299,-3.9299,-3.9299,-3.9299,-3.8117,-3.6065,-3.2988,0.0,0.0,0.0,0.0,0.0,0.0,0.0,0.0,0.0,0.0,0.0,0.0,0.0,0.0,0.0,0.0,0.0,0.0,0.0,0.0,0.0,0.0,0.0,0.0,0.0,0.0,0.0,0.0,0.0,0.0,0.0,0.0,0.0,0.0,0.0,0.0,0.0,0.0,0.0,0.0,0.0,0.0,0.0,0.0,0.0,0.0,0.0,0.0,0.0,0.0,0.0,0.0,0.0,0.0,0.0,0.0,0.0,0.0,0.0,0.0,-2.7142,0.0,0.0,0.0,0.0,0.0,0.0,0.0,0.0,0.0,0.0,0.0,0.0,0.0,0.0,0.0,0.0,0.0,0.0,0.0,0.0,0.0,0.0,0.0,0.0,0.0,0.0,0.0,0.0,0.0,0.0,0.0,0.0,0.0,0.0,0.0,0.0,0.0,0.0,0.0,0.0,0.0,-3.2497,-3.6564,-3.9299,-3.9299,-3.9299,-3.9299,-3.9299,-3.8504,-3.6727,-3.3756,-3.1379,0.0,0.0,0.0,0.0,0.0,0.0,0.0,0.0,0.0,0.0,0.0,0.0,0.0,0.0,0.0,0.0,0.0,0.0,0.0,0.0,0.0,0.0,0.0,0.0,0.0,0.0,0.0,0.0,0.0,0.0,0.0,0.0,0.0,0.0,0.0,0.0,0.0,0.0,0.0,0.0,0.0,0.0,0.0,0.0,0.0,0.0,0.0,0.0,0.0,0.0,0.0,0.0,0.0,0.0,0.0,0.0,0.0,0.0,0.0,0.0,-2.9247,0.0,0.0,0.0,0.0,0.0,0.0,0.0,0.0,0.0,0.0,0.0,0.0,0.0,0.0,0.0,0.0,0.0,0.0,0.0,0.0,0.0,0.0,0.0,0.0,0.0,0.0,0.0,0.0,0.0,0.0,0.0,0.0,0.0,0.0,0.0,0.0,0.0,0.0,0.0,0.0,-3.305,-3.6846,-3.9395,-3.9395,-3.9458,-3.9494,-3.9494,-3.9135,-3.7952,-3.5728,-3.3489,0.0,0.0,0.0,0.0,0.0,0.0,0.0,0.0,0.0,0.0,0.0,0.0,0.0,0.0,0.0,0.0,0.0,0.0,0.0,0.0,0.0,0.0,0.0,0.0,0.0,0.0,0.0,0.0,0.0,0.0,0.0,0.0,0.0,0.0,0.0,0.0,0.0,0.0,0.0,0.0,0.0,0.0,0.0,0.0,0.0,0.0,0.0,0.0,0.0,0.0,0.0,0.0,0.0,-3.5415,-3.6417,-3.7955,-3.752,-3.7317,-3.7172,-3.4516,-3.3224,-3.2875,-3.1132,0.0,0.0,0.0,0.0,0.0,0.0,0.0,0.0,0.0,0.0,0.0,0.0,0.0,0.0,0.0,0.0,0.0,0.0,0.0,0.0,0.0,0.0,0.0,0.0,-3.798,-3.7566,0.0,0.0,0.0,0.0,0.0,0.0,0.0,0.0,0.0,0.0,0.0,0.0,-3.4154,-3.7469,-3.9658,-3.9701,-3.9773,-3.9811,-3.972,-3.9703,-3.9134,-3.7794,-3.5867,-3.3845,0.0,0.0,0.0,0.0,0.0,0.0,0.0,0.0,0.0,0.0,0.0,0.0,0.0,0.0,0.0,0.0,0.0,0.0,0.0,0.0,0.0,0.0,0.0,0.0,0.0,0.0,0.0,0.0,0.0,0.0,0.0,0.0,-2.0349,-2.2222,0.0,0.0,0.0,0.0,0.0,0.0,0.0,0.0,0.0,0.0,0.0,0.0,0.0,-3.4037,-3.6272,-3.6983,-3.7447,-3.7723,-3.9407,-4.035,-4.0612,-4.1105,-4.1337,-4.1308,-4.0887,0.0,-3.4956,-3.4109,0.0,0.0,0.0,0.0,0.0,0.0,0.0,0.0,0.0,0.0,0.0,0.0,0.0,0.0,0.0,0.0,0.0,0.0,0.0,0.0,0.0,0.0,-4.1463,-4.0845,-4.1314,-4.1409,0.0,-3.552,-3.2282,-3.1923,-3.0294,0.0,0.0,0.0,0.0,0.0,0.0,0.0,-3.6307,-3.8785,-4.0315,-4.044,-4.0467,-4.0264,-3.9728,-3.9703,-3.9352,-3.8505,-3.7568,-3.6417,-3.4947,-3.2715,0.0,0.0,0.0,0.0,0.0,0.0,0.0,0.0,0.0,0.0,0.0,0.0,0.0,0.0,0.0,0.0,0.0,0.0,0.0,0.0,0.0,0.0,0.0,0.0,0.0,0.0,0.0,0.0,0.0,-2.0896,-2.3664,-2.4415,-2.5092,-2.5192,0.0,0.0,0.0,0.0,0.0,0.0,0.0,0.0,0.0,-3.604,-3.6504,-3.7578,-3.9421,-4.0075,-4.0742,-4.1468,-4.1932,-4.2528,-4.3224,-4.3181,-4.3166,-4.3166,-4.3166,-4.1831,-3.9562,-3.781,-3.6185,-3.4646,0.0,0.0,0.0,0.0,-3.4463,-3.4801,-3.7157,-3.7467,0.0,-3.7058,0.0,0.0,0.0,0.0,0.0,0.0,0.0,0.0,0.0,0.0,0.0,-4.323,-4.3827,-4.4191,-4.3562,-4.1011,-3.8112,0.0,-3.4402,-3.2845,-3.0063,0.0,0.0,0.0,0.0,-3.5794,-3.75,-3.9771,-4.1271,-4.1326,-4.1077,-4.0824,-4.0566,-4.0171,-3.98,-3.9463,-3.8756,-3.8089,-3.7496,-3.5262,-3.2887,0.0,0.0,0.0,0.0,0.0,0.0,0.0,0.0,0.0,0.0,0.0,0.0,0.0,0.0,0.0,0.0,0.0,0.0,0.0,0.0,0.0,0.0,0.0,0.0,0.0,0.0,0.0,0.0,-2.3706,-2.6139,-2.6575,-2.7787,-2.8134,0.0,0.0,0.0,0.0,0.0,0.0,-3.4608,-3.543,-3.6968,-3.9349,-3.9915,-4.0786,-4.2049,-4.2411,-4.3137,-4.4211,-4.3718,-4.4066,-4.5126,-4.4676,-4.4472,-4.4472,-4.4472,-4.4095,-4.3297,-4.0916,-3.9276,-3.8173,-3.7208,-3.6913,-3.7184,-3.8506,-3.8906,-3.918,-4.1972,-4.2324,-4.1502,-4.1306,0.0,-3.9348,-3.7635,0.0,0.0,0.0,0.0,-4.1055,-4.2651,-4.3761,-4.4556,-4.4887,-4.5533,-4.603,-4.5831,-4.4937,-4.3069,0.0,-3.8328,-3.6837,-3.3359,0.0,0.0,0.0,0.0,-3.8063,-3.9146,-4.0967,-4.2133,-4.2189,-4.1735,-4.1371,-4.1221,-4.051,-4.0096,-4.0096,-3.9588,-3.9276,-3.9276,-3.7466,-3.5419,-3.3186,0.0,0.0,0.0,0.0,0.0,0.0,0.0,0.0,0.0,0.0,0.0,0.0,0.0,0.0,0.0,0.0,0.0,0.0,0.0,0.0,0.0,0.0,0.0,0.0,0.0,0.0,0.0,0.0,0.0,-2.9189,-3.0523,0.0,0.0,0.0,0.0,-3.3111,-3.4419,-3.5988,-3.7854,-3.9146,-4.0713,-4.2687,-4.2774,-4.3413,-4.469,-4.4153,-4.4211,-4.4835,-4.4806,-4.5155,-4.5837,-4.5808,-4.5779,-4.5779,-4.5779,-4.5401,-4.4647,-4.2731,-4.1541,-4.0844,-4.0133,-4.0144,-4.0636,-4.1481,-4.2414,-4.3423,-4.442,-4.4691,-4.4772,-4.6106,-4.5074,-4.332,-4.3201,-4.2208,0.0,0.0,-4.3313,-4.444,-4.4556,-4.5649,-4.656,-4.5897,-4.6295,-4.6643,-4.5947,-4.5732,-4.5202,0.0,-4.1624,-3.9945,-3.9017,0.0,-3.8146,-3.8768,-3.905,-3.9934,-4.2009,-4.2563,-4.2801,-4.2925,-4.241,-4.1805,-4.1245,-4.051,-4.0096,-4.0096,-4.0079,-4.0045,-4.0045,-3.9242,-3.7753,-3.5481,-3.251,0.0,0.0,0.0,0.0,0.0,0.0,0.0,0.0,0.0,0.0,0.0,0.0,0.0,0.0,0.0,0.0,0.0,0.0,0.0,0.0,0.0,0.0,0.0,0.0,0.0,0.0,0.0,0.0,-3.2452,-3.3819,0.0,-3.4283,-3.4849,-3.5778,-3.7056,-3.7941,-3.9247,-4.1178,-4.1715,-4.2644,-4.4153,-4.4211,-4.4632,-4.5518,-4.5314,-4.5314,-4.5532,-4.5532,-4.5648,-4.588,-4.588,-4.588,-4.588,-4.588,-4.575,-4.5474,-4.4806,-4.4139,-4.3514,-4.3153,-4.3375,-4.3962,-4.4719,-4.5195,-4.5711,-4.7068,-4.7531,-4.7584,-4.8133,-4.7139,-4.5732,-4.5732,-4.5036,-4.439,-4.5135,-4.5715,-4.6228,-4.6692,-4.7206,-4.7537,-4.7272,-4.7421,-4.7537,-4.7272,-4.6841,-4.6344,-4.5831,-4.3976,-4.2088,-4.0862,-4.0431,-4.005,-3.9398,-4.0464,-4.1669,-4.2579,-4.3256,-4.3683,-4.3821,-4.2867,-4.2132,-4.1931,-4.0807,-4.0096,-4.0096,-3.9656,-3.9402,-3.9402,-3.8684,-3.7449,-3.5633,-3.3643,-3.1021,0.0,0.0,0.0,0.0,0.0,0.0,0.0,0.0,0.0,0.0,0.0,0.0,0.0,0.0,0.0,0.0,0.0,0.0,0.0,0.0,0.0,0.0,0.0,0.0,0.0,0.0,-3.2803,-3.453,-3.6243,-3.7288,-3.7288,-3.8072,-3.9117,-4.0379,-4.0844,-4.1816,-4.3544,-4.3631,-4.4124,-4.5184,-4.5227,-4.5445,-4.588,-4.588,-4.588,-4.588,-4.588,-4.588,-4.588,-4.588,-4.588,-4.588,-4.588,-4.588,-4.588,-4.588,-4.5619,-4.5228,-4.5185,-4.5476,-4.6032,-4.6817,-4.7364,-4.7872,-4.9277,-4.9605,-4.9398,-4.9438,-4.8812,-4.8017,-4.8017,-4.7669,-4.7388,-4.7885,-4.8017,-4.8067,-4.8315,-4.8382,-4.8315,-4.8067,-4.8001,-4.8001,-4.8001,-4.762,-4.7272,-4.7272,-4.5698,-4.4042,-4.3065,-4.2684,-4.2204,-4.1271,-4.2195,-4.3032,-4.3165,-4.3738,-4.4196,-4.431,-4.332,-4.2574,-4.2303,-4.117,-4.0367,-4.013,-3.9656,-3.9385,-3.9385,-3.843,-3.7432,-3.6394,-3.4421,-3.2188,-2.9738,0.0,0.0,0.0,0.0,0.0,0.0,0.0,0.0,0.0,0.0,0.0,0.0,0.0,0.0,0.0,0.0,0.0,0.0,0.0,0.0,0.0,0.0,0.0,-2.971,-3.193,-3.4099,-3.5392,-3.7752,-3.9305,-3.932,-4.0452,-4.17,-4.2963,-4.305,-4.3602,-4.485,-4.4922,-4.5213,-4.5866,-4.588,-4.588,-4.588,-4.5909,-4.5924,-4.5924,-4.5924,-4.5924,-4.5924,-4.5895,-4.588,-4.588,-4.588,-4.588,-4.588,-4.588,-4.588,-4.5925,-4.6135,-4.6403,-4.6756,-4.7858,-4.8948,-5.0023,-5.0998,-5.0866,-5.0286,-5.0286,-5.027,-5.0237,-5.0237,-5.0237,-5.022,-5.022,-5.022,-5.0055,-4.9326,-4.9144,-4.8961,-4.8216,-4.8034,-4.8034,-4.8001,-4.8001,-4.8001,-4.8001,-4.6841,-4.5847,-4.5831,-4.5202,-4.4721,-4.4721,-4.4291,0.0,-4.3931,-4.4143,-4.431,-4.431,-4.3748,-4.3115,-4.2388,-4.1644,-4.0899,-4.018,-4.0096,-4.0079,-4.0079,-3.8667,-3.7905,-3.7905,-3.4979,-3.2763,-3.1292,0.0,0.0,0.0,0.0,0.0,0.0,0.0,0.0,0.0,0.0,0.0,0.0,0.0,0.0,0.0,0.0,0.0,0.0,0.0,0.0,0.0,-3.0696,-3.2614,-3.2298,-3.4549,-3.6881,-3.8594,-4.0278,-4.1468,-4.1903,-4.2702,-4.3529,-4.4313,-4.4371,-4.4734,-4.5561,-4.5619,-4.5692,-4.588,-4.588,-4.588,-4.588,-4.633,-4.6563,-4.6563,-4.6563,-4.6563,-4.6563,-4.6098,-4.588,-4.588,-4.588,-4.588,-4.588,-4.588,-4.588,-4.5925,-4.6328,-4.6901,-4.7619,-4.8866,-5.0368,-5.1696,-5.1982,-5.1943,-5.1794,-5.1794,-5.1413,-5.0982,-5.0982,-5.0618,-5.022,-5.022,-5.022,-5.0171,-4.9955,-4.9906,-4.9723,-4.8978,-4.8812,-4.8647,-4.8117,-4.8001,-4.8001,-4.8001,-4.7669,-4.7222,-4.6692,-4.598,-4.5483,-4.5483,-4.4931,0.0,-4.4617,-4.4357,-4.4196,-4.431,-4.3748,-4.3308,-4.3115,-4.1931,-4.1119,-4.0916,-3.9884,-3.9317,-3.9317,-3.8396,-3.7905,-3.7905,-3.5988,-3.4539,0.0,0.0,0.0,0.0,0.0,0.0,0.0,0.0,0.0,0.0,0.0,0.0,0.0,0.0,0.0,0.0,0.0,0.0,0.0,0.0,0.0,0.0,-3.3742,-3.5633,-3.6085,-3.7498,-3.9088,-4.0742,-4.1845,-4.2818,-4.3703,-4.4139,-4.4632,-4.5256,-4.53,-4.5474,-4.5866,-4.6142,-4.6287,-4.6287,-4.6534,-4.6679,-4.6679,-4.7042,-4.723,-4.723,-4.723,-4.723,-4.7216,-4.6853,-4.6679,0.0,-4.6679,-4.6534,-4.6287,-4.6378,-4.6263,0.0,0.0,0.0,0.0,0.0,-5.0653,-5.1908,-5.2266,-5.2409,-5.2409,-5.2409,-5.2127,-5.1779,-5.1779,-5.1446,-5.1115,-5.1115,-5.1115,-5.1048,-5.0734,-5.0651,-5.0469,-4.9756,-4.9326,-4.8995,-4.8547,-4.8216,-4.8001,-4.8001,0.0,0.0,-4.7438,-4.6742,-4.6245,-4.6245,-4.5678,-4.5258,-4.5349,-4.4942,-4.4666,-4.4735,-4.4266,-4.3775,-4.3426,-4.2598,0.0,0.0,0.0,-3.9512,-3.8582,-3.843,0.0,0.0,0.0,0.0,0.0,0.0,0.0,0.0,-3.5893,-3.6208,0.0,0.0,0.0,0.0,0.0,0.0,0.0,0.0,0.0,0.0,0.0,0.0,0.0,0.0,0.0,0.0,-3.6867,-3.8942,-4.0162,-4.0437,-4.0945,-4.2063,-4.2789,-4.3645,-4.4777,-4.4951,-4.5242,-4.5837,-4.588,-4.5924,-4.5996,0.0,0.0,0.0,0.0,-4.7782,-4.7782,-4.7854,-4.7883,-4.7883,-4.7883,-4.7883,-4.7883,-4.7811,-4.7782,-4.7782,-4.7782,-4.7462,-4.694,-4.7184,-4.6881,-4.6402,-4.6771,-4.696,-4.7206,-4.9327,-5.0576,-5.1359,-5.2142,0.0,0.0,-5.2409,-5.2409,-5.2409,-5.2409,-5.2409,-5.2409,-5.2409,-5.2409,-5.226,-5.1597,-5.1431,-5.1231,-5.0502,-4.9823,-4.9326,-4.9243,-4.8647,-4.8117,-4.8117,-4.8067,-4.8001,-4.8001,-4.7454,-4.7023,-4.7023,-4.6504,-4.6098,-4.6129,-4.5755,-4.5492,-4.5408,0.0,0.0,-4.3606,-4.3443,-4.2834,-4.1542,-4.1373,-4.0443,-3.8481,-3.9022,-3.9056,-3.8413,-3.969,-4.0688,-4.1339,-4.2066,-4.2455,-4.2455,-3.8396,-3.8253,0.0,0.0,0.0,0.0,0.0,0.0,0.0,0.0,0.0,0.0,0.0,0.0,0.0,0.0,0.0,-3.6381,-3.8884,-4.08,-4.1599,-4.2586,-4.3137,-4.2861,-4.3834,-4.4618,-4.4864,-4.5372,-4.575,-4.588,-4.588,-4.6113,-4.6621,-4.672,0.0,-4.7579,-4.7724,-4.7782,-4.7782,-4.829,-4.8551,-4.8551,0.0,0.0,-4.8522,-4.8014,-4.7782,-4.7782,-4.7782,-4.7709,-4.7593,-4.764,-4.7493,-4.7347,-4.8492,-4.9044,-4.9407,-5.1215,-5.2017,-5.2178,-5.2338,-5.2409,-5.2409,-5.2409,-5.2409,-5.2409,-5.2409,-5.2409,0.0,-5.2409,-5.2409,-5.2393,-5.2243,-5.221,-5.2011,-5.1282,-5.1,-5.0701,-5.0121,-4.9425,-4.8895,-4.8895,-4.8415,-4.8001,-4.8001,-4.7885,-4.7785,-4.7785,-4.7188,-4.6771,-4.6962,-4.6497,-4.5928,-4.5454,-4.5448,-4.5179,-4.4418,-4.3775,-4.3274,-4.2987,-4.2422,-4.1897,-4.1457,-4.1576,-4.1593,-4.1441,-4.1728,-4.1931,-4.2083,-4.2828,-4.3521,-4.4124,-4.2608,-4.2277,0.0,0.0,0.0,0.0,0.0,0.0,0.0,0.0,0.0,0.0,0.0,-3.1492,-3.3151,0.0,-3.6983,-3.9334,-4.0771,-4.1932,-4.2905,-4.3848,-4.4313,-4.3979,-4.4501,-4.5024,-4.5358,-4.5692,-4.588,-4.588,-4.6185,-4.649,-4.6763,-4.7387,-4.7927,-4.8246,-4.8566,-4.8725,-4.8725,-4.9045,-4.9204,-4.9204,-4.9204,-4.9204,-4.919,-4.887,-4.8725,-4.8725,-4.8725,-4.8551,-4.8232,-4.8194,-4.8051,-4.8015,-4.909,-4.964,-4.99,-5.0767,-5.1655,-5.2409,-5.2409,-5.2409,-5.2409,-5.2409,-5.2409,-5.2409,-5.2409,-5.2409,-5.2409,-5.2409,-5.2409,-5.2409,-5.2409,-5.2409,-5.2326,-5.1962,-5.158,-5.1216,-5.0817,-5.0171,-4.9657,-4.9657,-4.9061,-4.8547,-4.8547,-4.8249,-4.8001,-4.8001,-4.7686,-4.7519,-4.7679,-4.7187,-4.6753,-4.6518,-4.6038,-4.5551,-4.5179,-4.4079,-4.3392,-4.3392,-4.2709,-4.2286,-4.2286,-4.2286,-4.2286,-4.2286,-4.3047,-4.3464,-4.3464,-4.4553,-4.5314,-4.5715,-4.5686,-4.564,0.0,0.0,0.0,0.0,0.0,0.0,0.0,0.0,-3.0045,-3.093,-3.2962,-3.5087,-3.6591,-3.8014,-3.9654,-4.1758,-4.2397,-4.2992,-4.4023,-4.469,-4.5082,-4.5082,-4.5082,-4.53,-4.5837,-4.588,-4.5938,-4.6069,-4.6548,-4.6894,-4.714,-4.8126,-4.8783,-4.8899,-4.9407,-4.9717,-4.9717,-4.9799,-4.9799,-4.9717,-4.9799,-4.9848,-4.9717,-4.9717,-4.9717,-4.9717,-4.9717,-4.9378,-4.8856,-4.8703,-4.8591,-4.8596,-4.9349,-4.9771,-4.9995,-5.0026,-5.1048,-5.2409,-5.2409,-5.2409,-5.2409,-5.2409,-5.2409,-5.2409,-5.2409,-5.2409,-5.2409,-5.2409,-5.2409,-5.2409,-5.2409,-5.2409,-5.2409,-5.2409,-5.1962,-5.1531,-5.1531,-5.0916,-5.0419,-5.0419,-4.9823,-4.9276,-4.9127,-4.8614,-4.8166,-4.8017,-4.8001,-4.8049,-4.8227,-4.7887,-4.7625,-4.7659,-4.6748,-4.6024,-4.572,-4.4542,-4.3809,-4.3656,-4.3081,-4.277,-4.277,-4.2878,-4.2946,-4.2946,-4.4327,-4.5038,-4.5038,-4.6346,-4.7005,-4.7022,-4.7784,-4.8054,-2.3477,-2.4875,-2.6412,-2.7821,-2.8321,-2.9493,0.0,0.0,-3.4283,-3.6083,-3.7578,-3.8623,-3.8841,-4.0408,-4.1758,-4.2049,-4.3485,-4.4618,-4.4763,-4.5358,-4.5779,-4.5779,-4.5779,-4.5808,-4.588,-4.588,-4.6113,-4.6633,-4.6749,-4.7271,-4.8402,-4.8605,-4.8986,-4.9553,-4.964,-4.9717,-4.9717,-5.0313,-5.0313,-4.9732,-5.0328,-5.0299,-4.9717,-4.9717,-4.9717,-4.9717,-4.9717,-4.964,-4.9572,-4.9187,-4.9148,-4.9436,-4.9939,-5.0328,-5.0698,-5.0894,-5.1582,-5.2409,-5.2409,-5.2409,-5.2409,-5.2409,-5.2409,-5.2409,-5.2409,-5.2409,-5.2409,-5.2409,-5.2409,-5.2409,-5.2409,-5.2409,-5.2409,-5.2409,-5.2359,-5.2293,-5.2293,-5.1713,-5.1199,-5.1199,-5.0585,-4.9889,-4.9226,-4.9044,-4.8763,-4.81,-4.8001,-4.8115,-4.842,-4.84,-4.8241,-4.7896,-4.7736,-4.7111,-4.5821,-4.5551,-4.5162,-4.4513,-4.4395,-4.4344,-4.4344,-4.4959,-4.5331,-4.5331,-4.6126,-4.6532,-4.6549,-4.7394,-4.78,-4.777,-4.8545,-4.8545,-2.8024,-2.8954,-2.9662,-3.1474,-3.2829,-3.4095,-3.5575,-3.6577,-3.7433,-3.8246,-3.9421,-4.0307,-4.0307,-4.157,-4.2745,0.0,-4.4153,-4.5024,-4.5416,-4.5372,-4.53,-4.53,-4.53,-4.5459,-4.5851,-4.588,-4.6142,-4.6734,-4.7172,-4.7782,-4.8634,-4.9451,-4.9799,-4.9717,-5.011,-5.0075,-4.9717,-5.0008,-5.0148,-5.0299,-5.0197,-5.0197,-5.0299,-4.9906,-4.9717,-4.9717,-4.9717,-4.9781,-4.9912,-4.9904,-5.0137,-5.0517,-5.0871,-5.1273,-5.1626,-5.17,-5.2015,-5.2409,-5.2409,-5.2409,-5.2409,-5.2409,-5.2409,-5.2409,-5.2409,-5.2409,-5.2409,-5.2409,-5.2409,-5.2409,-5.2409,-5.2409,-5.2409,-5.2409,-5.2409,-5.2409,-5.2409,-5.2177,-5.1962,-5.1962,-5.133,-5.0734,-5.0419,-5.0021,-4.9508,-4.8763,-4.8266,-4.8099,-4.8292,-4.842,-4.8341,-4.7926,-4.7889,-4.7496,-4.643,-4.6346,-4.621,-4.5889,-4.5872,-4.5872,-4.5872,-4.6177,-4.6346,-4.6346,-4.7056,-4.7445,-4.7445,-4.8189,-4.8545,-4.8578,-4.9306,-4.9475,-3.0637,-3.1593,-3.2457,-3.4216,-3.6127,-3.7476,-3.7172,-3.8463,-3.9726,-3.9726,-4.0466,-4.1149,-4.1337,-4.2121,-4.3021,-4.3848,-4.4501,-4.5111,-4.5793,-4.53,-4.4951,-4.514,-4.4995,-4.5155,-4.5822,-4.588,-4.6229,-4.7027,-4.7521,-4.813,-4.8943,-5.0061,-5.0502,-5.0008,-5.0583,-5.0699,-5.022,-5.038,-5.0627,-5.0931,-5.0452,-5.038,-5.0705,-4.9988,-4.9717,-4.9717,-4.9717,-4.9829,-5.0038,-5.0294,-5.0634,-5.1091,-5.1852,-5.213,-5.2158,-5.2638,-5.2643,-5.2409,-5.2409,-5.2409,-5.2409,-5.2409,-5.2409,-5.2409,-5.2409,-5.2409,-5.2409,-5.2409,-5.2409,-5.2409,-5.2409,-5.2409,-5.2409,-5.2409,-5.2409,-5.2409,-5.2409,-5.2409,-5.2409,-5.2409,-5.1978,-5.1547,-5.1348,-5.085,-5.0253,-4.9525,-4.8779,-4.8298,-4.8228,-4.842,-4.8457,-4.8183,-4.8193,-4.7919,-4.7175,-4.7107,-4.7022,-4.6802,-4.6786,-4.6786,-4.6786,-4.6989,-4.7107,-4.7107,-4.7834,-4.8193,-4.8193,-4.8748,-4.9001,-4.9018,-4.9746,-5.0202,-2.9525,-3.1503,-3.4063,-3.5099,-3.6765,-3.8333,-3.8971,-4.0118,-4.1033,-4.1033,-4.1076,-4.1294,-4.1947,-4.2092,-4.2528,-4.379,-4.4501,-4.5111,-4.5793,-4.53,-4.5126,-4.5779,-4.5285,-4.5155,0.0,-4.588,-4.6403,-4.7666,-4.7767,-4.8333,-4.9582,-5.0293,-5.072,-5.0691,-5.1265,-5.1585,-5.1556,-5.218,-5.218,-5.1585,-5.157,-5.1251,-5.0705,-4.9988,-4.9717,-4.9717,-4.9717,-4.9717,-4.9732,-4.999,-5.0279,-5.0728,-5.2767,-5.2838,-5.2014,-5.3787,-5.3546,-5.2409,-5.2409,-5.2409,-5.2409,-5.2409,-5.2409,-5.2409,-5.2409,-5.2409,-5.2409,-5.2409,-5.2409,-5.2409,-5.2409,-5.2409,-5.2409,-5.2409,-5.2409,-5.2409,-5.2409,-5.2409,-5.2409,-5.2409,-5.2393,-5.2161,-5.1431,-5.1299,-5.1033,-5.0286,-4.9558,-4.8879,-4.8263,-4.8549,-4.8801,-4.8784,-4.8892,-4.868,-4.7922,-4.7855,-4.7564,-4.6836,-4.6786,-4.6786,-4.6786,-4.7496,-4.7855,-4.7855,-4.8595,-4.8968,-4.8968,-4.8984,-4.9001,-4.9018,-4.9746,-5.0473,-3.3082,-3.4737,-3.6259,-3.7599,-3.903,-4.0176,-4.0408,-4.0786,-4.1091,-4.1091,-4.0423,-3.99,-4.0133,-4.0858,-4.1715,-4.2586,-4.395,-4.5111,-4.5793,-4.53,-4.4966,-4.5198,-4.5024,0.0,-4.5198,0.0,0.0,-4.768,-4.7782,-4.8522,-5.0299,-5.0946,-5.1309,-5.1309,-5.1918,-5.2049,-5.1614,-5.1831,-5.2049,-5.2252,-5.2252,-5.1701,-5.072,-5.0487,-5.009,-4.9717,-4.9717,-4.9717,-4.9732,-5.0183,-5.1122,-5.241,-5.3443,-5.4035,-5.4336,-5.4467,-5.3897,-5.3003,-5.2539,-5.2409,-5.2409,-5.2409,-5.2409,-5.2409,-5.2409,-5.2409,-5.2409,-5.2409,-5.2409,-5.2409,-5.2409,-5.2409,-5.2409,-5.2409,-5.2409,-5.2409,-5.2409,-5.2409,-5.2409,-5.2409,-5.2409,-5.2343,-5.2078,-5.2045,-5.1796,-5.1032,-4.9889,-4.8895,-4.8295,-4.8324,-4.85,-4.8769,-4.8832,-4.8793,-4.8632,-4.8646,-4.8528,-4.8274,-4.8257,-4.8257,-4.8257,-4.8511,-4.8646,-4.8646,-4.8883,-4.9001,-4.9001,-4.9001,-4.9255,-4.9746,-5.049,-5.1234,-3.5518,-3.6784,-3.7783,-3.9455,-4.0495,-4.1091,-4.1091,-4.0902,-4.067,-4.0466,-3.9407,-3.8594,-3.8797,-3.9334,-4.0263,-4.1845,-4.3108,-4.4356,-4.5692,-4.53,-4.498,-4.5213,-4.5242,-4.5329,-4.5561,-4.6185,0.0,-4.7724,-4.7985,-4.887,-5.0583,-5.128,-5.173,-5.1947,-5.2572,-5.2717,-5.2296,-5.2296,-5.2383,-5.2623,-5.2623,-5.202,-5.1004,-5.0786,-5.0438,-5.0017,-4.9819,-4.9897,-5.022,-5.068,-5.1789,-5.3324,-5.4046,-5.4664,-5.5067,-5.4679,-5.4046,-5.3318,-5.2622,-5.2409,-5.2409,-5.2409,-5.2409,-5.2409,-5.2409,-5.2409,-5.2409,-5.2409,-5.2409,-5.2409,-5.2409,-5.2409,-5.2409,-5.2409,-5.2409,-5.2409,-5.2409,-5.2409,-5.2409,-5.2409,-5.2409,-5.2409,-5.2409,-5.2409,-5.2161,-5.1415,-5.0469,-4.9558,-4.8629,-4.8329,-4.8292,-4.8564,-4.8707,-4.8832,-4.8925,-4.897,-4.9001,-4.9001,-4.9001,-4.9001,-4.9001,-4.9001,-4.9001,-4.9001,-4.9001,-4.9001,-4.9001,-4.9255,-4.9644,-5.0101,-5.1133,-5.186,-3.6785,-3.7621,-3.865,-4.0644,-4.112,-4.1091,-4.1062,-4.051,-3.9813,-3.9175,-3.8043,-3.7317,-3.7854,-3.7607,-3.8318,-4.1439,-4.2092,-4.305,-4.5532,-4.5343,-4.5184,0.0,0.0,0.0,-4.6763,-4.7448,0.0,-4.784,0.0,-4.9306,-5.0641,-5.1294,-5.1918,-5.2601,-5.3196,-5.3515,-5.3515,-5.3515,-5.321,-5.2667,-5.2667,-5.2281,-5.1643,-5.1004,-5.0699,-5.0691,-5.0057,-5.0268,-5.1109,-5.1466,-5.2305,-5.3486,-5.4569,-5.4761,-5.4419,-5.4524,-5.4113,-5.3367,-5.2672,-5.2442,-5.2409,-5.2409,-5.2409,-5.2409,-5.2409,-5.2409,-5.2409,-5.2409,-5.2409,-5.2409,-5.2409,-5.2409,-5.2409,-5.2409,-5.2409,-5.2409,-5.2409,-5.2409,-5.2409,-5.2409,-5.2409,-5.2409,-5.2409,-5.2409,-5.2177,-5.1464,-5.1332,-5.0801,-4.9342,-4.8663,-4.8295,-4.8262,-4.8599,-4.882,-4.8818,-4.8909,-4.9001,-4.9001,-4.9001,-4.9001,-4.9001,-4.9001,-4.9001,-4.9001,-4.9035,-4.9069,-4.9069,-4.9796,-5.0168,-5.0236,-5.164,-5.2317,-3.8451,-3.9557,-4.0517,-4.135,-4.1317,-4.096,-4.0466,-3.9479,-3.8376,-3.7273,-3.604,-3.5053,-3.4767,-3.6112,0.0,-3.9654,-4.1947,0.0,-4.5663,-4.5735,0.0,-4.6519,0.0,-4.6838,-4.7477,-4.8116,0.0,0.0,-4.8624,-4.9494,-5.128,-5.1541,-5.2122,-5.3239,-5.3428,-5.3515,-5.3515,-5.3515,-5.3428,-5.3268,-5.3268,-5.2949,-5.231,-5.1672,-5.112,-5.0691,-5.074,-5.089,-5.1203,-5.238,-5.3399,-5.4327,-5.4968,-5.5594,-5.6029,-5.5527,-5.4837,-5.4129,-5.34,-5.2821,-5.2409,-5.2409,-5.2409,-5.2409,-5.2409,-5.2409,-5.2409,-5.2409,-5.2409,-5.2409,-5.2409,-5.2409,-5.2409,-5.2409,-5.2409,-5.2409,-5.2409,-5.2409,-5.2409,-5.2409,-5.2409,-5.2409,-5.2409,-5.2409,-5.2359,-5.2161,-5.1663,-5.0984,-5.0055,-4.9807,-4.9509,-4.906,-4.9239,-4.9231,-4.882,-4.8909,-4.9001,-4.9001,-4.9001,-4.9001,-4.9001,-4.9001,-4.9001,-4.9001,-4.9543,-4.9813,-4.9813,-5.0557,-5.12,-5.1742,-5.2131,-5.2621,-3.9787,-4.0871,-4.1572,-4.1811,-4.1488,-4.0713,-3.9218,-3.8086,-3.6765,-3.4646,-3.3877,-3.3296,-3.2399,-3.4298,-3.6548,0.0,0.0,0.0,-4.5184,-4.5938,-4.6432,0.0,-4.7271,0.0,-4.8159,-4.8769,-4.9146,0.0,-4.9422,-5.0177,-5.1541,-5.1889,-5.2499,-5.3486,-5.3515,-5.3515,-5.3515,-5.3515,-5.3515,-5.3515,-5.3515,-5.3326,-5.2949,-5.2035,-5.1425,-5.1083,0.0,-5.1343,-5.185,-5.3209,-5.4343,-5.5304,-5.5628,-5.6179,-5.6597,-5.5885,-5.5317,-5.4821,-5.3781,-5.3152,-5.2788,-5.2489,-5.2409,-5.2409,-5.2409,-5.2409,-5.2409,-5.2409,-5.2409,-5.2409,-5.2409,-5.2409,-5.2409,-5.2409,-5.2409,-5.2409,-5.2409,-5.2409,-5.2409,-5.2409,-5.2409,-5.2409,-5.2409,-5.2409,-5.2409,-5.2409,-5.2061,-5.1612,-5.1214,-5.0618,-5.0072,-4.9726,-4.9926,-4.9956,-4.9651,-4.9824,-4.9982,-4.9982,-4.9982,-4.9982,-4.9982,-4.9982,-4.9982,-4.9982,-5.0371,-5.0591,-5.0591,-5.1336,-5.1911,-5.2317,-5.2655,-5.3078,-4.0833,-4.1642,-4.2078,-4.1949,-4.1355,-4.0205,-3.7738,-3.6533,-3.5067,-3.2019,-3.1756,-3.1787,-3.0655,-3.2556,-3.4951,-3.6983,0.0,-4.199,-4.4531,-4.5938,-4.672,-4.6894,-4.7952,-4.8706,-4.8841,-4.9349,-4.9717,-4.9717,-5.0293,-5.0946,-5.1585,-5.2223,-5.2862,-5.3486,-5.3515,-5.3515,-5.3515,-5.3515,-5.3515,-5.3515,-5.3515,-5.3471,-5.3341,-5.2151,-5.1585,-5.1475,0.0,0.0,-5.268,-5.3875,-5.5042,-5.6126,-5.6346,-5.6541,-5.6614,-5.6001,-5.5665,-5.5383,-5.401,-5.35,-5.3301,-5.2605,-5.2409,-5.2409,-5.2409,-5.2409,-5.2409,-5.2409,-5.2409,-5.2409,-5.2409,-5.2409,-5.2409,-5.2409,-5.2409,-5.2409,-5.2409,-5.2409,-5.2409,-5.2409,-5.2409,-5.2409,-5.2409,-5.2409,-5.2409,-5.2409,-5.2409,-5.2409,-5.2409,-5.128,-5.0469,-5.0369,-5.0643,-5.0827,-5.0727,-5.1007,-5.1185,-5.1185,-5.1185,-5.1185,-5.1185,-5.1185,-5.1185,-5.1185,-5.1319,-5.1369,-5.1369,-5.2097,-5.2469,-5.2486,-5.3179,-5.3501,-4.1307,-4.1852,-4.192,-4.1194,-4.0289,-3.8986,-3.6939,-3.5169,0.0,-3.1208,-3.0408,-3.003,-2.9798,-3.1888,-3.4477,-3.691,-3.9436,-4.199,-4.4531,-4.5561,-4.6446,0.0,-4.8275,-4.8928,-4.9465,-4.9611,0.0,0.0,0.0,-5.0946,-5.1585,-5.2223,-5.2862,-5.3486,-5.3515,-5.3515,-5.3515,-5.3515,-5.3515,-5.3515,-5.3515,-5.3239,-5.2702,-5.1962,-5.1338,-5.09,-5.1009,0.0,-5.268,-5.3988,-5.5181,-5.6126,-5.6502,-5.668,-5.6663,-5.6547,-5.6133,-5.5466,-5.4589,-5.393,-5.3301,-5.2605,-5.2409,-5.2409,-5.2409,-5.2409,-5.2409,-5.2409,-5.2409,-5.2409,-5.2409,-5.2409,-5.2409,-5.2409,-5.2409,-5.2409,-5.2409,-5.2409,-5.2409,-5.2409,-5.2409,-5.2409,-5.2409,-5.2409,-5.2409,-5.2409,-5.2409,-5.2409,-5.2409,-5.2158,-5.1761,-5.1148,-5.141,-5.1363,-5.076,-5.1007,-5.1185,-5.1185,-5.1185,-5.1185,-5.1185,-5.1185,-5.1185,-5.1185,-5.1809,-5.2114,-5.2114,-5.2909,-5.3298,-5.3298,-5.3433,-5.3501,-4.1577,-4.1995,-4.1906,-4.1157,-4.0068,-3.8434,-3.5503,0.0,0.0,-2.9232,-2.8884,-2.9029,-2.8681,-3.0727,0.0,-3.4994,-3.7462,-4.0133,-4.3021,-4.4545,-4.5967,-4.7593,-4.8638,-4.9349,0.0,-4.9717,-4.9717,0.0,0.0,-5.0946,-5.1585,-5.2543,-5.3196,-5.35,-5.3515,-5.3515,-5.3515,-5.3515,-5.3515,-5.3515,-5.3181,-5.2862,-5.2594,-5.157,-5.101,-5.0909,-5.1675,0.0,-5.3108,-5.4819,-5.5821,-5.6284,-5.6564,-5.668,-5.668,-5.668,-5.6481,-5.6017,-5.4908,-5.4295,-5.3814,-5.2721,-5.2409,-5.2409,-5.2409,-5.2409,-5.2409,-5.2409,-5.2409,-5.2409,-5.2409,-5.2409,-5.2409,-5.2409,-5.2409,-5.2409,-5.2409,-5.2409,-5.2409,-5.2409,-5.2409,-5.2409,-5.2409,-5.2409,-5.2409,-5.2409,-5.2409,-5.2409,-5.2409,-5.2409,-5.2277,-5.1928,-5.2073,-5.2131,-5.1848,-5.2085,-5.2302,-5.2368,-5.2418,-5.2418,-5.2418,-5.2418,-5.2418,-5.2418,-5.2756,-5.2926,-5.2926,-5.3315,-5.3501,-5.3501,-5.3501,-5.3501,-4.1526,-4.199,-4.1903,-4.1091,-3.9929,-3.8014,-3.4346,-3.2759,0.0,-2.7694,-2.7706,-2.8229,-2.7969,-2.9653,-3.1671,0.0,-3.559,-3.826,-4.1628,-4.3703,-4.5605,0.0,-4.8899,0.0,-4.9717,-4.9717,0.0,0.0,0.0,0.0,-5.1585,-5.2702,-5.3312,-5.3312,-5.3312,-5.3312,-5.3312,-5.3312,-5.3239,-5.3146,-5.2798,-5.2478,-5.2224,-5.1185,-5.0732,-5.0852,-5.1847,0.0,0.0,-5.5124,-5.6037,-5.6424,-5.6603,-5.668,-5.668,-5.668,-5.668,-5.6481,-5.5024,-5.449,-5.4295,-5.2854,-5.2409,-5.2409,-5.2409,-5.2409,-5.2409,-5.2409,-5.2409,-5.2409,-5.2409,-5.2409,-5.2409,-5.2409,-5.2409,-5.2409,-5.2409,-5.2409,-5.2409,-5.2409,-5.2409,-5.2409,-5.2409,-5.2409,-5.2409,-5.2409,-5.2409,-5.2409,-5.2409,-5.2409,-5.2409,-5.2409,-5.2535,-5.2694,-5.2868,-5.3076,-5.3298,-5.3501,-5.3501,-5.3501,-5.3501,-5.3501,-5.3501,-5.3501,-5.3501,-5.3501,-5.3501,-5.3501,-5.3501,-5.3501,-5.3501,-5.3501,-4.0844,-4.1628,-4.1787,-4.051,-3.9233,-3.7447,-3.4244,0.0,-3.0161,-2.8043,-2.7273,-2.7329,-2.8418,-2.9261,-3.0755,-3.3833,-3.5488,-3.7738,-4.1555,-4.3703,-4.5605,-4.755,0.0,0.0,-4.9717,0.0,0.0,0.0,0.0,0.0,-5.1585,-5.2281,-5.271,-5.271,-5.271,-5.271,-5.271,-5.271,-5.2508,-5.2128,-5.2464,-5.2115,-5.1114,-5.0828,-5.0499,-5.0174,-5.0294,0.0,0.0,-5.3703,-5.4877,-5.6424,-5.6603,-5.668,-5.668,-5.668,-5.668,-5.6481,-5.5024,-5.449,-5.4295,-5.2854,-5.2409,-5.2409,-5.2409,-5.2409,-5.2409,-5.2409,-5.2409,-5.2409,-5.2409,-5.2409,-5.2409,-5.2409,-5.2409,-5.2409,-5.2409,-5.2409,-5.2409,-5.2409,-5.2409,-5.2409,-5.2409,-5.2409,-5.2409,-5.2409,-5.2409,-5.2409,-5.2409,-5.2409,-5.2409,-5.2409,-5.2535,-5.2694,-5.2868,-5.3076,-5.3298,-5.3501,-5.3501,-5.3501,-5.3501,-5.3501,-5.3501,-5.3501,-5.3501,-5.3501,-5.3501,-5.3501,-5.3501,-5.3501,-5.3501,-5.3501,-4.0046,-4.0989,-4.1265,-4.0321,-3.9146,-3.7273,-3.3703,-3.1731,-2.9958,-2.7636,-2.7273,-2.7621,-2.8549,-2.9189,-3.0262,-3.2307,-3.3427,-3.5096,-3.8188,-4.0263,-4.26,-4.5677,-4.7172,0.0,0.0,0.0,0.0,0.0,0.0,0.0,-5.0438,-5.1439,-5.2006,-5.2006,-5.2129,-5.2231,-5.2231,-5.2398,-5.2417,-5.2267,-5.2006,-5.1669,-5.1204,-5.0803,-5.0577,-5.0585,-5.1728,0.0,0.0,-5.4985,-5.5925,-5.658,-5.668,-5.668,-5.668,-5.668,-5.668,-5.6481,-5.5024,-5.449,-5.4295,-5.2854,-5.2409,-5.2409,-5.2409,-5.2409,-5.2409,-5.2409,-5.2409,-5.2409,-5.2409,-5.2409,-5.2409,-5.2409,-5.2409,-5.2409,-5.2409,-5.2409,-5.2409,-5.2409,-5.2409,-5.2409,-5.2409,-5.2409,-5.2409,-5.2409,-5.2409,-5.2409,-5.2409,-5.2409,-5.2409,-5.2409,-5.2535,-5.2694,-5.2868,-5.3076,-5.3298,-5.3501,-5.3501,-5.3501,-5.3501,-5.3501,-5.3501,-5.3501,-5.3501,-5.3501,-5.3501,-5.3501,-5.3501,-5.3501,-5.3501,-5.3501,-3.8971,-4.0031,-4.0379,-3.9712,-3.8725,-3.6983,-3.334,-3.1511,-2.9987,-2.7823,-2.7549,-2.7956,-2.8811,-2.9319,-3.0016,-3.1277,-3.2237,-3.3688,-3.6243,-3.842,-4.0974,0.0,0.0,0.0,0.0,0.0,0.0,0.0,0.0,0.0,0.0,-5.0653,-5.1235,-5.1424,-5.166,-5.181,-5.181,-5.2023,-5.2019,-5.1925,-5.1547,-5.136,-5.1202,-5.074,-5.0614,-5.0887,0.0,0.0,0.0,-5.5668,-5.6469,-5.668,-5.668,-5.668,-5.668,-5.668,-5.668,-5.6481,-5.5024,-5.449,-5.4295,-5.2854,-5.2409,-5.2409,-5.2409,-5.2409,-5.2409,-5.2409,-5.2409,-5.2409,-5.2409,-5.2409,-5.2409,-5.2409,-5.2409,-5.2409,-5.2409,-5.2409,-5.2409,-5.2409,-5.2409,-5.2409,-5.2409,-5.2409,-5.2409,-5.2409,-5.2409,-5.2409,-5.2409,-5.2409,-5.2409,-5.2409,-5.257,-5.2729,-5.2868,-5.3041,-5.323,-5.3467,-5.3501,-5.3501,-5.3501,-5.3501,-5.3501,-5.3501,-5.3501,-5.3501,-5.3501,-5.3501,-5.3501,-5.3501,-5.3501,-5.3501,-3.7535,-3.871,-3.9059,-3.8391,-3.7767,-3.6475,-3.3253,-3.1511,-3.0234,-2.8956,-2.8173,-2.8087,-2.9349,-2.9595,-3.0016,-3.1277,-3.2614,-3.439,-3.6939,-3.9479,0.0,0.0,0.0,0.0,0.0,0.0,0.0,0.0,0.0,0.0,0.0,-5.0101,-5.0393,-5.0973,-5.1283,-5.1414,-5.1414,-5.1414,-5.1187,-5.0837,-5.1202,-5.1206,-5.0822,-5.0567,-5.0614,0.0,0.0,0.0,0.0,-5.4968,-5.5868,-5.668,-5.668,-5.668,-5.668,-5.668,-5.668,-5.6481,-5.5024,-5.449,-5.4295,-5.2854,-5.2409,-5.2409,-5.2409,-5.2409,-5.2409,-5.2409,-5.2409,-5.2409,-5.2409,-5.2409,-5.2409,-5.2409,-5.2409,-5.2409,-5.2409,-5.2409,-5.2409,-5.2409,-5.2409,-5.2409,-5.2409,-5.2409,-5.2409,-5.2409,-5.2409,-5.2409,-5.2409,-5.2409,-5.2409,-5.2409,-5.2711,-5.2903,-5.2903,-5.2903,-5.3058,-5.3467,-5.3501,-5.3501,-5.3501,-5.3501,-5.3501,-5.3501,-5.3501,-5.3501,-5.3501,-5.3501,-5.3501,-5.3501,-5.3501,-5.3501,-3.3978,-3.5096,-3.5778,-3.5125,-3.4854,-3.4099,-3.1729,-3.0903,-3.0249,-2.897,-2.8855,-2.9116,-2.9523,-2.9972,-3.0843,-3.2603,-3.3954,-3.5392,0.0,0.0,0.0,0.0,0.0,0.0,0.0,0.0,0.0,0.0,0.0,0.0,0.0,-5.0504,-5.0545,-5.0379,-5.0799,-5.0976,-5.0976,-5.1182,-5.1188,-5.1058,-5.1188,-5.122,-5.1058,-5.0994,0.0,0.0,0.0,0.0,0.0,-5.5628,-5.6414,-5.668,-5.668,-5.668,-5.668,-5.668,-5.668,-5.6481,-5.5024,-5.449,-5.4295,-5.2854,-5.2409,-5.2409,-5.2409,-5.2409,-5.2409,-5.2409,-5.2409,-5.2409,-5.2409,-5.2409,-5.2409,-5.2409,-5.2409,-5.2409,-5.2409,-5.2409,-5.2409,-5.2409,-5.2409,-5.2409,-5.2409,-5.2409,-5.2409,-5.2409,-5.2409,-5.2409,-5.2409,-5.2409,-5.2409,-5.2409,-5.257,-5.2729,-5.2868,-5.3161,-5.3348,-5.3501,-5.3501,-5.3501,-5.3501,-5.3501,-5.3501,-5.3501,-5.3501,-5.3501,-5.3501,-5.3501,-5.3501,-5.3501,-5.3501,-5.3501,-3.1741,-3.2684,-3.3224,-3.2832,-3.273,-3.2295,-3.0597,-3.0219,-2.9987,-2.9203,-2.9348,-2.9668,-2.9929,-3.0336,-3.1004,-3.221,-3.3489,-3.4854,0.0,0.0,0.0,0.0,0.0,0.0,0.0,0.0,0.0,0.0,0.0,0.0,0.0,-5.0728,-5.068,-5.0361,-5.0728,-5.0964,-5.0964,-5.112,-5.1214,-5.1214,-5.1214,-5.1214,-5.1214,-5.1214,0.0,0.0,0.0,0.0,0.0,-5.6083,-5.668,-5.668,-5.668,-5.668,-5.668,-5.668,-5.668,-5.6481,-5.5024,-5.449,-5.4295,-5.2854,-5.2409,-5.2409,-5.2409,-5.2409,-5.2409,-5.2409,-5.2409,-5.2409,-5.2409,-5.2409,-5.2409,-5.2409,-5.2409,-5.2409,-5.2409,-5.2409,-5.2409,-5.2409,-5.2409,-5.2409,-5.2409,-5.2409,-5.2409,-5.2409,-5.2409,-5.2409,-5.2409,-5.2409,-5.2409,-5.248,-5.2605,-5.2799,-5.3007,-5.323,-5.3433,-5.3518,-5.3501,-5.3501,-5.3501,-5.3501,-5.3501,-5.3501,-5.3501,-5.3501,-5.3501,-5.3501,-5.3501,-5.3501,-5.3501,-5.3501,0.0,-3.119,-3.1205,-3.1192,-3.119,-3.0915,-2.9726,-2.9494,0.0,-2.9581,-2.9595,-2.9813,-3.0598,-3.0699,-3.0743,-3.0975,-3.2077,-3.3638,0.0,-3.8318,0.0,0.0,0.0,0.0,0.0,0.0,0.0,0.0,0.0,0.0,0.0,-5.0807,-5.0807,-5.0807,-5.1058,-5.1214,-5.1214,-5.1214,-5.1214,-5.1214,-5.1214,-5.1214,-5.1214,-5.1261,0.0,0.0,0.0,0.0,0.0,-5.6297,-5.668,-5.668,-5.668,-5.668,-5.668,-5.668,-5.6663,-5.6415,-5.5007,-5.4456,-5.4212,-5.2821,-5.2409,-5.2409,-5.2409,-5.2409,-5.2409,-5.2409,-5.2409,-5.2409,-5.2409,-5.2409,-5.2409,-5.2409,-5.2409,-5.2409,-5.2409,-5.2409,-5.2409,-5.2409,-5.2409,-5.2409,-5.2409,-5.2409,-5.2409,-5.2409,-5.2409,-5.2409,-5.2409,-5.2409,-5.248,-5.2605,-5.2799,-5.3007,-5.3179,-5.3213,-5.3298,-5.3501,-5.3501,-5.3501,-5.3501,-5.3501,-5.3501,-5.3501,-5.3501,-5.3501,-5.3501,-5.3501,-5.3501,-5.3501,-5.3501,-5.3501,-2.7737,0.0,-2.8478,-2.8028,-2.826,-2.8507,0.0,-2.855,-2.9029,-2.9494,-2.9595,-3.0088,-3.1758,-3.1642,-3.2092,-3.4559,-3.604,-3.7448,-3.9145,0.0,0.0,0.0,0.0,0.0,0.0,0.0,0.0,0.0,0.0,0.0,0.0,-5.112,-5.112,-5.112,-5.1167,-5.1214,-5.1214,-5.1214,-5.1214,-5.1214,-5.1214,-5.1214,-5.1214,-5.1957,0.0,0.0,0.0,0.0,-5.5377,-5.6297,-5.668,-5.668,-5.668,-5.668,-5.668,-5.668,-5.6349,-5.5752,-5.4804,-5.4146,-5.3533,-5.2655,-5.2409,-5.2409,-5.2409,-5.2409,-5.2409,-5.2409,-5.2409,-5.2409,-5.2409,-5.2409,-5.2409,-5.2409,-5.2409,-5.2409,-5.2409,-5.2409,-5.2409,-5.2409,-5.2409,-5.2409,-5.2409,-5.2409,-5.2409,-5.2409,-5.2409,-5.2409,-5.2409,-5.2499,-5.257,-5.2605,-5.2903,-5.3144,-5.3195,-5.3348,-5.3467,-5.3501,-5.3501,-5.3501,-5.3501,-5.3501,-5.3501,-5.3501,-5.3501,-5.3501,-5.3501,-5.3501,-5.3501,-5.3501,-5.3501,-5.3501,-2.6806,-2.7461,-2.8086,-2.7737,-2.7911,-2.8173,-2.8173,-2.8202,-2.8347,-2.8652,-2.9189,-3.0001,-3.138,-3.1864,-3.2725,-3.4709,-3.6458,0.0,0.0,0.0,0.0,0.0,0.0,0.0,0.0,0.0,0.0,0.0,0.0,0.0,0.0,-5.1214,-5.1214,-5.1214,-5.1214,-5.1214,-5.1214,-5.1214,-5.1214,-5.1214,-5.1214,-5.1433,-5.1865,-5.2381,-5.3064,0.0,0.0,0.0,-5.5988,-5.6508,-5.668,-5.668,-5.668,-5.668,-5.6647,-5.6316,-5.5951,-5.5433,-5.4357,-5.3533,-5.287,-5.2506,-5.2409,-5.2409,-5.2409,-5.2409,-5.2409,-5.2409,-5.2409,-5.2409,-5.2409,-5.2409,-5.2409,-5.2409,-5.2409,-5.2409,-5.2409,-5.2409,-5.2409,-5.2409,-5.2409,-5.2409,-5.2409,-5.2409,-5.2409,-5.2409,-5.2409,-5.2409,-5.2409,-5.248,-5.257,-5.2729,-5.2938,-5.3127,-5.3298,-5.3433,-5.3501,-5.3501,-5.3501,-5.3501,-5.3501,-5.3501,-5.3501,-5.3501,-5.3501,-5.3501,-5.3501,-5.3501,-5.3501,-5.3501,-5.3501,-5.3501,-2.6866,-2.7926,-2.8927,-2.8636,-2.8681,-2.8825,-2.8723,0.0,0.0,0.0,0.0,-3.0016,-3.0918,-3.2251,0.0,0.0,0.0,0.0,0.0,0.0,0.0,0.0,0.0,0.0,0.0,0.0,0.0,0.0,0.0,0.0,0.0,0.0,-5.1214,-5.1214,-5.1214,-5.1214,-5.1214,-5.1214,-5.1214,-5.1214,-5.1214,-5.1696,-5.259,-5.274,-5.3703,0.0,0.0,0.0,-5.668,-5.6564,-5.6531,-5.6514,-5.6398,-5.6349,-5.6282,-5.567,-5.535,-5.5052,-5.3732,-5.287,-5.2409,-5.2409,-5.2409,-5.2409,-5.2409,-5.2409,-5.2409,-5.2409,-5.2409,-5.2409,-5.2409,-5.2409,-5.2409,-5.2409,-5.2409,-5.2409,-5.2409,-5.2409,-5.2409,-5.2409,-5.2409,-5.2409,-5.2409,-5.2409,-5.2409,-5.2409,-5.2409,-5.2409,-5.2409,-5.2409,-5.2535,-5.2868,-5.2938,-5.3093,-5.3467,-5.3501,-5.3501,-5.3501,-5.3501,-5.3501,-5.3501,-5.3501,-5.3501,-5.3501,-5.3501,-5.3501,-5.3501,-5.3501,-5.3501,-5.3501,-5.3501,-5.3501,-2.7287,-2.8913,-2.9929,-2.8246,-2.8652,-2.9334,-2.884,-2.8636,0.0,0.0,0.0,0.0,0.0,-3.4218,-3.5592,0.0,0.0,0.0,0.0,0.0,0.0,0.0,0.0,0.0,0.0,0.0,0.0,0.0,0.0,0.0,0.0,0.0,0.0,-5.1214,-5.1214,-5.1214,-5.1214,-5.1214,-5.1214,-5.1214,-5.1214,-5.1696,-5.2651,-5.3415,-5.4343,0.0,0.0,-5.6564,-5.663,-5.6034,-5.5786,-5.5719,-5.509,-5.4858,-5.4841,-5.4688,-5.4258,-5.3632,-5.2821,-5.2473,-5.2409,-5.2409,-5.2409,-5.2409,-5.2409,-5.2409,-5.2409,-5.2409,-5.2409,-5.2409,-5.2409,-5.2409,-5.2409,-5.2409,-5.2409,-5.2409,-5.2409,-5.2409,-5.2409,-5.2409,-5.2409,-5.2409,-5.2409,-5.2409,-5.2409,-5.2409,-5.2409,-5.2409,-5.2409,-5.2499,-5.2659,-5.2868,-5.3041,-5.323,-5.3467,-5.3501,-5.3501,-5.3501,-5.3501,-5.3501,-5.3501,-5.3501,-5.3501,-5.3501,-5.3501,-5.3501,-5.3501,-5.3501,-5.3501,-5.3501,-5.3501,-5.3501,-2.6431,-2.8086,-2.945,-2.8855,-2.9958,-3.1206,-3.1358,-3.0586,-3.0046,0.0,0.0,0.0,0.0,0.0,-3.7426,-4.0571,0.0,0.0,0.0,0.0,0.0,0.0,0.0,0.0,0.0,0.0,0.0,0.0,0.0,0.0,0.0,0.0,0.0,-5.0167,-5.0167,-5.0167,-5.0167,-5.0167,-5.0526,-5.1214,-5.1214,-5.1957,-5.3371,-5.3368,-5.4175,-5.5454,0.0,-5.5521,-5.5487,-5.5173,-5.4986,-5.4953,-5.4605,-5.449,-5.444,-5.4026,-5.3467,-5.2821,-5.2525,-5.2409,-5.2409,-5.2409,-5.2409,-5.2409,-5.2409,-5.2409,-5.2409,-5.2409,-5.2409,-5.2409,-5.2409,-5.2409,-5.2409,-5.2409,-5.2409,-5.2409,-5.2409,-5.2409,-5.2409,-5.2409,-5.2409,-5.2409,-5.2409,-5.2409,-5.2409,-5.2409,-5.2409,-5.2409,-5.2409,-5.2445,-5.2605,-5.2868,-5.2972,-5.3161,-5.3467,-5.3501,-5.3501,-5.3501,-5.3501,-5.3501,-5.3501,-5.3501,-5.3501,-5.3501,-5.3501,-5.3501,-5.3501,-5.3501,-5.3501,-5.3501,-5.3501,-5.3501,-2.5995,-2.7432,-2.8898,-2.9682,-3.1106,-3.2623,-3.367,-3.2713,-3.1865,0.0,0.0,0.0,0.0,-3.6704,0.0,0.0,0.0,0.0,0.0,0.0,0.0,0.0,0.0,0.0,0.0,0.0,0.0,0.0,0.0,0.0,0.0,0.0,0.0,-4.9314,-4.9314,-4.9314,-4.9314,-4.9314,-4.9778,-5.0765,-5.0765,-5.1697,-5.3487,-5.2934,-5.364,-5.5301,-5.4738,-5.449,-5.451,-5.4291,-5.4225,-5.4208,-5.408,-5.4013,-5.3947,-5.3384,-5.2837,-5.2409,-5.2409,-5.2409,-5.2409,-5.2409,-5.2409,-5.2409,-5.2409,-5.2409,-5.2409,-5.2409,-5.2409,-5.2409,-5.2409,-5.2409,-5.2409,-5.2409,-5.2409,-5.2409,-5.2409,-5.2409,-5.2409,-5.2409,-5.2409,-5.2409,-5.2409,-5.2409,-5.2409,-5.2409,-5.2409,-5.2409,-5.2409,-5.2409,-5.257,-5.2868,-5.2938,-5.3127,-5.3467,-5.3501,-5.3501,-5.3501,-5.3501,-5.3501,-5.3501,-5.3501,-5.3501,-5.3501,-5.3501,-5.3501,-5.3501,-5.3501,-5.3501,-5.3501,-5.3501,-5.3501,-2.7072,-2.8129,-2.9028,-3.0382,-3.1288,-3.2328,-3.4189,-3.4188,-3.4319,-3.6241,0.0,0.0,0.0,-3.9528,0.0,0.0,0.0,0.0,0.0,0.0,0.0,0.0,0.0,0.0,0.0,0.0,0.0,0.0,0.0,0.0,0.0,0.0,0.0,0.0,-4.9314,-4.9314,-4.9314,-4.9314,-4.9359,-4.9449,-4.9449,-5.0352,-5.2049,-5.2001,-5.2917,-5.4556,-5.4506,-5.449,-5.444,-5.3781,-5.35,-5.3434,-5.2788,-5.2539,-5.2523,-5.2473,-5.2423,-5.2409,-5.2409,-5.2409,-5.2409,-5.2409,-5.2409,-5.2409,-5.2409,-5.2409,-5.2409,-5.2409,-5.2409,-5.2409,-5.2409,-5.2409,-5.2409,-5.2409,-5.2409,-5.2409,-5.2409,-5.2409,-5.2409,-5.2409,-5.2409,-5.2409,-5.2409,-5.2409,-5.2409,-5.2409,-5.2409,-5.2409,-5.2409,-5.2499,-5.2659,-5.2868,-5.3076,-5.3264,-5.3467,-5.3501,-5.3501,-5.3501,-5.3501,-5.3501,-5.3501,-5.3501,-5.3501,-5.3501,-5.3501,-5.3501,-5.3501,-5.3501,-5.3501,-5.3501,-5.3501,-5.3501,-2.6137,-2.7713,-2.9254,-3.05,-3.2073,0.0,0.0,-3.6151,-3.7218,-3.9303,-3.9377,0.0,0.0,0.0,0.0,0.0,0.0,0.0,0.0,0.0,0.0,0.0,0.0,0.0,0.0,0.0,0.0,0.0,0.0,0.0,0.0,0.0,0.0,0.0,-4.8057,-4.8057,-4.8057,-4.8057,-4.8334,-4.8849,-4.9687,-5.1002,-5.2693,-5.2244,-5.2675,-5.3814,-5.3384,-5.3185,-5.3169,-5.2887,-5.2771,-5.2738,-5.2489,-5.2409,-5.2409,-5.2409,-5.2409,-5.2409,-5.2409,-5.2409,-5.2409,-5.2409,-5.2409,-5.2409,-5.2409,-5.2409,-5.2409,-5.2409,-5.2409,-5.2409,-5.2409,-5.2409,-5.2409,-5.2409,-5.2409,-5.2409,-5.2409,-5.2409,-5.2409,-5.2409,-5.2409,-5.2409,-5.2409,-5.2409,-5.2409,-5.2409,-5.2409,-5.2445,-5.2499,-5.257,-5.2729,-5.3041,-5.328,-5.3433,-5.3501,-5.3501,-5.3501,-5.3501,-5.3501,-5.3501,-5.3501,-5.3501,-5.3501,-5.3501,-5.3501,-5.3501,-5.3501,-5.3501,-5.3501,-5.3501,-5.3501,-5.3501,-2.6334,-2.7974,-2.9717,-3.097,0.0,0.0,-3.6514,-3.7769,-3.9301,-4.1818,-4.1624,-4.1145,-4.1564,0.0,0.0,0.0,0.0,0.0,0.0,0.0,0.0,0.0,0.0,0.0,0.0,0.0,0.0,0.0,0.0,0.0,0.0,0.0,0.0,0.0,0.0,-4.7309,-4.7309,-4.7309,-4.7737,-4.8615,-4.9497,-5.0849,-5.2521,-5.2019,-5.2263,-5.3069,-5.2589,-5.2409,-5.2409,-5.2409,-5.2409,-5.2409,-5.2409,-5.2409,-5.2409,-5.2409,-5.2409,-5.2409,-5.2409,-5.2409,-5.2409,-5.2409,-5.2409,-5.2409,-5.2409,-5.2409,-5.2409,-5.2409,-5.2409,-5.2409,-5.2409,-5.2409,-5.2409,-5.2409,-5.2409,-5.2409,-5.2409,-5.2409,-5.2409,-5.2409,-5.2409,-5.2409,-5.2409,-5.2409,-5.2409,-5.2409,-5.2409,-5.2445,-5.2589,-5.2676,-5.2834,-5.3264,-5.3433,-5.3501,-5.3501,-5.3501,-5.3501,-5.3501,-5.3501,-5.3501,-5.3501,-5.3501,-5.3501,-5.3501,-5.3501,-5.3501,-5.3501,-5.3501,-5.3501,-5.3501,-5.3501,-5.3501,-2.8193,-2.9138,-3.0481,-3.1946,0.0,0.0,-3.7938,-3.896,-4.0382,-4.3658,-4.3299,-4.283,-4.4077,-4.3753,0.0,0.0,0.0,0.0,0.0,0.0,0.0,0.0,0.0,0.0,0.0,0.0,0.0,0.0,0.0,0.0,0.0,0.0,0.0,0.0,0.0,0.0,-4.7309,-4.7309,-4.7737,-4.8615,-4.8615,-4.9479,-5.1118,-5.1118,-5.1598,-5.2409,-5.2409,-5.2409,-5.2409,-5.2409,-5.2409,-5.2409,-5.2409,-5.2409,-5.2409,-5.2409,-5.2409,-5.2409,-5.2409,-5.2409,-5.2409,-5.2409,-5.2409,-5.2409,-5.2409,-5.2409,-5.2409,-5.2409,-5.2409,-5.2409,-5.2409,-5.2409,-5.2409,-5.2409,-5.2409,-5.2409,-5.2409,-5.2409,-5.2409,-5.2409,-5.2409,-5.2409,-5.2409,-5.2409,-5.2409,-5.2409,-5.2409,-5.2445,-5.2605,-5.2764,-5.3058,-5.3467,-5.3501,-5.3501,-5.3501,-5.3501,-5.3501,-5.3501,-5.3501,-5.3501,-5.3501,-5.3501,-5.3501,-5.3501,-5.3501,-5.3501,-5.3501,-5.3501,-5.3501,-5.3501,-5.3501,-5.3501,-2.7513,-2.9248,-3.1514,-3.3285,0.0,0.0,0.0,-4.1698,0.0,0.0,-4.5424,-4.4975,-4.4421,0.0,0.0,0.0,0.0,0.0,0.0,0.0,0.0,0.0,0.0,0.0,0.0,0.0,0.0,0.0,0.0,0.0,0.0,0.0,0.0,0.0,0.0,0.0,-4.7309,-4.7309,-4.7737,-4.8615,-4.8615,-4.9479,-5.1118,-5.1118,-5.1598,-5.2409,-5.2409,-5.2409,-5.2409,-5.2409,-5.2409,-5.2409,-5.2409,-5.2409,-5.2409,-5.2409,-5.2409,-5.2409,-5.2409,-5.2409,-5.2409,-5.2409,-5.2409,-5.2409,-5.2409,-5.2409,-5.2409,-5.2409,-5.2409,-5.2409,-5.2409,-5.2409,-5.2409,-5.2409,-5.2409,-5.2409,-5.2409,-5.2409,-5.2409,-5.2409,-5.2409,-5.2409,-5.2409,-5.2409,-5.2409,-5.2409,-5.2409,-5.2516,-5.2764,-5.2972,-5.3195,-5.3467,-5.3501,-5.3501,-5.3501,-5.3501,-5.3501,-5.3501,-5.3501,-5.3501,-5.3501,-5.3501,-5.3501,-5.3501,-5.3501,-5.3501,-5.3501,-5.3501,-5.3501,-5.3501,-5.3501,-5.3501,-2.8797,-3.0739,0.0,-3.5392,-3.7366,-3.9634,-4.2845,0.0,0.0,0.0,-4.6292,-4.5828,-4.5559,0.0,0.0,0.0,0.0,0.0,0.0,0.0,0.0,0.0,0.0,0.0,0.0,0.0,0.0,0.0,0.0,0.0,0.0,0.0,0.0,0.0,0.0,0.0,-4.7309,-4.7309,-4.7581,-4.8103,-4.8449,-4.9278,-5.0592,-5.0951,-5.1598,-5.2409,-5.2409,-5.2409,-5.2409,-5.2409,-5.2409,-5.2409,-5.2409,-5.2409,-5.2409,-5.2409,-5.2409,-5.2409,-5.2409,-5.2409,-5.2409,-5.2409,-5.2409,-5.2409,-5.2409,-5.2409,-5.2409,-5.2409,-5.2409,-5.2409,-5.2409,-5.2409,-5.2409,-5.2409,-5.2409,-5.2409,-5.2409,-5.2409,-5.2409,-5.2409,-5.2409,-5.2409,-5.2409,-5.2409,-5.2409,-5.2409,-5.2516,-5.2676,-5.2868,-5.3161,-5.3382,-5.3501,-5.3501,-5.3501,-5.3501,-5.3501,-5.3501,-5.3501,-5.3501,-5.3501,-5.3501,-5.3501,-5.3501,-5.3501,-5.3501,-5.3501,-5.3501,-5.3501,-5.3501,-5.3501,-5.3501,-5.3501,-3.0987,-3.2841,-3.5058,-3.7719,-3.914,0.0,-4.4392,-4.5738,-4.6441,-4.716,0.0,-4.5843,-4.7085,0.0,0.0,0.0,0.0,0.0,0.0,0.0,0.0,0.0,0.0,0.0,0.0,0.0,0.0,0.0,0.0,0.0,0.0,0.0,0.0,0.0,0.0,0.0,-4.7309,-4.7309,-4.7309,0.0,-4.8172,-4.9035,-4.9844,-5.0707,-5.1598,-5.2409,-5.2409,-5.2409,-5.2409,-5.2409,-5.2409,-5.2409,-5.2409,-5.2409,-5.2409,-5.2409,-5.2409,-5.2409,-5.2409,-5.2409,-5.2409,-5.2409,-5.2409,-5.2409,-5.2409,-5.2409,-5.2409,-5.2409,-5.2409,-5.2409,-5.2409,-5.2409,-5.2409,-5.2409,-5.2409,-5.2409,-5.2409,-5.2409,-5.2409,-5.2409,-5.2409,-5.2409,-5.2409,-5.2409,-5.2409,-5.2409,-5.2676,-5.2868,-5.2903,-5.3246,-5.3467,-5.3501,-5.3501,-5.3501,-5.3501,-5.3501,-5.3501,-5.3501,-5.3501,-5.3501,-5.3501,-5.3501,-5.3501,-5.3501,-5.3501,-5.3501,-5.3501,-5.3501,-5.3501,-5.3501,-5.3501,-5.3501,-2.9789,-3.1809,0.0,0.0,-4.0846,-4.3479,-4.4332,-4.5035,-4.5858,-4.7055,-4.707,0.0,0.0,0.0,0.0,0.0,0.0,0.0,0.0,0.0,0.0,0.0,0.0,0.0,0.0,0.0,0.0,0.0,0.0,0.0,0.0,0.0,0.0,0.0,0.0,-4.7309,-4.7309,-4.7309,-4.7309,0.0,-4.8172,-4.9035,-4.9844,-5.0707,-5.1598,-5.2409,-5.2409,-5.2409,-5.2409,-5.2409,-5.2409,-5.2409,-5.2409,-5.2409,-5.2409,-5.2409,-5.2409,-5.2409,-5.2409,-5.2409,-5.2409,-5.2409,-5.2409,-5.2409,-5.2409,-5.2409,-5.2409,-5.2409,-5.2409,-5.2409,-5.2409,-5.2409,-5.2409,-5.2409,-5.2409,-5.2409,-5.2409,-5.2409,-5.2409,-5.2409,-5.2409,-5.2409,-5.2409,-5.2409,-5.2445,-5.2535,-5.264,-5.2764,-5.3076,-5.3213,-5.3332,-5.3467,-5.3501,-5.3501,-5.3501,-5.3501,-5.3501,-5.3501,-5.3501,-5.3501,-5.3501,-5.3501,-5.3501,-5.3501,-5.3501,-5.3501,-5.3501,-5.3501,-5.3501,-5.3501,-5.3501,-5.3501,-2.9998,0.0,0.0,-3.8876,0.0,-4.3539,-4.4167,-4.4586,-4.511,-4.6127,-4.6606,0.0,0.0,0.0,0.0,0.0,0.0,0.0,0.0,0.0,0.0,0.0,0.0,0.0,0.0,0.0,0.0,0.0,0.0,0.0,0.0,0.0,0.0,0.0,-4.7309,-4.7309,-4.7309,-4.7694,-4.7934,-4.7934,-4.9213,-5.0229,-5.1048,-5.1508,-5.198,-5.2409,-5.2409,-5.2409,-5.2409,-5.2409,-5.2409,-5.2409,-5.2409,-5.2409,-5.2409,-5.2409,-5.2409,-5.2409,-5.2409,-5.2409,-5.2409,-5.2409,-5.2409,-5.2409,-5.2409,-5.2409,-5.2409,-5.2409,-5.2409,-5.2409,-5.2409,-5.2409,-5.2409,-5.2409,-5.2409,-5.2409,-5.2409,-5.2409,-5.2409,-5.2409,-5.2409,-5.2409,-5.2409,-5.2445,-5.2535,-5.2589,-5.2764,-5.2972,-5.3179,-5.3264,-5.3382,-5.3501,-5.3501,-5.3501,-5.3501,-5.3501,-5.3501,-5.3501,-5.3501,-5.3501,-5.3501,-5.3501,-5.3501,-5.3501,-5.3501,-5.3501,-5.3501,-5.3501,-5.3501,-5.3501,-5.3501,-5.3501,-3.0016,0.0,-3.5716,-3.9978,-4.1752,0.0,-4.3733,-4.4062,-4.4302,-4.484,0.0,0.0,0.0,0.0,0.0,0.0,0.0,0.0,0.0,0.0,0.0,0.0,0.0,0.0,0.0,0.0,0.0,0.0,0.0,0.0,0.0,0.0,-4.7309,-4.7309,-4.7309,-4.7381,-4.7538,-4.8256,-4.8682,-4.8846,-5.0361,-5.1561,-5.2409,-5.2409,-5.2409,-5.2409,-5.2409,-5.2409,-5.2409,-5.2409,-5.2409,-5.2409,-5.2409,-5.2409,-5.2409,-5.2409,-5.2409,-5.2409,-5.2409,-5.2409,-5.2409,-5.2409,-5.2409,-5.2409,-5.2409,-5.2409,-5.2409,-5.2409,-5.2409,-5.2409,-5.2409,-5.2409,-5.2409,-5.2409,-5.2409,-5.2409,-5.2409,-5.2409,-5.2409,-5.2409,-5.2409,-5.2409,-5.2409,-5.2499,-5.2605,-5.2624,-5.2938,-5.3179,-5.3264,-5.3382,-5.3501,-5.3501,-5.3501,-5.3501,-5.3501,-5.3501,-5.3501,-5.3501,-5.3501,-5.3501,-5.3501,-5.3501,-5.3501,-5.3501,-5.3501,-5.3501,-5.3501,-5.3501,-5.3501,-5.3501,-5.3501,-5.3501,-2.7705,0.0,-3.6058,0.0,-4.1025,-4.244,0.0,0.0,-4.3454,0.0,0.0,0.0,0.0,0.0,0.0,0.0,0.0,0.0,0.0,0.0,0.0,0.0,0.0,0.0,0.0,0.0,0.0,0.0,0.0,0.0,0.0,-4.7309,-4.7309,-4.7309,-4.7309,-4.7666,-4.8407,-4.8532,-4.8953,-4.9647,-5.0631,-5.1561,-5.2409,-5.2409,-5.2409,-5.2409,-5.2409,-5.2409,-5.2409,-5.2409,-5.2409,-5.2409,-5.2409,-5.2409,-5.2409,-5.2409,-5.2409,-5.2409,-5.2409,-5.2409,-5.2409,-5.2409,-5.2409,-5.2409,-5.2409,-5.2409,-5.2409,-5.2409,-5.2409,-5.2409,-5.2409,-5.2409,-5.2409,-5.2409,-5.2409,-5.2409,-5.2409,-5.2409,-5.2409,-5.2409,-5.2409,-5.2409,-5.2409,-5.2409,-5.2516,-5.2816,-5.2903,-5.3058,-5.3433,-5.3467,-5.3501,-5.3501,-5.3501,-5.3501,-5.3501,-5.3501,-5.3501,-5.3501,-5.3501,-5.3501,-5.3501,-5.3501,-5.3501,-5.3501,-5.3501,-5.3501,-5.3501,-5.3501,-5.3501,-5.3501,-5.3501,-5.3501,-2.8936,-3.2033,-3.519,0.0,-4.0068,-4.0905,-4.1677,0.0,0.0,0.0,0.0,0.0,0.0,0.0,0.0,0.0,0.0,0.0,0.0,0.0,0.0,0.0,0.0,0.0,0.0,0.0,0.0,0.0,0.0,0.0,-4.6187,-4.6187,-4.6187,-4.6187,-4.6187,-4.6563,-4.7289,-4.8233,-4.9559,-5.1252,-5.1655,-5.2017,-5.2409,-5.2409,-5.2409,-5.2409,-5.2409,-5.2409,-5.2409,-5.2409,-5.2409,-5.2409,-5.2409,-5.2409,-5.2409,-5.2409,-5.2409,-5.2409,-5.2409,-5.2409,-5.2409,-5.2409,-5.2409,-5.2409,-5.2409,-5.2409,-5.2409,-5.2409,-5.2409,-5.2409,-5.2409,-5.2409,-5.2409,-5.2409,-5.2409,-5.2409,-5.2409,-5.2409,-5.2409,-5.2409,-5.2409,-5.2409,-5.2409,-5.2551,-5.2746,-5.2868,-5.3093,-5.3314,-5.3467,-5.3501,-5.3501,-5.3501,-5.3501,-5.3501,-5.3501,-5.3501,-5.3501,-5.3501,-5.3501,-5.3501,-5.3501,-5.3501,-5.3501,-5.3501,-5.3501,-5.3501,-5.3501,-5.3501,-5.3501,-5.3501,-5.3501,-5.3501,0.0,0.0,-3.338,-3.7,-3.8407,-3.9245,0.0,0.0,0.0,0.0,0.0,0.0,0.0,0.0,0.0,0.0,0.0,0.0,0.0,0.0,0.0,0.0,0.0,0.0,0.0,0.0,0.0,0.0,0.0,0.0,-4.5289,-4.5289,-4.5289,-4.5289,-4.5289,-4.5668,-4.6373,-4.802,-4.987,-5.1827,-5.2045,-5.2127,-5.2144,-5.2291,-5.2409,-5.2409,-5.2409,-5.2409,-5.2409,-5.2409,-5.2409,-5.2409,-5.2409,-5.2409,-5.2409,-5.2409,-5.2409,-5.2409,-5.2409,-5.2409,-5.2409,-5.2409,-5.2409,-5.2409,-5.2409,-5.2409,-5.2409,-5.2409,-5.2409,-5.2409,-5.2409,-5.2409,-5.2409,-5.2409,-5.2409,-5.2409,-5.2409,-5.2409,-5.2409,-5.2409,-5.2409,-5.2409,-5.2445,-5.2676,-5.2868,-5.2972,-5.323,-5.3433,-5.3501,-5.3501,-5.3501,-5.3501,-5.3501,-5.3501,-5.3501,-5.3501,-5.3501,-5.3501,-5.3501,-5.3501,-5.3501,-5.3501,-5.3501,-5.3501,-5.3501,-5.3501,-5.3501,-5.3501,-5.3501,-5.3501,-5.3501,-5.3501,0.0,-2.8319,0.0,-3.3125,-3.5669,0.0,0.0,0.0,0.0,0.0,0.0,0.0,0.0,0.0,0.0,0.0,0.0,0.0,0.0,0.0,0.0,0.0,0.0,0.0,0.0,0.0,0.0,0.0,0.0,0.0,-4.5289,-4.5289,-4.5289,-4.5289,-4.5289,-4.5701,-4.6564,-4.8158,-4.9439,-5.0336,-5.0999,-5.1365,-5.1398,-5.2094,-5.2409,-5.2409,-5.2409,-5.2409,-5.2409,-5.2409,-5.2409,-5.2409,-5.2409,-5.2409,-5.2409,-5.2409,-5.2409,-5.2409,-5.2409,-5.2409,-5.2409,-5.2409,-5.2409,-5.2409,-5.2409,-5.2409,-5.2409,-5.2409,-5.2409,-5.2409,-5.2409,-5.2409,-5.2409,-5.2409,-5.2409,-5.2409,-5.2409,-5.2409,-5.2409,-5.2409,-5.2409,-5.2445,-5.257,-5.2589,-5.2729,-5.311,-5.3179,-5.3264,-5.3467,-5.3501,-5.3501,-5.3501,-5.3501,-5.3501,-5.3501,-5.3501,-5.3501,-5.3501,-5.3501,-5.3501,-5.3501,-5.3501,-5.3501,-5.3501,-5.3501,-5.3501,-5.3501,-5.3501,-5.3501,-5.3501,-5.3501,-5.3501,0.0,0.0,0.0,-3.1465,-3.3574,-3.525,0.0,0.0,0.0,0.0,0.0,0.0,0.0,0.0,0.0,0.0,0.0,0.0,0.0,0.0,0.0,0.0,0.0,0.0,0.0,0.0,0.0,0.0,0.0,0.0,-4.4032,-4.4032,-4.4032,-4.4032,-4.4032,-4.4654,-4.5934,-4.7438,-4.859,-4.9445,-5.0228,-5.0585,-5.0601,-5.0866,-5.1247,-5.168,-5.1181,-5.1529,-5.2409,-5.2409,-5.2409,-5.2409,-5.2409,-5.2409,-5.2409,-5.2409,-5.2409,-5.2409,-5.2409,-5.2409,-5.2409,-5.2409,-5.2409,-5.2409,-5.2409,-5.2409,-5.2409,-5.2409,-5.2409,-5.2409,-5.2409,-5.2409,-5.2409,-5.2409,-5.2409,-5.2409,-5.2409,-5.2409,-5.2409,-5.2409,-5.248,-5.2535,-5.2589,-5.2799,-5.3041,-5.3179,-5.3298,-5.3433,-5.3501,-5.3501,-5.3501,-5.3501,-5.3501,-5.3501,-5.3501,-5.3501,-5.3501,-5.3501,-5.3501,-5.3501,-5.3501,-5.3501,-5.3501,-5.3501,-5.3501,-5.3501,-5.3501,-5.3501,-5.3501,-5.3501,-5.3501,-5.3501,-2.4208,0.0,0.0,0.0,0.0,0.0,0.0,0.0,0.0,0.0,0.0,0.0,0.0,0.0,0.0,0.0,0.0,0.0,0.0,0.0,0.0,0.0,0.0,0.0,0.0,0.0,0.0,0.0,0.0,0.0,-4.329,-4.3551,-4.381,-4.4105,-4.412,-4.4726,-4.599,-4.6914,-4.781,-4.8674,-4.9452,-4.9839,-4.9856,-5.0104,-5.0469,-5.0883,-5.0419,-5.1032,-5.2393,-5.2144,-5.2194,-5.2409,-5.2409,-5.2409,-5.2409,-5.2409,-5.2409,-5.2409,-5.2409,-5.2409,-5.2409,-5.2409,-5.2409,-5.2409,-5.2409,-5.2409,-5.2409,-5.2409,-5.2409,-5.2409,-5.2409,-5.2409,-5.2409,-5.2409,-5.2409,-5.2409,-5.2409,-5.2409,-5.2409,-5.2409,-5.2499,-5.2624,-5.2694,-5.2972,-5.3213,-5.3298,-5.3416,-5.3501,-5.3501,-5.3501,-5.3501,-5.3501,-5.3501,-5.3501,-5.3501,-5.3501,-5.3501,-5.3501,-5.3501,-5.3501,-5.3501,-5.3501,-5.3501,-5.3501,-5.3501,-5.3501,-5.3501,-5.3501,-5.3501,-5.3501,-5.3501,-5.3501,0.0,0.0,0.0,0.0,0.0,0.0,0.0,0.0,0.0,0.0,0.0,0.0,0.0,0.0,0.0,0.0,0.0,0.0,0.0,0.0,0.0,0.0,0.0,0.0,0.0,0.0,0.0,0.0,0.0,-4.323,-4.323,-4.3967,-4.4803,-4.5593,-4.5629,-4.5989,-4.6742,-4.6777,-4.7186,-4.7968,-4.8696,-4.9077,-4.9094,-4.9823,-5.0171,-5.0187,-5.0154,-5.0966,-5.2258,-5.158,-5.1713,-5.2393,-5.2393,-5.2393,-5.2409,-5.2409,-5.2409,-5.2409,-5.2409,-5.2409,-5.2409,-5.2409,-5.2409,-5.2409,-5.2409,-5.2409,-5.2409,-5.2409,-5.2409,-5.2409,-5.2409,-5.2409,-5.2409,-5.2409,-5.2409,-5.2409,-5.2409,-5.2409,-5.2426,-5.2426,-5.2499,-5.2659,-5.2868,-5.3076,-5.3264,-5.3467,-5.3501,-5.3501,-5.3501,-5.3501,-5.3501,-5.3501,-5.3501,-5.3501,-5.3501,-5.3501,-5.3501,-5.3501,-5.3501,-5.3501,-5.3501,-5.3501,-5.3501,-5.3501,-5.3501,-5.3501,-5.3501,-5.3501,-5.3501,-5.3501,-5.3501,-5.3501,-2.2778,0.0,0.0,0.0,0.0,0.0,0.0,0.0,0.0,0.0,0.0,0.0,0.0,0.0,0.0,0.0,0.0,0.0,0.0,0.0,0.0,0.0,0.0,0.0,0.0,0.0,0.0,0.0,-4.1923,-4.1923,-4.1923,-4.2137,-4.2826,-4.4068,-4.4121,-4.4705,-4.6005,-4.6534,-4.6931,-4.7152,-4.7918,-4.8299,-4.8315,-4.8531,-4.8912,-4.9375,-4.8845,-4.9458,-5.08,-5.0601,-5.0932,-5.1614,-5.1614,-5.1945,-5.2409,-5.2409,-5.2409,-5.2409,-5.2409,-5.2409,-5.2409,-5.2409,-5.2409,-5.2409,-5.2409,-5.2409,-5.2409,-5.2409,-5.2409,-5.2409,-5.2409,-5.2409,-5.2409,-5.2409,-5.2409,-5.2409,-5.2409,-5.248,-5.2535,-5.2535,-5.2694,-5.2868,-5.3076,-5.3264,-5.3433,-5.3501,-5.3501,-5.3501,-5.3501,-5.3501,-5.3501,-5.3501,-5.3501,-5.3501,-5.3501,-5.3501,-5.3501,-5.3501,-5.3501,-5.3501,-5.3501,-5.3501,-5.3501,-5.3501,-5.3501,-5.3501,-5.3501,-5.3501,-5.3501,-5.3501,-5.3501,-5.3501,-2.3564,-2.416,-2.5143,-2.5719,0.0,0.0,0.0,-2.9684,0.0,0.0,0.0,0.0,0.0,0.0,0.0,0.0,0.0,0.0,0.0,0.0,0.0,0.0,0.0,0.0,0.0,0.0,0.0,0.0,-4.1422,-4.1543,-4.1849,-4.1849,-4.2533,-4.4,-4.4036,-4.4592,-4.5733,-4.6481,-4.6846,-4.6846,-4.7638,-4.8001,-4.8001,-4.8001,-4.8233,-4.863,-4.8199,-4.8498,-4.9293,-4.9293,-4.9906,-5.0866,-5.1199,-5.158,-5.1995,-5.231,-5.2409,-5.2409,-5.2409,-5.2409,-5.2409,-5.2409,-5.2409,-5.2409,-5.2409,-5.2409,-5.2409,-5.2409,-5.2409,-5.2409,-5.2409,-5.2409,-5.2409,-5.2409,-5.2409,-5.2409,-5.248,-5.2535,-5.2589,-5.2589,-5.2834,-5.3041,-5.3179,-5.3382,-5.3501,-5.3501,-5.3501,-5.3501,-5.3501,-5.3501,-5.3501,-5.3501,-5.3501,-5.3501,-5.3501,-5.3501,-5.3501,-5.3501,-5.3501,-5.3501,-5.3501,-5.3501,-5.3501,-5.3501,-5.3501,-5.3501,-5.3501,-5.3501,-5.3501,-5.3501,-5.3501,-5.3501,-2.4946,-2.5394,-2.6345,-2.7255,-2.6752,0.0,-2.8667,-2.8801,0.0,0.0,0.0,0.0,0.0,0.0,0.0,0.0,0.0,0.0,0.0,0.0,0.0,0.0,0.0,0.0,0.0,-4.1093,-4.1085,-4.116,-4.116,-4.1467,-4.2124,-4.2232,-4.2973,-4.4511,-4.4625,-4.5048,-4.5781,-4.6444,-4.6775,-4.6792,-4.7537,-4.7885,-4.7885,-4.7968,-4.8001,-4.8001,-4.8001,-4.8001,-4.8001,-4.8001,-4.8829,-5.0154,-5.0783,-5.1116,-5.1282,-5.2028,-5.2293,-5.231,-5.2393,-5.2409,-5.2409,-5.2409,-5.2409,-5.2409,-5.2409,-5.2409,-5.2409,-5.2409,-5.2409,-5.2409,-5.2409,-5.2409,-5.2409,-5.2409,-5.2409,-5.2445,-5.257,-5.2605,-5.2624,-5.2624,-5.2938,-5.3213,-5.323,-5.3382,-5.3501,-5.3501,-5.3501,-5.3501,-5.3501,-5.3501,-5.3501,-5.3501,-5.3501,-5.3501,-5.3501,-5.3501,-5.3501,-5.3501,-5.3501,-5.3501,-5.3501,-5.3501,-5.3501,-5.3501,-5.3501,-5.3501,-5.3501,-5.3501,-5.3501,-5.3501,-5.3501,-5.3501,-2.7543,-2.8191,-2.9027,-2.7234,-2.7824,0.0,-2.6752,-2.7096,0.0,0.0,0.0,0.0,0.0,0.0,0.0,0.0,0.0,0.0,0.0,0.0,0.0,0.0,0.0,0.0,0.0,-3.8975,-3.92,-3.9768,-3.9798,-3.9871,-4.0001,-4.0562,-4.1545,-4.2995,-4.3621,-4.451,-4.5781,-4.593,-4.6013,-4.6013,-4.6758,-4.7106,-4.7123,-4.7736,-4.8001,-4.8001,-4.8001,-4.8001,-4.8001,-4.8001,-4.8531,-4.9342,-4.9475,-4.9889,-5.0502,-5.1231,-5.1531,-5.1614,-5.221,-5.2409,-5.2409,-5.2409,-5.2409,-5.2409,-5.2409,-5.2409,-5.2409,-5.2409,-5.2409,-5.2409,-5.2409,-5.2409,-5.2409,-5.2409,-5.2409,-5.2426,-5.2445,-5.264,-5.2834,-5.2834,-5.3041,-5.3264,-5.3416,-5.3467,-5.3501,-5.3501,-5.3501,-5.3501,-5.3501,-5.3501,-5.3501,-5.3501,-5.3501,-5.3501,-5.3501,-5.3501,-5.3501,-5.3501,-5.3501,-5.3501,-5.3501,-5.3501,-5.3501,-5.3501,-5.3501,-5.3501,-5.3501,-5.3501,-5.3501,-5.3501,-5.3501,-5.3501,-2.9037,-2.9188,-2.9693,-2.8426,0.0,0.0,0.0,-2.7096,-2.748,0.0,0.0,0.0,0.0,0.0,0.0,0.0,0.0,0.0,0.0,0.0,0.0,0.0,0.0,0.0,0.0,-3.7898,-3.8048,-3.8392,-3.9058,-3.9289,-3.8901,-3.9928,-4.0994,-4.2015,-4.241,-4.3281,-4.4674,-4.5069,-4.5235,-4.5251,-4.5997,-4.6527,-4.6908,-4.7272,-4.7653,-4.8001,-4.8001,-4.8001,-4.8001,-4.8001,-4.8216,-4.8597,-4.8961,-4.9342,-4.9756,-5.0485,-5.075,-5.085,-5.1614,-5.1862,-5.1928,-5.2293,-5.2409,-5.2409,-5.2409,-5.2409,-5.2409,-5.2409,-5.2409,-5.2409,-5.2409,-5.2409,-5.2409,-5.2409,-5.2409,-5.2409,-5.248,-5.2711,-5.2938,-5.3041,-5.3195,-5.3382,-5.3467,-5.3501,-5.3501,-5.3501,-5.3501,-5.3501,-5.3501,-5.3501,-5.3501,-5.3501,-5.3501,-5.3501,-5.3501,-5.3501,-5.3501,-5.3501,-5.3501,-5.3501,-5.3501,-5.3501,-5.3501,-5.3501,-5.3501,-5.3501,-5.3501,-5.3501,-5.3501,-5.3501,-5.3501,-5.3501,-3.0782,-3.0537,-3.0719,-2.9961,0.0,-2.8648,0.0,0.0,0.0,-2.9205,0.0,0.0,0.0,0.0,0.0,0.0,0.0,0.0,0.0,0.0,0.0,0.0,0.0,0.0,0.0,-3.7045,-3.715,-3.7389,-3.8238,-3.8647,-3.8411,-3.9738,-4.0805,-4.1483,-4.174,-4.2443,-4.3598,-4.4191,-4.4473,-4.4489,-4.5235,-4.5897,-4.6493,-4.6775,-4.7222,-4.7802,-4.7934,-4.8001,-4.8001,-4.8001,-4.8001,-4.8067,-4.8663,-4.8895,-4.8978,-4.9723,-5.0005,-5.0104,-5.0817,-5.11,-5.1181,-5.1761,-5.2059,-5.2227,-5.2376,-5.2409,-5.2409,-5.2409,-5.2409,-5.2409,-5.2409,-5.2409,-5.2409,-5.2409,-5.2409,-5.2445,-5.257,-5.2764,-5.2972,-5.3144,-5.3348,-5.3501,-5.3501,-5.3501,-5.3501,-5.3501,-5.3501,-5.3501,-5.3501,-5.3501,-5.3501,-5.3501,-5.3501,-5.3501,-5.3501,-5.3501,-5.3501,-5.3501,-5.3501,-5.3501,-5.3501,-5.3501,-5.3501,-5.3501,-5.3501,-5.3501,-5.3501,-5.3501,-5.3501,-5.3501,-5.3501,-5.3501,0.0,0.0,0.0,0.0,-3.1614,0.0,0.0,0.0,-2.7949,-2.6467,0.0,0.0,0.0,0.0,0.0,0.0,0.0,0.0,0.0,0.0,0.0,0.0,0.0,0.0,0.0,0.0,-3.6193,-3.733,-3.6499,-3.6675,-3.8295,-3.9747,-4.0801,-4.146,-4.2708,-4.3432,-4.3598,-4.3681,-4.3714,-4.3714,-4.4473,-4.4854,-4.4986,-4.6295,-4.6941,-4.7057,-4.7719,-4.8001,-4.8001,-4.8001,-4.8001,-4.8017,-4.81,-4.8117,-4.8216,-4.8961,-4.9226,-4.9342,-5.0088,-5.0336,-5.0353,-5.0436,-5.0883,-5.1564,-5.221,-5.2409,-5.2409,-5.2409,-5.2409,-5.2409,-5.2409,-5.2409,-5.2409,-5.2409,-5.2409,-5.2445,-5.257,-5.2764,-5.2972,-5.3144,-5.3348,-5.3501,-5.3501,-5.3501,-5.3501,-5.3501,-5.3501,-5.3501,-5.3501,-5.3501,-5.3501,-5.3501,-5.3501,-5.3501,-5.3501,-5.3501,-5.3501,-5.3501,-5.3501,-5.3501,-5.3501,-5.3501,-5.3501,-5.3501,-5.3501,-5.3501,-5.3501,-5.3501,-5.3501,-5.3501,-5.3501,-5.3501,0.0,0.0,0.0,0.0,0.0,0.0,-2.8846,0.0,-2.7993,0.0,0.0,0.0,0.0,0.0,0.0,0.0,0.0,0.0,0.0,0.0,0.0,0.0,0.0,0.0,0.0,0.0,0.0,0.0,0.0,-3.6253,-3.72,-3.9266,-4.0773,-4.1484,-4.2083,-4.2777,-4.3582,-4.3598,-4.3598,-4.3598,-4.3926,-4.4291,-4.4735,-4.5334,-4.6079,-4.6924,-4.7222,-4.7603,-4.8001,-4.8001,-4.8001,-4.8001,-4.8001,-4.8001,-4.8034,-4.8349,-4.8465,-4.858,-4.9326,-4.9574,-4.9641,-5.0071,-5.0701,-5.1365,-5.168,-5.2078,-5.2409,-5.2409,-5.2409,-5.2409,-5.2409,-5.2409,-5.2409,-5.2499,-5.2499,-5.257,-5.2746,-5.2938,-5.311,-5.3179,-5.3348,-5.3501,-5.3501,-5.3501,-5.3501,-5.3501,-5.3501,-5.3501,-5.3501,-5.3501,-5.3501,-5.3501,-5.3501,-5.3501,-5.3501,-5.3501,-5.3501,-5.3501,-5.3501,-5.3501,-5.3501,-5.3501,-5.3501,-5.3501,-5.3501,-5.3501,-5.3501,-5.3501,-5.3501,-5.3501,-5.3501,-5.3501,-3.5791,0.0,0.0,0.0,0.0,0.0,0.0,0.0,0.0,0.0,0.0,0.0,0.0,0.0,0.0,-2.5929,0.0,0.0,0.0,0.0,0.0,0.0,0.0,0.0,0.0,0.0,0.0,0.0,0.0,0.0,-3.6061,-3.8328,-4.0024,-4.0901,-4.1488,-4.2261,-4.3284,-4.3499,-4.3598,-4.3598,-4.3598,-4.3893,-4.4406,-4.4605,-4.5268,-4.6311,-4.6725,-4.7206,-4.7719,-4.7918,-4.8001,-4.8001,-4.8001,-4.8001,-4.8001,-4.8001,-4.8001,-4.8084,-4.8614,-4.8812,-4.8928,-4.9674,-5.027,-5.075,-5.1199,-5.168,-5.2161,-5.2359,-5.2409,-5.2409,-5.2409,-5.2409,-5.2445,-5.257,-5.2589,-5.2659,-5.2938,-5.311,-5.323,-5.3264,-5.3382,-5.3501,-5.3501,-5.3501,-5.3501,-5.3501,-5.3501,-5.3501,-5.3501,-5.3501,-5.3501,-5.3501,-5.3501,-5.3501,-5.3501,-5.3501,-5.3501,-5.3501,-5.3501,-5.3501,-5.3501,-5.3501,-5.3501,-5.3501,-5.3501,-5.3501,-5.3501,-5.3501,-5.3501,-5.3501,-5.3501,-5.3501,0.0,0.0,0.0,-3.3144,0.0,0.0,0.0,0.0,-2.934,0.0,0.0,0.0,0.0,-2.8981,-2.8083,-2.6767,-2.6572,0.0,0.0,0.0,0.0,0.0,0.0,0.0,0.0,0.0,0.0,0.0,0.0,0.0,-3.523,-3.6817,-3.8179,-3.9441,-4.144,-4.2506,-4.2522,-4.3234,-4.3598,-4.3598,-4.3598,-4.3615,-4.3648,-4.4373,-4.4721,-4.4837,-4.6278,-4.6908,-4.699,-4.7703,-4.8001,-4.8001,-4.8001,-4.8001,-4.8001,-4.8001,-4.8001,-4.8001,-4.8034,-4.8034,-4.8166,-4.8912,-4.916,-4.9442,-5.0884,-5.1332,-5.1498,-5.221,-5.2409,-5.2409,-5.2409,-5.2409,-5.2445,-5.257,-5.2589,-5.2694,-5.311,-5.3195,-5.3264,-5.3467,-5.3518,-5.3501,-5.3501,-5.3501,-5.3501,-5.3501,-5.3501,-5.3501,-5.3501,-5.3501,-5.3501,-5.3501,-5.3501,-5.3501,-5.3501,-5.3501,-5.3501,-5.3501,-5.3501,-5.3501,-5.3501,-5.3501,-5.3501,-5.3501,-5.3501,-5.3501,-5.3501,-5.3501,-5.3501,-5.3501,-5.3501,-5.3501,0.0,0.0,-3.6632,-3.4851,0.0,0.0,0.0,0.0,0.0,0.0,0.0,0.0,0.0,-2.9041,-2.8308,-2.742,-2.6512,-2.563,0.0,0.0,0.0,0.0,0.0,0.0,0.0,0.0,0.0,0.0,0.0,0.0,0.0,-3.7267,-3.8663,-4.001,-4.03,-4.1107,-4.2489,-4.2738,-4.3118,-4.3598,-4.3598,-4.3598,-4.3598,-4.3876,-4.4241,-4.4721,-4.5218,-4.5997,-4.6924,-4.7173,-4.7554,-4.8001,-4.8001,-4.8001,-4.8001,-4.8001,-4.8001,-4.8001,-4.8001,-4.8001,-4.805,-4.8299,-4.8713,-4.9193,-4.969,-5.0518,-5.1365,-5.1614,-5.2028,-5.2409,-5.2499,-5.2535,-5.2605,-5.2903,-5.3007,-5.3093,-5.3348,-5.3382,-5.3433,-5.3501,-5.3501,-5.3501,-5.3501,-5.3501,-5.3501,-5.3501,-5.3501,-5.3501,-5.3501,-5.3501,-5.3501,-5.3501,-5.3501,-5.3501,-5.3501,-5.3501,-5.3501,-5.3501,-5.3501,-5.3501,-5.3501,-5.3501,-5.3501,-5.3501,-5.3501,-5.3501,-5.3501,-5.3501,-5.3501,-5.3501,-5.3501,-5.3501,-3.8717,-3.8039,0.0,-3.5732,-3.4204,0.0,-3.0819,0.0,0.0,0.0,0.0,0.0,0.0,0.0,-2.8981,-2.8109,-2.6826,-2.5555,0.0,-2.4517,0.0,0.0,0.0,0.0,0.0,0.0,-2.7713,-2.9628,0.0,0.0,0.0,0.0,-3.8209,-3.9599,-3.9738,-4.0397,-4.174,-4.227,-4.2738,-4.3201,-4.3466,-4.3598,-4.3598,-4.3598,-4.3876,-4.4324,-4.4572,-4.5235,-4.6146,-4.6676,-4.7173,-4.7636,-4.7901,-4.8001,-4.8001,-4.8001,-4.8001,-4.8001,-4.8001,-4.8001,-4.8001,-4.8001,-4.8315,-4.8763,-4.9028,-4.9756,-5.0618,-5.1166,-5.1647,-5.2078,-5.2433,-5.2553,-5.2694,-5.3007,-5.3144,-5.3264,-5.3467,-5.3501,-5.3501,-5.3501,-5.3501,-5.3501,-5.3501,-5.3501,-5.3501,-5.3501,-5.3501,-5.3501,-5.3501,-5.3501,-5.3501,-5.3501,-5.3501,-5.3501,-5.3501,-5.3501,-5.3501,-5.3501,-5.3501,-5.3501,-5.3501,-5.3501,-5.3501,-5.3501,-5.3501,-5.3501,-5.3501,-5.3501,-5.3501,-5.3501,-5.3501,-5.3501]}]]